<?xml version="1.0" encoding="UTF-8" standalone="no" ?>
<gpx xmlns="http://www.topografix.com/GPX/1/1" xmlns:xsi="http://www.w3.org/2001/XMLSchema-instance" xsi:schemaLocation="http://www.topografix.com/GPX/1/1 http://www.topografix.com/GPX/1/1/gpx.xsd" version="1.1" creator="VisuGPX - https://www.visugpx.com">
  <metadata>
    <name>St Germain - Barbade</name>
    <desc><![CDATA[randonnée facile. Aucune difficulté.]]></desc>
  </metadata>
  <trk>
    <name><![CDATA[30 janv. 2014 13:44:33]]></name>
    <cmt><![CDATA[30 janv. 2014 13:44:33]]></cmt>
    <trkseg>
      <trkpt lat="44.13777" lon="3.03858">
        <ele>607</ele>
        <time>2014-01-30T12:44:34Z</time>
      </trkpt>
      <trkpt lat="44.13779" lon="3.03852">
        <ele>655</ele>
        <time>2014-01-30T12:44:37Z</time>
      </trkpt>
      <trkpt lat="44.13777" lon="3.03845">
        <ele>661</ele>
        <time>2014-01-30T12:44:42Z</time>
      </trkpt>
      <trkpt lat="44.13777" lon="3.03845">
        <ele>647</ele>
        <time>2014-01-30T12:45:43Z</time>
      </trkpt>
      <trkpt lat="44.13776" lon="3.03835">
        <ele>647</ele>
        <time>2014-01-30T12:46:06Z</time>
      </trkpt>
      <trkpt lat="44.13775" lon="3.03829">
        <ele>646</ele>
        <time>2014-01-30T12:46:08Z</time>
      </trkpt>
      <trkpt lat="44.13776" lon="3.03823">
        <ele>638</ele>
        <time>2014-01-30T12:46:18Z</time>
      </trkpt>
      <trkpt lat="44.1378" lon="3.03825">
        <ele>630</ele>
        <time>2014-01-30T12:48:02Z</time>
      </trkpt>
      <trkpt lat="44.1378" lon="3.03832">
        <ele>630</ele>
        <time>2014-01-30T12:48:05Z</time>
      </trkpt>
      <trkpt lat="44.1378" lon="3.03838">
        <ele>630</ele>
        <time>2014-01-30T12:48:07Z</time>
      </trkpt>
      <trkpt lat="44.13778" lon="3.03846">
        <ele>630</ele>
        <time>2014-01-30T12:48:11Z</time>
      </trkpt>
      <trkpt lat="44.13779" lon="3.03854">
        <ele>631</ele>
        <time>2014-01-30T12:48:24Z</time>
      </trkpt>
      <trkpt lat="44.13781" lon="3.0386">
        <ele>630</ele>
        <time>2014-01-30T12:48:28Z</time>
      </trkpt>
      <trkpt lat="44.13782" lon="3.03869">
        <ele>631</ele>
        <time>2014-01-30T12:48:39Z</time>
      </trkpt>
      <trkpt lat="44.13783" lon="3.03876">
        <ele>631</ele>
        <time>2014-01-30T12:48:43Z</time>
      </trkpt>
      <trkpt lat="44.13782" lon="3.03883">
        <ele>630</ele>
        <time>2014-01-30T12:48:47Z</time>
      </trkpt>
      <trkpt lat="44.13783" lon="3.0389">
        <ele>630</ele>
        <time>2014-01-30T12:48:50Z</time>
      </trkpt>
      <trkpt lat="44.13784" lon="3.03897">
        <ele>630</ele>
        <time>2014-01-30T12:48:53Z</time>
      </trkpt>
      <trkpt lat="44.13785" lon="3.03904">
        <ele>630</ele>
        <time>2014-01-30T12:48:56Z</time>
      </trkpt>
      <trkpt lat="44.13787" lon="3.03911">
        <ele>631</ele>
        <time>2014-01-30T12:49:00Z</time>
      </trkpt>
      <trkpt lat="44.13789" lon="3.03919">
        <ele>632</ele>
        <time>2014-01-30T12:49:04Z</time>
      </trkpt>
      <trkpt lat="44.1379" lon="3.03926">
        <ele>632</ele>
        <time>2014-01-30T12:49:08Z</time>
      </trkpt>
      <trkpt lat="44.13791" lon="3.03933">
        <ele>633</ele>
        <time>2014-01-30T12:49:11Z</time>
      </trkpt>
      <trkpt lat="44.13792" lon="3.0394">
        <ele>633</ele>
        <time>2014-01-30T12:49:14Z</time>
      </trkpt>
      <trkpt lat="44.13792" lon="3.03948">
        <ele>634</ele>
        <time>2014-01-30T12:49:17Z</time>
      </trkpt>
      <trkpt lat="44.13792" lon="3.03954">
        <ele>633</ele>
        <time>2014-01-30T12:49:21Z</time>
      </trkpt>
      <trkpt lat="44.13792" lon="3.03962">
        <ele>632</ele>
        <time>2014-01-30T12:49:26Z</time>
      </trkpt>
      <trkpt lat="44.13792" lon="3.03969">
        <ele>633</ele>
        <time>2014-01-30T12:49:29Z</time>
      </trkpt>
      <trkpt lat="44.13792" lon="3.03976">
        <ele>634</ele>
        <time>2014-01-30T12:49:33Z</time>
      </trkpt>
      <trkpt lat="44.13792" lon="3.03982">
        <ele>634</ele>
        <time>2014-01-30T12:49:37Z</time>
      </trkpt>
      <trkpt lat="44.13792" lon="3.0399">
        <ele>634</ele>
        <time>2014-01-30T12:49:42Z</time>
      </trkpt>
      <trkpt lat="44.13792" lon="3.03997">
        <ele>635</ele>
        <time>2014-01-30T12:49:46Z</time>
      </trkpt>
      <trkpt lat="44.13792" lon="3.04004">
        <ele>635</ele>
        <time>2014-01-30T12:49:50Z</time>
      </trkpt>
      <trkpt lat="44.1379" lon="3.0401">
        <ele>635</ele>
        <time>2014-01-30T12:49:53Z</time>
      </trkpt>
      <trkpt lat="44.13787" lon="3.04016">
        <ele>635</ele>
        <time>2014-01-30T12:49:57Z</time>
      </trkpt>
      <trkpt lat="44.13789" lon="3.04023">
        <ele>636</ele>
        <time>2014-01-30T12:50:01Z</time>
      </trkpt>
      <trkpt lat="44.13793" lon="3.04027">
        <ele>636</ele>
        <time>2014-01-30T12:50:04Z</time>
      </trkpt>
      <trkpt lat="44.13797" lon="3.04031">
        <ele>636</ele>
        <time>2014-01-30T12:50:07Z</time>
      </trkpt>
      <trkpt lat="44.138" lon="3.04037">
        <ele>636</ele>
        <time>2014-01-30T12:50:11Z</time>
      </trkpt>
      <trkpt lat="44.13803" lon="3.04042">
        <ele>636</ele>
        <time>2014-01-30T12:50:16Z</time>
      </trkpt>
      <trkpt lat="44.13806" lon="3.04049">
        <ele>637</ele>
        <time>2014-01-30T12:50:21Z</time>
      </trkpt>
      <trkpt lat="44.13809" lon="3.04053">
        <ele>636</ele>
        <time>2014-01-30T12:50:24Z</time>
      </trkpt>
      <trkpt lat="44.13813" lon="3.0406">
        <ele>636</ele>
        <time>2014-01-30T12:50:28Z</time>
      </trkpt>
      <trkpt lat="44.13816" lon="3.04066">
        <ele>634</ele>
        <time>2014-01-30T12:50:32Z</time>
      </trkpt>
      <trkpt lat="44.1382" lon="3.04072">
        <ele>635</ele>
        <time>2014-01-30T12:50:36Z</time>
      </trkpt>
      <trkpt lat="44.13822" lon="3.04079">
        <ele>635</ele>
        <time>2014-01-30T12:50:40Z</time>
      </trkpt>
      <trkpt lat="44.13825" lon="3.04085">
        <ele>636</ele>
        <time>2014-01-30T12:50:43Z</time>
      </trkpt>
      <trkpt lat="44.13827" lon="3.04092">
        <ele>636</ele>
        <time>2014-01-30T12:50:46Z</time>
      </trkpt>
      <trkpt lat="44.1383" lon="3.04098">
        <ele>636</ele>
        <time>2014-01-30T12:50:51Z</time>
      </trkpt>
      <trkpt lat="44.13831" lon="3.04105">
        <ele>637</ele>
        <time>2014-01-30T12:50:57Z</time>
      </trkpt>
      <trkpt lat="44.13834" lon="3.04112">
        <ele>642</ele>
        <time>2014-01-30T12:51:08Z</time>
      </trkpt>
      <trkpt lat="44.13838" lon="3.04118">
        <ele>643</ele>
        <time>2014-01-30T12:51:12Z</time>
      </trkpt>
      <trkpt lat="44.1384" lon="3.04124">
        <ele>644</ele>
        <time>2014-01-30T12:51:15Z</time>
      </trkpt>
      <trkpt lat="44.1384" lon="3.04131">
        <ele>645</ele>
        <time>2014-01-30T12:51:20Z</time>
      </trkpt>
      <trkpt lat="44.13842" lon="3.04137">
        <ele>645</ele>
        <time>2014-01-30T12:51:24Z</time>
      </trkpt>
      <trkpt lat="44.13843" lon="3.04144">
        <ele>645</ele>
        <time>2014-01-30T12:51:29Z</time>
      </trkpt>
      <trkpt lat="44.13846" lon="3.0415">
        <ele>646</ele>
        <time>2014-01-30T12:51:34Z</time>
      </trkpt>
      <trkpt lat="44.13847" lon="3.04158">
        <ele>645</ele>
        <time>2014-01-30T12:51:39Z</time>
      </trkpt>
      <trkpt lat="44.13849" lon="3.04164">
        <ele>644</ele>
        <time>2014-01-30T12:51:43Z</time>
      </trkpt>
      <trkpt lat="44.1385" lon="3.04171">
        <ele>645</ele>
        <time>2014-01-30T12:51:47Z</time>
      </trkpt>
      <trkpt lat="44.13851" lon="3.04177">
        <ele>646</ele>
        <time>2014-01-30T12:51:53Z</time>
      </trkpt>
      <trkpt lat="44.13853" lon="3.04185">
        <ele>646</ele>
        <time>2014-01-30T12:51:58Z</time>
      </trkpt>
      <trkpt lat="44.13854" lon="3.04192">
        <ele>647</ele>
        <time>2014-01-30T12:52:03Z</time>
      </trkpt>
      <trkpt lat="44.13854" lon="3.04199">
        <ele>648</ele>
        <time>2014-01-30T12:52:09Z</time>
      </trkpt>
      <trkpt lat="44.13856" lon="3.04206">
        <ele>649</ele>
        <time>2014-01-30T12:52:13Z</time>
      </trkpt>
      <trkpt lat="44.13858" lon="3.04213">
        <ele>650</ele>
        <time>2014-01-30T12:52:17Z</time>
      </trkpt>
      <trkpt lat="44.13861" lon="3.0422">
        <ele>651</ele>
        <time>2014-01-30T12:52:22Z</time>
      </trkpt>
      <trkpt lat="44.13862" lon="3.04226">
        <ele>651</ele>
        <time>2014-01-30T12:52:27Z</time>
      </trkpt>
      <trkpt lat="44.13865" lon="3.04232">
        <ele>651</ele>
        <time>2014-01-30T12:52:32Z</time>
      </trkpt>
      <trkpt lat="44.13867" lon="3.04239">
        <ele>652</ele>
        <time>2014-01-30T12:52:37Z</time>
      </trkpt>
      <trkpt lat="44.13869" lon="3.04246">
        <ele>653</ele>
        <time>2014-01-30T12:52:41Z</time>
      </trkpt>
      <trkpt lat="44.13871" lon="3.04253">
        <ele>654</ele>
        <time>2014-01-30T12:52:45Z</time>
      </trkpt>
      <trkpt lat="44.13873" lon="3.0426">
        <ele>654</ele>
        <time>2014-01-30T12:52:49Z</time>
      </trkpt>
      <trkpt lat="44.13875" lon="3.04266">
        <ele>653</ele>
        <time>2014-01-30T12:52:53Z</time>
      </trkpt>
      <trkpt lat="44.13879" lon="3.04273">
        <ele>654</ele>
        <time>2014-01-30T12:53:00Z</time>
      </trkpt>
      <trkpt lat="44.13879" lon="3.04279">
        <ele>655</ele>
        <time>2014-01-30T12:53:03Z</time>
      </trkpt>
      <trkpt lat="44.13881" lon="3.04286">
        <ele>657</ele>
        <time>2014-01-30T12:53:08Z</time>
      </trkpt>
      <trkpt lat="44.13884" lon="3.04291">
        <ele>658</ele>
        <time>2014-01-30T12:53:11Z</time>
      </trkpt>
      <trkpt lat="44.13886" lon="3.04298">
        <ele>658</ele>
        <time>2014-01-30T12:53:15Z</time>
      </trkpt>
      <trkpt lat="44.13887" lon="3.04305">
        <ele>658</ele>
        <time>2014-01-30T12:53:20Z</time>
      </trkpt>
      <trkpt lat="44.13889" lon="3.04311">
        <ele>657</ele>
        <time>2014-01-30T12:53:24Z</time>
      </trkpt>
      <trkpt lat="44.1389" lon="3.04317">
        <ele>657</ele>
        <time>2014-01-30T12:53:28Z</time>
      </trkpt>
      <trkpt lat="44.13891" lon="3.04325">
        <ele>657</ele>
        <time>2014-01-30T12:53:32Z</time>
      </trkpt>
      <trkpt lat="44.13892" lon="3.04332">
        <ele>658</ele>
        <time>2014-01-30T12:53:36Z</time>
      </trkpt>
      <trkpt lat="44.13894" lon="3.04339">
        <ele>658</ele>
        <time>2014-01-30T12:53:40Z</time>
      </trkpt>
      <trkpt lat="44.13897" lon="3.04345">
        <ele>657</ele>
        <time>2014-01-30T12:53:44Z</time>
      </trkpt>
      <trkpt lat="44.139" lon="3.04352">
        <ele>657</ele>
        <time>2014-01-30T12:53:48Z</time>
      </trkpt>
      <trkpt lat="44.13901" lon="3.04358">
        <ele>658</ele>
        <time>2014-01-30T12:53:52Z</time>
      </trkpt>
      <trkpt lat="44.13901" lon="3.04366">
        <ele>658</ele>
        <time>2014-01-30T12:53:55Z</time>
      </trkpt>
      <trkpt lat="44.13901" lon="3.04374">
        <ele>660</ele>
        <time>2014-01-30T12:53:58Z</time>
      </trkpt>
      <trkpt lat="44.13906" lon="3.04377">
        <ele>661</ele>
        <time>2014-01-30T12:54:01Z</time>
      </trkpt>
      <trkpt lat="44.13908" lon="3.04383">
        <ele>664</ele>
        <time>2014-01-30T12:54:08Z</time>
      </trkpt>
      <trkpt lat="44.1391" lon="3.0439">
        <ele>665</ele>
        <time>2014-01-30T12:54:13Z</time>
      </trkpt>
      <trkpt lat="44.13912" lon="3.04396">
        <ele>664</ele>
        <time>2014-01-30T12:54:17Z</time>
      </trkpt>
      <trkpt lat="44.13914" lon="3.04403">
        <ele>665</ele>
        <time>2014-01-30T12:54:21Z</time>
      </trkpt>
      <trkpt lat="44.13916" lon="3.0441">
        <ele>665</ele>
        <time>2014-01-30T12:54:25Z</time>
      </trkpt>
      <trkpt lat="44.13916" lon="3.04417">
        <ele>665</ele>
        <time>2014-01-30T12:54:30Z</time>
      </trkpt>
      <trkpt lat="44.13916" lon="3.04423">
        <ele>665</ele>
        <time>2014-01-30T12:54:34Z</time>
      </trkpt>
      <trkpt lat="44.13917" lon="3.04431">
        <ele>665</ele>
        <time>2014-01-30T12:54:38Z</time>
      </trkpt>
      <trkpt lat="44.13918" lon="3.04438">
        <ele>666</ele>
        <time>2014-01-30T12:54:42Z</time>
      </trkpt>
      <trkpt lat="44.13922" lon="3.04444">
        <ele>667</ele>
        <time>2014-01-30T12:54:46Z</time>
      </trkpt>
      <trkpt lat="44.13925" lon="3.04451">
        <ele>669</ele>
        <time>2014-01-30T12:54:50Z</time>
      </trkpt>
      <trkpt lat="44.13928" lon="3.04457">
        <ele>671</ele>
        <time>2014-01-30T12:54:54Z</time>
      </trkpt>
      <trkpt lat="44.13929" lon="3.04466">
        <ele>673</ele>
        <time>2014-01-30T12:55:00Z</time>
      </trkpt>
      <trkpt lat="44.1393" lon="3.04473">
        <ele>676</ele>
        <time>2014-01-30T12:55:05Z</time>
      </trkpt>
      <trkpt lat="44.13931" lon="3.04481">
        <ele>678</ele>
        <time>2014-01-30T12:55:09Z</time>
      </trkpt>
      <trkpt lat="44.13932" lon="3.04488">
        <ele>678</ele>
        <time>2014-01-30T12:55:12Z</time>
      </trkpt>
      <trkpt lat="44.13933" lon="3.04494">
        <ele>678</ele>
        <time>2014-01-30T12:55:16Z</time>
      </trkpt>
      <trkpt lat="44.13933" lon="3.04501">
        <ele>678</ele>
        <time>2014-01-30T12:55:22Z</time>
      </trkpt>
      <trkpt lat="44.13934" lon="3.04509">
        <ele>678</ele>
        <time>2014-01-30T12:55:26Z</time>
      </trkpt>
      <trkpt lat="44.13936" lon="3.04515">
        <ele>678</ele>
        <time>2014-01-30T12:55:29Z</time>
      </trkpt>
      <trkpt lat="44.13935" lon="3.04522">
        <ele>677</ele>
        <time>2014-01-30T12:55:32Z</time>
      </trkpt>
      <trkpt lat="44.13934" lon="3.04533">
        <ele>676</ele>
        <time>2014-01-30T12:55:37Z</time>
      </trkpt>
      <trkpt lat="44.13936" lon="3.04539">
        <ele>676</ele>
        <time>2014-01-30T12:55:41Z</time>
      </trkpt>
      <trkpt lat="44.1394" lon="3.04544">
        <ele>677</ele>
        <time>2014-01-30T12:55:45Z</time>
      </trkpt>
      <trkpt lat="44.13943" lon="3.04549">
        <ele>677</ele>
        <time>2014-01-30T12:55:49Z</time>
      </trkpt>
      <trkpt lat="44.13945" lon="3.04557">
        <ele>677</ele>
        <time>2014-01-30T12:55:53Z</time>
      </trkpt>
      <trkpt lat="44.13949" lon="3.04563">
        <ele>677</ele>
        <time>2014-01-30T12:55:57Z</time>
      </trkpt>
      <trkpt lat="44.13951" lon="3.04569">
        <ele>677</ele>
        <time>2014-01-30T12:56:01Z</time>
      </trkpt>
      <trkpt lat="44.13952" lon="3.04575">
        <ele>676</ele>
        <time>2014-01-30T12:56:06Z</time>
      </trkpt>
      <trkpt lat="44.13952" lon="3.04582">
        <ele>677</ele>
        <time>2014-01-30T12:56:10Z</time>
      </trkpt>
      <trkpt lat="44.13952" lon="3.04589">
        <ele>677</ele>
        <time>2014-01-30T12:56:14Z</time>
      </trkpt>
      <trkpt lat="44.13951" lon="3.04597">
        <ele>679</ele>
        <time>2014-01-30T12:56:19Z</time>
      </trkpt>
      <trkpt lat="44.1395" lon="3.04603">
        <ele>680</ele>
        <time>2014-01-30T12:56:22Z</time>
      </trkpt>
      <trkpt lat="44.13951" lon="3.0461">
        <ele>682</ele>
        <time>2014-01-30T12:56:26Z</time>
      </trkpt>
      <trkpt lat="44.13951" lon="3.04617">
        <ele>683</ele>
        <time>2014-01-30T12:56:31Z</time>
      </trkpt>
      <trkpt lat="44.13952" lon="3.04623">
        <ele>684</ele>
        <time>2014-01-30T12:56:35Z</time>
      </trkpt>
      <trkpt lat="44.13955" lon="3.04631">
        <ele>685</ele>
        <time>2014-01-30T12:56:39Z</time>
      </trkpt>
      <trkpt lat="44.13957" lon="3.04637">
        <ele>686</ele>
        <time>2014-01-30T12:56:42Z</time>
      </trkpt>
      <trkpt lat="44.1396" lon="3.04643">
        <ele>687</ele>
        <time>2014-01-30T12:56:45Z</time>
      </trkpt>
      <trkpt lat="44.13962" lon="3.04651">
        <ele>689</ele>
        <time>2014-01-30T12:56:49Z</time>
      </trkpt>
      <trkpt lat="44.13963" lon="3.04658">
        <ele>690</ele>
        <time>2014-01-30T12:56:52Z</time>
      </trkpt>
      <trkpt lat="44.13964" lon="3.04664">
        <ele>691</ele>
        <time>2014-01-30T12:56:56Z</time>
      </trkpt>
      <trkpt lat="44.13964" lon="3.04671">
        <ele>690</ele>
        <time>2014-01-30T12:57:00Z</time>
      </trkpt>
      <trkpt lat="44.13962" lon="3.04677">
        <ele>690</ele>
        <time>2014-01-30T12:57:03Z</time>
      </trkpt>
      <trkpt lat="44.13961" lon="3.04683">
        <ele>689</ele>
        <time>2014-01-30T12:57:07Z</time>
      </trkpt>
      <trkpt lat="44.13963" lon="3.04688">
        <ele>688</ele>
        <time>2014-01-30T12:57:11Z</time>
      </trkpt>
      <trkpt lat="44.13966" lon="3.04695">
        <ele>687</ele>
        <time>2014-01-30T12:57:15Z</time>
      </trkpt>
      <trkpt lat="44.13967" lon="3.04702">
        <ele>686</ele>
        <time>2014-01-30T12:57:20Z</time>
      </trkpt>
      <trkpt lat="44.13969" lon="3.04709">
        <ele>684</ele>
        <time>2014-01-30T12:57:26Z</time>
      </trkpt>
      <trkpt lat="44.13971" lon="3.04715">
        <ele>684</ele>
        <time>2014-01-30T12:57:30Z</time>
      </trkpt>
      <trkpt lat="44.13973" lon="3.04721">
        <ele>686</ele>
        <time>2014-01-30T12:57:33Z</time>
      </trkpt>
      <trkpt lat="44.13977" lon="3.04727">
        <ele>686</ele>
        <time>2014-01-30T12:57:37Z</time>
      </trkpt>
      <trkpt lat="44.13979" lon="3.04735">
        <ele>685</ele>
        <time>2014-01-30T12:57:41Z</time>
      </trkpt>
      <trkpt lat="44.13981" lon="3.04742">
        <ele>684</ele>
        <time>2014-01-30T12:57:45Z</time>
      </trkpt>
      <trkpt lat="44.13984" lon="3.04748">
        <ele>685</ele>
        <time>2014-01-30T12:57:51Z</time>
      </trkpt>
      <trkpt lat="44.13986" lon="3.04755">
        <ele>685</ele>
        <time>2014-01-30T12:57:56Z</time>
      </trkpt>
      <trkpt lat="44.13991" lon="3.0476">
        <ele>683</ele>
        <time>2014-01-30T12:58:01Z</time>
      </trkpt>
      <trkpt lat="44.13995" lon="3.04766">
        <ele>683</ele>
        <time>2014-01-30T12:58:05Z</time>
      </trkpt>
      <trkpt lat="44.13998" lon="3.04772">
        <ele>683</ele>
        <time>2014-01-30T12:58:10Z</time>
      </trkpt>
      <trkpt lat="44.14002" lon="3.04778">
        <ele>685</ele>
        <time>2014-01-30T12:58:16Z</time>
      </trkpt>
      <trkpt lat="44.14006" lon="3.04783">
        <ele>686</ele>
        <time>2014-01-30T12:58:20Z</time>
      </trkpt>
      <trkpt lat="44.14009" lon="3.04787">
        <ele>687</ele>
        <time>2014-01-30T12:58:23Z</time>
      </trkpt>
      <trkpt lat="44.14012" lon="3.04793">
        <ele>688</ele>
        <time>2014-01-30T12:58:26Z</time>
      </trkpt>
      <trkpt lat="44.14015" lon="3.048">
        <ele>690</ele>
        <time>2014-01-30T12:58:30Z</time>
      </trkpt>
      <trkpt lat="44.14017" lon="3.04806">
        <ele>691</ele>
        <time>2014-01-30T12:58:35Z</time>
      </trkpt>
      <trkpt lat="44.14019" lon="3.04812">
        <ele>693</ele>
        <time>2014-01-30T12:58:40Z</time>
      </trkpt>
      <trkpt lat="44.1402" lon="3.0482">
        <ele>695</ele>
        <time>2014-01-30T12:58:43Z</time>
      </trkpt>
      <trkpt lat="44.14023" lon="3.04827">
        <ele>696</ele>
        <time>2014-01-30T12:58:47Z</time>
      </trkpt>
      <trkpt lat="44.14027" lon="3.04833">
        <ele>695</ele>
        <time>2014-01-30T12:58:51Z</time>
      </trkpt>
      <trkpt lat="44.1403" lon="3.04837">
        <ele>695</ele>
        <time>2014-01-30T12:58:54Z</time>
      </trkpt>
      <trkpt lat="44.14033" lon="3.04842">
        <ele>696</ele>
        <time>2014-01-30T12:58:57Z</time>
      </trkpt>
      <trkpt lat="44.14036" lon="3.04848">
        <ele>696</ele>
        <time>2014-01-30T12:59:00Z</time>
      </trkpt>
      <trkpt lat="44.1404" lon="3.04855">
        <ele>695</ele>
        <time>2014-01-30T12:59:04Z</time>
      </trkpt>
      <trkpt lat="44.14043" lon="3.0486">
        <ele>695</ele>
        <time>2014-01-30T12:59:07Z</time>
      </trkpt>
      <trkpt lat="44.14046" lon="3.04864">
        <ele>695</ele>
        <time>2014-01-30T12:59:11Z</time>
      </trkpt>
      <trkpt lat="44.14048" lon="3.04871">
        <ele>695</ele>
        <time>2014-01-30T12:59:15Z</time>
      </trkpt>
      <trkpt lat="44.1405" lon="3.04878">
        <ele>697</ele>
        <time>2014-01-30T12:59:19Z</time>
      </trkpt>
      <trkpt lat="44.14052" lon="3.04884">
        <ele>698</ele>
        <time>2014-01-30T12:59:23Z</time>
      </trkpt>
      <trkpt lat="44.14055" lon="3.04891">
        <ele>699</ele>
        <time>2014-01-30T12:59:27Z</time>
      </trkpt>
      <trkpt lat="44.14056" lon="3.04897">
        <ele>700</ele>
        <time>2014-01-30T12:59:31Z</time>
      </trkpt>
      <trkpt lat="44.14058" lon="3.04903">
        <ele>700</ele>
        <time>2014-01-30T12:59:35Z</time>
      </trkpt>
      <trkpt lat="44.1406" lon="3.0491">
        <ele>699</ele>
        <time>2014-01-30T12:59:39Z</time>
      </trkpt>
      <trkpt lat="44.14061" lon="3.04918">
        <ele>697</ele>
        <time>2014-01-30T12:59:43Z</time>
      </trkpt>
      <trkpt lat="44.14063" lon="3.04925">
        <ele>696</ele>
        <time>2014-01-30T12:59:47Z</time>
      </trkpt>
      <trkpt lat="44.14063" lon="3.04933">
        <ele>695</ele>
        <time>2014-01-30T12:59:53Z</time>
      </trkpt>
      <trkpt lat="44.14064" lon="3.0494">
        <ele>695</ele>
        <time>2014-01-30T12:59:57Z</time>
      </trkpt>
      <trkpt lat="44.14065" lon="3.04947">
        <ele>693</ele>
        <time>2014-01-30T13:00:01Z</time>
      </trkpt>
      <trkpt lat="44.14067" lon="3.04956">
        <ele>693</ele>
        <time>2014-01-30T13:00:05Z</time>
      </trkpt>
      <trkpt lat="44.14068" lon="3.04964">
        <ele>693</ele>
        <time>2014-01-30T13:00:08Z</time>
      </trkpt>
      <trkpt lat="44.14066" lon="3.04971">
        <ele>693</ele>
        <time>2014-01-30T13:00:11Z</time>
      </trkpt>
      <trkpt lat="44.14068" lon="3.04978">
        <ele>694</ele>
        <time>2014-01-30T13:00:14Z</time>
      </trkpt>
      <trkpt lat="44.1407" lon="3.04985">
        <ele>696</ele>
        <time>2014-01-30T13:00:17Z</time>
      </trkpt>
      <trkpt lat="44.14072" lon="3.04991">
        <ele>696</ele>
        <time>2014-01-30T13:00:20Z</time>
      </trkpt>
      <trkpt lat="44.14073" lon="3.04998">
        <ele>697</ele>
        <time>2014-01-30T13:00:23Z</time>
      </trkpt>
      <trkpt lat="44.14072" lon="3.05005">
        <ele>696</ele>
        <time>2014-01-30T13:00:27Z</time>
      </trkpt>
      <trkpt lat="44.14072" lon="3.05013">
        <ele>696</ele>
        <time>2014-01-30T13:00:31Z</time>
      </trkpt>
      <trkpt lat="44.14073" lon="3.0502">
        <ele>697</ele>
        <time>2014-01-30T13:00:35Z</time>
      </trkpt>
      <trkpt lat="44.14073" lon="3.05028">
        <ele>697</ele>
        <time>2014-01-30T13:00:39Z</time>
      </trkpt>
      <trkpt lat="44.14074" lon="3.05034">
        <ele>697</ele>
        <time>2014-01-30T13:00:42Z</time>
      </trkpt>
      <trkpt lat="44.14073" lon="3.05042">
        <ele>696</ele>
        <time>2014-01-30T13:00:46Z</time>
      </trkpt>
      <trkpt lat="44.14073" lon="3.05049">
        <ele>697</ele>
        <time>2014-01-30T13:00:49Z</time>
      </trkpt>
      <trkpt lat="44.14072" lon="3.05056">
        <ele>697</ele>
        <time>2014-01-30T13:00:52Z</time>
      </trkpt>
      <trkpt lat="44.14071" lon="3.05062">
        <ele>697</ele>
        <time>2014-01-30T13:00:55Z</time>
      </trkpt>
      <trkpt lat="44.14072" lon="3.05068">
        <ele>697</ele>
        <time>2014-01-30T13:00:58Z</time>
      </trkpt>
      <trkpt lat="44.14072" lon="3.05075">
        <ele>698</ele>
        <time>2014-01-30T13:01:01Z</time>
      </trkpt>
      <trkpt lat="44.14072" lon="3.05081">
        <ele>698</ele>
        <time>2014-01-30T13:01:04Z</time>
      </trkpt>
      <trkpt lat="44.14071" lon="3.05088">
        <ele>697</ele>
        <time>2014-01-30T13:01:07Z</time>
      </trkpt>
      <trkpt lat="44.14072" lon="3.05095">
        <ele>697</ele>
        <time>2014-01-30T13:01:10Z</time>
      </trkpt>
      <trkpt lat="44.14072" lon="3.05102">
        <ele>696</ele>
        <time>2014-01-30T13:01:13Z</time>
      </trkpt>
      <trkpt lat="44.14071" lon="3.05109">
        <ele>696</ele>
        <time>2014-01-30T13:01:16Z</time>
      </trkpt>
      <trkpt lat="44.1407" lon="3.05115">
        <ele>695</ele>
        <time>2014-01-30T13:01:19Z</time>
      </trkpt>
      <trkpt lat="44.14071" lon="3.05122">
        <ele>695</ele>
        <time>2014-01-30T13:01:22Z</time>
      </trkpt>
      <trkpt lat="44.14074" lon="3.05128">
        <ele>694</ele>
        <time>2014-01-30T13:01:25Z</time>
      </trkpt>
      <trkpt lat="44.14077" lon="3.05135">
        <ele>692</ele>
        <time>2014-01-30T13:01:29Z</time>
      </trkpt>
      <trkpt lat="44.14078" lon="3.05143">
        <ele>691</ele>
        <time>2014-01-30T13:01:33Z</time>
      </trkpt>
      <trkpt lat="44.1408" lon="3.0515">
        <ele>691</ele>
        <time>2014-01-30T13:01:36Z</time>
      </trkpt>
      <trkpt lat="44.14082" lon="3.05156">
        <ele>690</ele>
        <time>2014-01-30T13:01:39Z</time>
      </trkpt>
      <trkpt lat="44.14086" lon="3.05161">
        <ele>689</ele>
        <time>2014-01-30T13:01:43Z</time>
      </trkpt>
      <trkpt lat="44.14092" lon="3.05164">
        <ele>688</ele>
        <time>2014-01-30T13:01:47Z</time>
      </trkpt>
      <trkpt lat="44.14096" lon="3.05167">
        <ele>688</ele>
        <time>2014-01-30T13:01:50Z</time>
      </trkpt>
      <trkpt lat="44.14102" lon="3.05171">
        <ele>687</ele>
        <time>2014-01-30T13:01:54Z</time>
      </trkpt>
      <trkpt lat="44.14108" lon="3.05174">
        <ele>686</ele>
        <time>2014-01-30T13:01:57Z</time>
      </trkpt>
      <trkpt lat="44.14113" lon="3.05177">
        <ele>685</ele>
        <time>2014-01-30T13:02:00Z</time>
      </trkpt>
      <trkpt lat="44.14118" lon="3.0518">
        <ele>685</ele>
        <time>2014-01-30T13:02:03Z</time>
      </trkpt>
      <trkpt lat="44.14123" lon="3.05183">
        <ele>685</ele>
        <time>2014-01-30T13:02:07Z</time>
      </trkpt>
      <trkpt lat="44.14127" lon="3.05187">
        <ele>685</ele>
        <time>2014-01-30T13:02:10Z</time>
      </trkpt>
      <trkpt lat="44.14131" lon="3.0519">
        <ele>685</ele>
        <time>2014-01-30T13:02:13Z</time>
      </trkpt>
      <trkpt lat="44.14136" lon="3.05194">
        <ele>683</ele>
        <time>2014-01-30T13:02:18Z</time>
      </trkpt>
      <trkpt lat="44.14139" lon="3.052">
        <ele>682</ele>
        <time>2014-01-30T13:02:23Z</time>
      </trkpt>
      <trkpt lat="44.14145" lon="3.05202">
        <ele>682</ele>
        <time>2014-01-30T13:02:28Z</time>
      </trkpt>
      <trkpt lat="44.1415" lon="3.05203">
        <ele>682</ele>
        <time>2014-01-30T13:02:32Z</time>
      </trkpt>
      <trkpt lat="44.14155" lon="3.052">
        <ele>682</ele>
        <time>2014-01-30T13:02:36Z</time>
      </trkpt>
      <trkpt lat="44.14158" lon="3.05195">
        <ele>681</ele>
        <time>2014-01-30T13:02:42Z</time>
      </trkpt>
      <trkpt lat="44.14162" lon="3.05191">
        <ele>681</ele>
        <time>2014-01-30T13:02:46Z</time>
      </trkpt>
      <trkpt lat="44.14167" lon="3.0519">
        <ele>681</ele>
        <time>2014-01-30T13:02:49Z</time>
      </trkpt>
      <trkpt lat="44.14171" lon="3.05187">
        <ele>681</ele>
        <time>2014-01-30T13:02:54Z</time>
      </trkpt>
      <trkpt lat="44.14176" lon="3.05184">
        <ele>680</ele>
        <time>2014-01-30T13:02:59Z</time>
      </trkpt>
      <trkpt lat="44.1418" lon="3.05182">
        <ele>678</ele>
        <time>2014-01-30T13:03:02Z</time>
      </trkpt>
      <trkpt lat="44.14185" lon="3.0518">
        <ele>678</ele>
        <time>2014-01-30T13:03:06Z</time>
      </trkpt>
      <trkpt lat="44.14188" lon="3.05174">
        <ele>676</ele>
        <time>2014-01-30T13:03:12Z</time>
      </trkpt>
      <trkpt lat="44.14191" lon="3.0517">
        <ele>675</ele>
        <time>2014-01-30T13:03:20Z</time>
      </trkpt>
      <trkpt lat="44.14198" lon="3.05167">
        <ele>673</ele>
        <time>2014-01-30T13:03:27Z</time>
      </trkpt>
      <trkpt lat="44.14202" lon="3.05166">
        <ele>671</ele>
        <time>2014-01-30T13:03:30Z</time>
      </trkpt>
      <trkpt lat="44.1421" lon="3.05167">
        <ele>668</ele>
        <time>2014-01-30T13:03:42Z</time>
      </trkpt>
      <trkpt lat="44.14214" lon="3.05172">
        <ele>666</ele>
        <time>2014-01-30T13:03:49Z</time>
      </trkpt>
      <trkpt lat="44.14218" lon="3.05175">
        <ele>662</ele>
        <time>2014-01-30T13:03:57Z</time>
      </trkpt>
      <trkpt lat="44.14222" lon="3.05178">
        <ele>661</ele>
        <time>2014-01-30T13:04:01Z</time>
      </trkpt>
      <trkpt lat="44.14226" lon="3.05181">
        <ele>659</ele>
        <time>2014-01-30T13:04:06Z</time>
      </trkpt>
      <trkpt lat="44.14232" lon="3.0518">
        <ele>658</ele>
        <time>2014-01-30T13:04:10Z</time>
      </trkpt>
      <trkpt lat="44.14237" lon="3.05179">
        <ele>656</ele>
        <time>2014-01-30T13:04:14Z</time>
      </trkpt>
      <trkpt lat="44.14241" lon="3.05179">
        <ele>654</ele>
        <time>2014-01-30T13:04:20Z</time>
      </trkpt>
      <trkpt lat="44.14246" lon="3.05177">
        <ele>653</ele>
        <time>2014-01-30T13:04:25Z</time>
      </trkpt>
      <trkpt lat="44.14252" lon="3.05178">
        <ele>653</ele>
        <time>2014-01-30T13:04:30Z</time>
      </trkpt>
      <trkpt lat="44.14256" lon="3.05177">
        <ele>652</ele>
        <time>2014-01-30T13:04:35Z</time>
      </trkpt>
      <trkpt lat="44.1426" lon="3.05174">
        <ele>652</ele>
        <time>2014-01-30T13:04:42Z</time>
      </trkpt>
      <trkpt lat="44.14265" lon="3.05175">
        <ele>649</ele>
        <time>2014-01-30T13:04:51Z</time>
      </trkpt>
      <trkpt lat="44.14271" lon="3.05174">
        <ele>649</ele>
        <time>2014-01-30T13:04:55Z</time>
      </trkpt>
      <trkpt lat="44.14277" lon="3.05175">
        <ele>646</ele>
        <time>2014-01-30T13:04:58Z</time>
      </trkpt>
      <trkpt lat="44.14282" lon="3.05175">
        <ele>644</ele>
        <time>2014-01-30T13:05:00Z</time>
      </trkpt>
      <trkpt lat="44.14288" lon="3.05173">
        <ele>641</ele>
        <time>2014-01-30T13:05:03Z</time>
      </trkpt>
      <trkpt lat="44.14292" lon="3.05168">
        <ele>639</ele>
        <time>2014-01-30T13:05:10Z</time>
      </trkpt>
      <trkpt lat="44.14296" lon="3.05166">
        <ele>639</ele>
        <time>2014-01-30T13:05:13Z</time>
      </trkpt>
      <trkpt lat="44.14303" lon="3.05163">
        <ele>640</ele>
        <time>2014-01-30T13:05:16Z</time>
      </trkpt>
      <trkpt lat="44.1431" lon="3.0516">
        <ele>641</ele>
        <time>2014-01-30T13:05:19Z</time>
      </trkpt>
      <trkpt lat="44.14315" lon="3.05159">
        <ele>641</ele>
        <time>2014-01-30T13:05:21Z</time>
      </trkpt>
      <trkpt lat="44.14321" lon="3.05157">
        <ele>642</ele>
        <time>2014-01-30T13:05:24Z</time>
      </trkpt>
      <trkpt lat="44.14327" lon="3.05155">
        <ele>643</ele>
        <time>2014-01-30T13:05:27Z</time>
      </trkpt>
      <trkpt lat="44.14331" lon="3.05152">
        <ele>643</ele>
        <time>2014-01-30T13:05:32Z</time>
      </trkpt>
      <trkpt lat="44.14337" lon="3.0515">
        <ele>644</ele>
        <time>2014-01-30T13:05:35Z</time>
      </trkpt>
      <trkpt lat="44.14344" lon="3.05148">
        <ele>644</ele>
        <time>2014-01-30T13:05:38Z</time>
      </trkpt>
      <trkpt lat="44.14349" lon="3.05147">
        <ele>645</ele>
        <time>2014-01-30T13:05:42Z</time>
      </trkpt>
      <trkpt lat="44.14354" lon="3.05145">
        <ele>644</ele>
        <time>2014-01-30T13:05:46Z</time>
      </trkpt>
      <trkpt lat="44.14357" lon="3.05139">
        <ele>644</ele>
        <time>2014-01-30T13:05:49Z</time>
      </trkpt>
      <trkpt lat="44.14357" lon="3.05132">
        <ele>644</ele>
        <time>2014-01-30T13:05:50Z</time>
      </trkpt>
      <trkpt lat="44.14356" lon="3.05122">
        <ele>644</ele>
        <time>2014-01-30T13:05:52Z</time>
      </trkpt>
      <trkpt lat="44.14356" lon="3.05119">
        <ele>644</ele>
        <time>2014-01-30T13:05:53Z</time>
      </trkpt>
      <trkpt lat="44.14356" lon="3.05114">
        <ele>645</ele>
        <time>2014-01-30T13:05:54Z</time>
      </trkpt>
      <trkpt lat="44.14356" lon="3.0511">
        <ele>645</ele>
        <time>2014-01-30T13:05:55Z</time>
      </trkpt>
      <trkpt lat="44.14356" lon="3.05107">
        <ele>645</ele>
        <time>2014-01-30T13:05:56Z</time>
      </trkpt>
      <trkpt lat="44.14359" lon="3.05104">
        <ele>644</ele>
        <time>2014-01-30T13:06:00Z</time>
      </trkpt>
      <trkpt lat="44.14366" lon="3.05107">
        <ele>642</ele>
        <time>2014-01-30T13:06:05Z</time>
      </trkpt>
      <trkpt lat="44.14371" lon="3.05109">
        <ele>640</ele>
        <time>2014-01-30T13:06:09Z</time>
      </trkpt>
      <trkpt lat="44.14376" lon="3.05109">
        <ele>640</ele>
        <time>2014-01-30T13:06:13Z</time>
      </trkpt>
      <trkpt lat="44.14381" lon="3.05105">
        <ele>641</ele>
        <time>2014-01-30T13:06:16Z</time>
      </trkpt>
      <trkpt lat="44.14385" lon="3.05101">
        <ele>641</ele>
        <time>2014-01-30T13:06:19Z</time>
      </trkpt>
      <trkpt lat="44.14387" lon="3.05095">
        <ele>641</ele>
        <time>2014-01-30T13:06:23Z</time>
      </trkpt>
      <trkpt lat="44.14391" lon="3.05091">
        <ele>640</ele>
        <time>2014-01-30T13:06:27Z</time>
      </trkpt>
      <trkpt lat="44.14396" lon="3.05089">
        <ele>639</ele>
        <time>2014-01-30T13:06:31Z</time>
      </trkpt>
      <trkpt lat="44.14402" lon="3.05089">
        <ele>636</ele>
        <time>2014-01-30T13:06:35Z</time>
      </trkpt>
      <trkpt lat="44.14423" lon="3.05091">
        <ele>625</ele>
        <time>2014-01-30T13:06:55Z</time>
      </trkpt>
      <trkpt lat="44.14427" lon="3.05085">
        <ele>624</ele>
        <time>2014-01-30T13:07:01Z</time>
      </trkpt>
      <trkpt lat="44.14428" lon="3.05079">
        <ele>624</ele>
        <time>2014-01-30T13:07:04Z</time>
      </trkpt>
      <trkpt lat="44.1443" lon="3.05072">
        <ele>624</ele>
        <time>2014-01-30T13:07:07Z</time>
      </trkpt>
      <trkpt lat="44.14432" lon="3.05067">
        <ele>624</ele>
        <time>2014-01-30T13:07:10Z</time>
      </trkpt>
      <trkpt lat="44.14437" lon="3.05064">
        <ele>625</ele>
        <time>2014-01-30T13:07:16Z</time>
      </trkpt>
      <trkpt lat="44.1444" lon="3.05059">
        <ele>627</ele>
        <time>2014-01-30T13:07:21Z</time>
      </trkpt>
      <trkpt lat="44.14444" lon="3.05053">
        <ele>626</ele>
        <time>2014-01-30T13:07:24Z</time>
      </trkpt>
      <trkpt lat="44.14446" lon="3.05047">
        <ele>626</ele>
        <time>2014-01-30T13:07:26Z</time>
      </trkpt>
      <trkpt lat="44.14449" lon="3.05041">
        <ele>625</ele>
        <time>2014-01-30T13:07:29Z</time>
      </trkpt>
      <trkpt lat="44.14454" lon="3.05036">
        <ele>624</ele>
        <time>2014-01-30T13:07:33Z</time>
      </trkpt>
      <trkpt lat="44.14459" lon="3.05033">
        <ele>624</ele>
        <time>2014-01-30T13:07:37Z</time>
      </trkpt>
      <trkpt lat="44.14463" lon="3.05029">
        <ele>624</ele>
        <time>2014-01-30T13:07:41Z</time>
      </trkpt>
      <trkpt lat="44.14466" lon="3.05022">
        <ele>624</ele>
        <time>2014-01-30T13:07:45Z</time>
      </trkpt>
      <trkpt lat="44.14469" lon="3.05017">
        <ele>625</ele>
        <time>2014-01-30T13:07:49Z</time>
      </trkpt>
      <trkpt lat="44.14473" lon="3.05013">
        <ele>625</ele>
        <time>2014-01-30T13:07:52Z</time>
      </trkpt>
      <trkpt lat="44.14478" lon="3.05009">
        <ele>625</ele>
        <time>2014-01-30T13:07:56Z</time>
      </trkpt>
      <trkpt lat="44.14483" lon="3.05009">
        <ele>624</ele>
        <time>2014-01-30T13:08:00Z</time>
      </trkpt>
      <trkpt lat="44.14488" lon="3.05006">
        <ele>623</ele>
        <time>2014-01-30T13:08:04Z</time>
      </trkpt>
      <trkpt lat="44.14492" lon="3.05004">
        <ele>622</ele>
        <time>2014-01-30T13:08:09Z</time>
      </trkpt>
      <trkpt lat="44.14496" lon="3.05006">
        <ele>617</ele>
        <time>2014-01-30T13:08:17Z</time>
      </trkpt>
      <trkpt lat="44.14501" lon="3.05009">
        <ele>615</ele>
        <time>2014-01-30T13:08:21Z</time>
      </trkpt>
      <trkpt lat="44.14505" lon="3.05015">
        <ele>613</ele>
        <time>2014-01-30T13:08:26Z</time>
      </trkpt>
      <trkpt lat="44.14508" lon="3.0502">
        <ele>611</ele>
        <time>2014-01-30T13:08:31Z</time>
      </trkpt>
      <trkpt lat="44.14513" lon="3.05025">
        <ele>610</ele>
        <time>2014-01-30T13:08:34Z</time>
      </trkpt>
      <trkpt lat="44.14518" lon="3.05027">
        <ele>609</ele>
        <time>2014-01-30T13:08:38Z</time>
      </trkpt>
      <trkpt lat="44.14523" lon="3.05027">
        <ele>608</ele>
        <time>2014-01-30T13:08:42Z</time>
      </trkpt>
      <trkpt lat="44.14528" lon="3.05025">
        <ele>607</ele>
        <time>2014-01-30T13:08:46Z</time>
      </trkpt>
      <trkpt lat="44.14532" lon="3.0502">
        <ele>607</ele>
        <time>2014-01-30T13:08:50Z</time>
      </trkpt>
      <trkpt lat="44.14537" lon="3.05018">
        <ele>607</ele>
        <time>2014-01-30T13:08:55Z</time>
      </trkpt>
      <trkpt lat="44.14539" lon="3.05016">
        <ele>607</ele>
        <time>2014-01-30T13:09:00Z</time>
      </trkpt>
      <trkpt lat="44.14542" lon="3.05011">
        <ele>610</ele>
        <time>2014-01-30T13:09:06Z</time>
      </trkpt>
      <trkpt lat="44.14547" lon="3.05012">
        <ele>611</ele>
        <time>2014-01-30T13:09:11Z</time>
      </trkpt>
      <trkpt lat="44.1455" lon="3.05011">
        <ele>612</ele>
        <time>2014-01-30T13:09:18Z</time>
      </trkpt>
      <trkpt lat="44.14556" lon="3.05012">
        <ele>615</ele>
        <time>2014-01-30T13:09:23Z</time>
      </trkpt>
      <trkpt lat="44.14561" lon="3.05014">
        <ele>616</ele>
        <time>2014-01-30T13:09:27Z</time>
      </trkpt>
      <trkpt lat="44.14566" lon="3.05014">
        <ele>617</ele>
        <time>2014-01-30T13:09:31Z</time>
      </trkpt>
      <trkpt lat="44.14572" lon="3.05017">
        <ele>617</ele>
        <time>2014-01-30T13:09:36Z</time>
      </trkpt>
      <trkpt lat="44.14577" lon="3.0502">
        <ele>616</ele>
        <time>2014-01-30T13:09:39Z</time>
      </trkpt>
      <trkpt lat="44.14583" lon="3.0502">
        <ele>615</ele>
        <time>2014-01-30T13:09:42Z</time>
      </trkpt>
      <trkpt lat="44.14588" lon="3.05019">
        <ele>613</ele>
        <time>2014-01-30T13:09:46Z</time>
      </trkpt>
      <trkpt lat="44.14592" lon="3.05021">
        <ele>612</ele>
        <time>2014-01-30T13:09:50Z</time>
      </trkpt>
      <trkpt lat="44.14599" lon="3.05024">
        <ele>611</ele>
        <time>2014-01-30T13:09:54Z</time>
      </trkpt>
      <trkpt lat="44.14603" lon="3.05024">
        <ele>610</ele>
        <time>2014-01-30T13:09:56Z</time>
      </trkpt>
      <trkpt lat="44.14608" lon="3.05022">
        <ele>609</ele>
        <time>2014-01-30T13:09:59Z</time>
      </trkpt>
      <trkpt lat="44.14611" lon="3.05016">
        <ele>608</ele>
        <time>2014-01-30T13:10:03Z</time>
      </trkpt>
      <trkpt lat="44.14614" lon="3.05012">
        <ele>607</ele>
        <time>2014-01-30T13:10:09Z</time>
      </trkpt>
      <trkpt lat="44.14619" lon="3.05009">
        <ele>605</ele>
        <time>2014-01-30T13:10:13Z</time>
      </trkpt>
      <trkpt lat="44.14624" lon="3.05007">
        <ele>604</ele>
        <time>2014-01-30T13:10:17Z</time>
      </trkpt>
      <trkpt lat="44.1463" lon="3.05005">
        <ele>603</ele>
        <time>2014-01-30T13:10:20Z</time>
      </trkpt>
      <trkpt lat="44.14634" lon="3.05003">
        <ele>602</ele>
        <time>2014-01-30T13:10:24Z</time>
      </trkpt>
      <trkpt lat="44.14639" lon="3.05003">
        <ele>602</ele>
        <time>2014-01-30T13:10:27Z</time>
      </trkpt>
      <trkpt lat="44.14645" lon="3.05004">
        <ele>601</ele>
        <time>2014-01-30T13:10:30Z</time>
      </trkpt>
      <trkpt lat="44.1465" lon="3.05007">
        <ele>601</ele>
        <time>2014-01-30T13:10:33Z</time>
      </trkpt>
      <trkpt lat="44.14654" lon="3.05009">
        <ele>601</ele>
        <time>2014-01-30T13:10:38Z</time>
      </trkpt>
      <trkpt lat="44.1466" lon="3.05011">
        <ele>601</ele>
        <time>2014-01-30T13:10:41Z</time>
      </trkpt>
      <trkpt lat="44.14666" lon="3.05014">
        <ele>602</ele>
        <time>2014-01-30T13:10:44Z</time>
      </trkpt>
      <trkpt lat="44.14669" lon="3.0502">
        <ele>602</ele>
        <time>2014-01-30T13:10:47Z</time>
      </trkpt>
      <trkpt lat="44.14674" lon="3.05023">
        <ele>602</ele>
        <time>2014-01-30T13:10:51Z</time>
      </trkpt>
      <trkpt lat="44.1468" lon="3.05023">
        <ele>601</ele>
        <time>2014-01-30T13:10:54Z</time>
      </trkpt>
      <trkpt lat="44.14685" lon="3.05021">
        <ele>600</ele>
        <time>2014-01-30T13:10:56Z</time>
      </trkpt>
      <trkpt lat="44.14684" lon="3.05018">
        <ele>597</ele>
        <time>2014-01-30T13:11:06Z</time>
      </trkpt>
      <trkpt lat="44.14682" lon="3.05027">
        <ele>597</ele>
        <time>2014-01-30T13:11:08Z</time>
      </trkpt>
      <trkpt lat="44.14681" lon="3.0503">
        <ele>597</ele>
        <time>2014-01-30T13:11:09Z</time>
      </trkpt>
      <trkpt lat="44.14679" lon="3.05034">
        <ele>597</ele>
        <time>2014-01-30T13:11:10Z</time>
      </trkpt>
      <trkpt lat="44.14677" lon="3.05026">
        <ele>595</ele>
        <time>2014-01-30T13:11:15Z</time>
      </trkpt>
      <trkpt lat="44.14678" lon="3.05021">
        <ele>595</ele>
        <time>2014-01-30T13:11:24Z</time>
      </trkpt>
      <trkpt lat="44.14681" lon="3.05017">
        <ele>594</ele>
        <time>2014-01-30T13:11:39Z</time>
      </trkpt>
      <trkpt lat="44.14683" lon="3.05015">
        <ele>594</ele>
        <time>2014-01-30T13:12:13Z</time>
      </trkpt>
      <trkpt lat="44.14687" lon="3.05014">
        <ele>594</ele>
        <time>2014-01-30T13:12:18Z</time>
      </trkpt>
      <trkpt lat="44.14692" lon="3.05013">
        <ele>596</ele>
        <time>2014-01-30T13:12:22Z</time>
      </trkpt>
      <trkpt lat="44.14697" lon="3.05012">
        <ele>597</ele>
        <time>2014-01-30T13:12:26Z</time>
      </trkpt>
      <trkpt lat="44.14702" lon="3.05015">
        <ele>595</ele>
        <time>2014-01-30T13:12:31Z</time>
      </trkpt>
      <trkpt lat="44.14707" lon="3.05021">
        <ele>594</ele>
        <time>2014-01-30T13:12:36Z</time>
      </trkpt>
      <trkpt lat="44.1471" lon="3.05027">
        <ele>593</ele>
        <time>2014-01-30T13:12:40Z</time>
      </trkpt>
      <trkpt lat="44.14715" lon="3.05031">
        <ele>593</ele>
        <time>2014-01-30T13:12:45Z</time>
      </trkpt>
      <trkpt lat="44.14718" lon="3.05036">
        <ele>592</ele>
        <time>2014-01-30T13:12:50Z</time>
      </trkpt>
      <trkpt lat="44.14719" lon="3.05043">
        <ele>591</ele>
        <time>2014-01-30T13:12:54Z</time>
      </trkpt>
      <trkpt lat="44.14719" lon="3.05047">
        <ele>590</ele>
        <time>2014-01-30T13:13:01Z</time>
      </trkpt>
      <trkpt lat="44.14715" lon="3.05054">
        <ele>591</ele>
        <time>2014-01-30T13:13:11Z</time>
      </trkpt>
      <trkpt lat="44.14712" lon="3.05058">
        <ele>590</ele>
        <time>2014-01-30T13:13:25Z</time>
      </trkpt>
      <trkpt lat="44.1471" lon="3.05065">
        <ele>590</ele>
        <time>2014-01-30T13:13:39Z</time>
      </trkpt>
      <trkpt lat="44.14709" lon="3.05066">
        <ele>591</ele>
        <time>2014-01-30T13:14:18Z</time>
      </trkpt>
      <trkpt lat="44.14712" lon="3.05071">
        <ele>591</ele>
        <time>2014-01-30T13:14:27Z</time>
      </trkpt>
      <trkpt lat="44.14714" lon="3.05078">
        <ele>590</ele>
        <time>2014-01-30T13:14:32Z</time>
      </trkpt>
      <trkpt lat="44.14711" lon="3.05083">
        <ele>589</ele>
        <time>2014-01-30T13:14:36Z</time>
      </trkpt>
      <trkpt lat="44.14708" lon="3.05089">
        <ele>588</ele>
        <time>2014-01-30T13:14:39Z</time>
      </trkpt>
      <trkpt lat="44.14706" lon="3.05096">
        <ele>588</ele>
        <time>2014-01-30T13:14:43Z</time>
      </trkpt>
      <trkpt lat="44.14708" lon="3.05102">
        <ele>589</ele>
        <time>2014-01-30T13:14:47Z</time>
      </trkpt>
      <trkpt lat="44.14711" lon="3.05107">
        <ele>587</ele>
        <time>2014-01-30T13:14:52Z</time>
      </trkpt>
      <trkpt lat="44.14712" lon="3.05114">
        <ele>585</ele>
        <time>2014-01-30T13:14:57Z</time>
      </trkpt>
      <trkpt lat="44.14716" lon="3.05121">
        <ele>584</ele>
        <time>2014-01-30T13:15:08Z</time>
      </trkpt>
      <trkpt lat="44.1472" lon="3.05126">
        <ele>583</ele>
        <time>2014-01-30T13:15:16Z</time>
      </trkpt>
      <trkpt lat="44.14723" lon="3.0513">
        <ele>583</ele>
        <time>2014-01-30T13:15:21Z</time>
      </trkpt>
      <trkpt lat="44.14726" lon="3.05137">
        <ele>581</ele>
        <time>2014-01-30T13:15:27Z</time>
      </trkpt>
      <trkpt lat="44.14732" lon="3.05138">
        <ele>581</ele>
        <time>2014-01-30T13:15:32Z</time>
      </trkpt>
      <trkpt lat="44.14736" lon="3.05141">
        <ele>581</ele>
        <time>2014-01-30T13:15:36Z</time>
      </trkpt>
      <trkpt lat="44.14741" lon="3.05145">
        <ele>580</ele>
        <time>2014-01-30T13:15:40Z</time>
      </trkpt>
      <trkpt lat="44.14744" lon="3.05149">
        <ele>580</ele>
        <time>2014-01-30T13:15:45Z</time>
      </trkpt>
      <trkpt lat="44.14747" lon="3.05155">
        <ele>579</ele>
        <time>2014-01-30T13:15:52Z</time>
      </trkpt>
      <trkpt lat="44.1475" lon="3.05161">
        <ele>577</ele>
        <time>2014-01-30T13:15:57Z</time>
      </trkpt>
      <trkpt lat="44.14751" lon="3.05168">
        <ele>576</ele>
        <time>2014-01-30T13:16:02Z</time>
      </trkpt>
      <trkpt lat="44.14753" lon="3.05175">
        <ele>575</ele>
        <time>2014-01-30T13:16:06Z</time>
      </trkpt>
      <trkpt lat="44.14755" lon="3.05182">
        <ele>576</ele>
        <time>2014-01-30T13:16:11Z</time>
      </trkpt>
      <trkpt lat="44.1476" lon="3.05184">
        <ele>576</ele>
        <time>2014-01-30T13:16:15Z</time>
      </trkpt>
      <trkpt lat="44.14764" lon="3.05186">
        <ele>576</ele>
        <time>2014-01-30T13:16:19Z</time>
      </trkpt>
      <trkpt lat="44.14769" lon="3.05186">
        <ele>576</ele>
        <time>2014-01-30T13:16:23Z</time>
      </trkpt>
      <trkpt lat="44.14775" lon="3.05186">
        <ele>576</ele>
        <time>2014-01-30T13:16:30Z</time>
      </trkpt>
      <trkpt lat="44.14779" lon="3.05185">
        <ele>576</ele>
        <time>2014-01-30T13:16:34Z</time>
      </trkpt>
      <trkpt lat="44.14783" lon="3.05189">
        <ele>573</ele>
        <time>2014-01-30T13:16:39Z</time>
      </trkpt>
      <trkpt lat="44.14786" lon="3.05195">
        <ele>573</ele>
        <time>2014-01-30T13:16:44Z</time>
      </trkpt>
      <trkpt lat="44.14788" lon="3.05201">
        <ele>572</ele>
        <time>2014-01-30T13:16:49Z</time>
      </trkpt>
      <trkpt lat="44.1479" lon="3.05208">
        <ele>572</ele>
        <time>2014-01-30T13:16:56Z</time>
      </trkpt>
      <trkpt lat="44.14792" lon="3.05214">
        <ele>570</ele>
        <time>2014-01-30T13:17:01Z</time>
      </trkpt>
      <trkpt lat="44.14793" lon="3.05219">
        <ele>570</ele>
        <time>2014-01-30T13:17:12Z</time>
      </trkpt>
      <trkpt lat="44.14794" lon="3.05223">
        <ele>571</ele>
        <time>2014-01-30T13:17:19Z</time>
      </trkpt>
      <trkpt lat="44.14794" lon="3.05232">
        <ele>569</ele>
        <time>2014-01-30T13:17:28Z</time>
      </trkpt>
      <trkpt lat="44.14796" lon="3.05237">
        <ele>568</ele>
        <time>2014-01-30T13:17:34Z</time>
      </trkpt>
      <trkpt lat="44.14801" lon="3.0524">
        <ele>567</ele>
        <time>2014-01-30T13:17:39Z</time>
      </trkpt>
      <trkpt lat="44.14806" lon="3.05239">
        <ele>566</ele>
        <time>2014-01-30T13:17:41Z</time>
      </trkpt>
      <trkpt lat="44.14811" lon="3.05237">
        <ele>566</ele>
        <time>2014-01-30T13:17:43Z</time>
      </trkpt>
      <trkpt lat="44.14816" lon="3.05238">
        <ele>565</ele>
        <time>2014-01-30T13:17:47Z</time>
      </trkpt>
      <trkpt lat="44.14817" lon="3.05246">
        <ele>565</ele>
        <time>2014-01-30T13:17:52Z</time>
      </trkpt>
      <trkpt lat="44.14819" lon="3.05252">
        <ele>566</ele>
        <time>2014-01-30T13:17:55Z</time>
      </trkpt>
      <trkpt lat="44.14824" lon="3.05257">
        <ele>564</ele>
        <time>2014-01-30T13:18:06Z</time>
      </trkpt>
      <trkpt lat="44.14829" lon="3.0526">
        <ele>563</ele>
        <time>2014-01-30T13:18:12Z</time>
      </trkpt>
      <trkpt lat="44.14835" lon="3.05262">
        <ele>563</ele>
        <time>2014-01-30T13:18:16Z</time>
      </trkpt>
      <trkpt lat="44.14839" lon="3.05265">
        <ele>562</ele>
        <time>2014-01-30T13:18:21Z</time>
      </trkpt>
      <trkpt lat="44.14844" lon="3.05268">
        <ele>561</ele>
        <time>2014-01-30T13:18:25Z</time>
      </trkpt>
      <trkpt lat="44.14848" lon="3.05272">
        <ele>560</ele>
        <time>2014-01-30T13:18:30Z</time>
      </trkpt>
      <trkpt lat="44.14851" lon="3.05278">
        <ele>560</ele>
        <time>2014-01-30T13:18:35Z</time>
      </trkpt>
      <trkpt lat="44.14853" lon="3.05283">
        <ele>559</ele>
        <time>2014-01-30T13:18:40Z</time>
      </trkpt>
      <trkpt lat="44.14857" lon="3.05287">
        <ele>559</ele>
        <time>2014-01-30T13:18:44Z</time>
      </trkpt>
      <trkpt lat="44.14861" lon="3.05291">
        <ele>559</ele>
        <time>2014-01-30T13:18:47Z</time>
      </trkpt>
      <trkpt lat="44.14865" lon="3.05294">
        <ele>559</ele>
        <time>2014-01-30T13:18:51Z</time>
      </trkpt>
      <trkpt lat="44.14869" lon="3.053">
        <ele>559</ele>
        <time>2014-01-30T13:18:57Z</time>
      </trkpt>
      <trkpt lat="44.14873" lon="3.05304">
        <ele>559</ele>
        <time>2014-01-30T13:18:59Z</time>
      </trkpt>
      <trkpt lat="44.14877" lon="3.05308">
        <ele>560</ele>
        <time>2014-01-30T13:19:03Z</time>
      </trkpt>
      <trkpt lat="44.14881" lon="3.05314">
        <ele>560</ele>
        <time>2014-01-30T13:19:06Z</time>
      </trkpt>
      <trkpt lat="44.14884" lon="3.05321">
        <ele>560</ele>
        <time>2014-01-30T13:19:10Z</time>
      </trkpt>
      <trkpt lat="44.14887" lon="3.05326">
        <ele>560</ele>
        <time>2014-01-30T13:19:14Z</time>
      </trkpt>
      <trkpt lat="44.1489" lon="3.05332">
        <ele>560</ele>
        <time>2014-01-30T13:19:17Z</time>
      </trkpt>
      <trkpt lat="44.14893" lon="3.05337">
        <ele>560</ele>
        <time>2014-01-30T13:19:19Z</time>
      </trkpt>
      <trkpt lat="44.14896" lon="3.05343">
        <ele>558</ele>
        <time>2014-01-30T13:19:22Z</time>
      </trkpt>
      <trkpt lat="44.14899" lon="3.05349">
        <ele>556</ele>
        <time>2014-01-30T13:19:27Z</time>
      </trkpt>
      <trkpt lat="44.14902" lon="3.05354">
        <ele>556</ele>
        <time>2014-01-30T13:19:31Z</time>
      </trkpt>
      <trkpt lat="44.14905" lon="3.0536">
        <ele>555</ele>
        <time>2014-01-30T13:19:34Z</time>
      </trkpt>
      <trkpt lat="44.14905" lon="3.05367">
        <ele>554</ele>
        <time>2014-01-30T13:19:38Z</time>
      </trkpt>
      <trkpt lat="44.14911" lon="3.0537">
        <ele>551</ele>
        <time>2014-01-30T13:19:43Z</time>
      </trkpt>
      <trkpt lat="44.14915" lon="3.0537">
        <ele>550</ele>
        <time>2014-01-30T13:19:46Z</time>
      </trkpt>
      <trkpt lat="44.14921" lon="3.05368">
        <ele>549</ele>
        <time>2014-01-30T13:19:49Z</time>
      </trkpt>
      <trkpt lat="44.14925" lon="3.05367">
        <ele>546</ele>
        <time>2014-01-30T13:19:52Z</time>
      </trkpt>
      <trkpt lat="44.14932" lon="3.05364">
        <ele>545</ele>
        <time>2014-01-30T13:19:55Z</time>
      </trkpt>
      <trkpt lat="44.14937" lon="3.05363">
        <ele>543</ele>
        <time>2014-01-30T13:19:58Z</time>
      </trkpt>
      <trkpt lat="44.14942" lon="3.05363">
        <ele>541</ele>
        <time>2014-01-30T13:20:01Z</time>
      </trkpt>
      <trkpt lat="44.14946" lon="3.05364">
        <ele>541</ele>
        <time>2014-01-30T13:20:04Z</time>
      </trkpt>
      <trkpt lat="44.14951" lon="3.05363">
        <ele>540</ele>
        <time>2014-01-30T13:20:08Z</time>
      </trkpt>
      <trkpt lat="44.14956" lon="3.05363">
        <ele>541</ele>
        <time>2014-01-30T13:20:11Z</time>
      </trkpt>
      <trkpt lat="44.14961" lon="3.05362">
        <ele>542</ele>
        <time>2014-01-30T13:20:14Z</time>
      </trkpt>
      <trkpt lat="44.14966" lon="3.05362">
        <ele>543</ele>
        <time>2014-01-30T13:20:18Z</time>
      </trkpt>
      <trkpt lat="44.1497" lon="3.05362">
        <ele>543</ele>
        <time>2014-01-30T13:20:21Z</time>
      </trkpt>
      <trkpt lat="44.14976" lon="3.05362">
        <ele>544</ele>
        <time>2014-01-30T13:20:25Z</time>
      </trkpt>
      <trkpt lat="44.14981" lon="3.05363">
        <ele>544</ele>
        <time>2014-01-30T13:20:28Z</time>
      </trkpt>
      <trkpt lat="44.14986" lon="3.05366">
        <ele>545</ele>
        <time>2014-01-30T13:20:31Z</time>
      </trkpt>
      <trkpt lat="44.14991" lon="3.05369">
        <ele>547</ele>
        <time>2014-01-30T13:20:35Z</time>
      </trkpt>
      <trkpt lat="44.14995" lon="3.05372">
        <ele>549</ele>
        <time>2014-01-30T13:20:39Z</time>
      </trkpt>
      <trkpt lat="44.15001" lon="3.0537">
        <ele>550</ele>
        <time>2014-01-30T13:20:42Z</time>
      </trkpt>
      <trkpt lat="44.15006" lon="3.05369">
        <ele>549</ele>
        <time>2014-01-30T13:20:46Z</time>
      </trkpt>
      <trkpt lat="44.15011" lon="3.05373">
        <ele>549</ele>
        <time>2014-01-30T13:20:51Z</time>
      </trkpt>
      <trkpt lat="44.15014" lon="3.05378">
        <ele>549</ele>
        <time>2014-01-30T13:20:54Z</time>
      </trkpt>
      <trkpt lat="44.15014" lon="3.05382">
        <ele>549</ele>
        <time>2014-01-30T13:21:02Z</time>
      </trkpt>
      <trkpt lat="44.15009" lon="3.05385">
        <ele>549</ele>
        <time>2014-01-30T13:21:07Z</time>
      </trkpt>
      <trkpt lat="44.15005" lon="3.05392">
        <ele>547</ele>
        <time>2014-01-30T13:21:23Z</time>
      </trkpt>
      <trkpt lat="44.15001" lon="3.05388">
        <ele>553</ele>
        <time>2014-01-30T13:22:15Z</time>
      </trkpt>
      <trkpt lat="44.14996" lon="3.05391">
        <ele>551</ele>
        <time>2014-01-30T13:22:21Z</time>
      </trkpt>
      <trkpt lat="44.14991" lon="3.05393">
        <ele>551</ele>
        <time>2014-01-30T13:22:24Z</time>
      </trkpt>
      <trkpt lat="44.14987" lon="3.05396">
        <ele>551</ele>
        <time>2014-01-30T13:22:28Z</time>
      </trkpt>
      <trkpt lat="44.14981" lon="3.05399">
        <ele>552</ele>
        <time>2014-01-30T13:22:32Z</time>
      </trkpt>
      <trkpt lat="44.14977" lon="3.05399">
        <ele>553</ele>
        <time>2014-01-30T13:22:35Z</time>
      </trkpt>
      <trkpt lat="44.1497" lon="3.05402">
        <ele>553</ele>
        <time>2014-01-30T13:22:41Z</time>
      </trkpt>
      <trkpt lat="44.14966" lon="3.05405">
        <ele>552</ele>
        <time>2014-01-30T13:22:47Z</time>
      </trkpt>
      <trkpt lat="44.14961" lon="3.05405">
        <ele>551</ele>
        <time>2014-01-30T13:22:52Z</time>
      </trkpt>
      <trkpt lat="44.14956" lon="3.05404">
        <ele>549</ele>
        <time>2014-01-30T13:22:56Z</time>
      </trkpt>
      <trkpt lat="44.14951" lon="3.05402">
        <ele>548</ele>
        <time>2014-01-30T13:23:03Z</time>
      </trkpt>
      <trkpt lat="44.14947" lon="3.05405">
        <ele>548</ele>
        <time>2014-01-30T13:23:06Z</time>
      </trkpt>
      <trkpt lat="44.14942" lon="3.05408">
        <ele>548</ele>
        <time>2014-01-30T13:23:10Z</time>
      </trkpt>
      <trkpt lat="44.14938" lon="3.05409">
        <ele>548</ele>
        <time>2014-01-30T13:23:14Z</time>
      </trkpt>
      <trkpt lat="44.14938" lon="3.05416">
        <ele>548</ele>
        <time>2014-01-30T13:23:22Z</time>
      </trkpt>
      <trkpt lat="44.14944" lon="3.05413">
        <ele>548</ele>
        <time>2014-01-30T13:23:25Z</time>
      </trkpt>
      <trkpt lat="44.1495" lon="3.05407">
        <ele>547</ele>
        <time>2014-01-30T13:23:27Z</time>
      </trkpt>
      <trkpt lat="44.14955" lon="3.05403">
        <ele>547</ele>
        <time>2014-01-30T13:23:29Z</time>
      </trkpt>
      <trkpt lat="44.1496" lon="3.05406">
        <ele>545</ele>
        <time>2014-01-30T13:23:34Z</time>
      </trkpt>
      <trkpt lat="44.14963" lon="3.05412">
        <ele>543</ele>
        <time>2014-01-30T13:23:38Z</time>
      </trkpt>
      <trkpt lat="44.14966" lon="3.05417">
        <ele>542</ele>
        <time>2014-01-30T13:23:41Z</time>
      </trkpt>
      <trkpt lat="44.1497" lon="3.05421">
        <ele>540</ele>
        <time>2014-01-30T13:23:45Z</time>
      </trkpt>
      <trkpt lat="44.14976" lon="3.05422">
        <ele>539</ele>
        <time>2014-01-30T13:23:49Z</time>
      </trkpt>
      <trkpt lat="44.1498" lon="3.05424">
        <ele>538</ele>
        <time>2014-01-30T13:23:53Z</time>
      </trkpt>
      <trkpt lat="44.14985" lon="3.05428">
        <ele>537</ele>
        <time>2014-01-30T13:23:57Z</time>
      </trkpt>
      <trkpt lat="44.14989" lon="3.05432">
        <ele>535</ele>
        <time>2014-01-30T13:24:01Z</time>
      </trkpt>
      <trkpt lat="44.14993" lon="3.05435">
        <ele>535</ele>
        <time>2014-01-30T13:24:05Z</time>
      </trkpt>
      <trkpt lat="44.14998" lon="3.05438">
        <ele>535</ele>
        <time>2014-01-30T13:24:09Z</time>
      </trkpt>
      <trkpt lat="44.15003" lon="3.0544">
        <ele>535</ele>
        <time>2014-01-30T13:24:12Z</time>
      </trkpt>
      <trkpt lat="44.15008" lon="3.05442">
        <ele>533</ele>
        <time>2014-01-30T13:24:16Z</time>
      </trkpt>
      <trkpt lat="44.15014" lon="3.05443">
        <ele>533</ele>
        <time>2014-01-30T13:24:19Z</time>
      </trkpt>
      <trkpt lat="44.15019" lon="3.05445">
        <ele>532</ele>
        <time>2014-01-30T13:24:23Z</time>
      </trkpt>
      <trkpt lat="44.15023" lon="3.0545">
        <ele>532</ele>
        <time>2014-01-30T13:24:28Z</time>
      </trkpt>
      <trkpt lat="44.15028" lon="3.05454">
        <ele>532</ele>
        <time>2014-01-30T13:24:33Z</time>
      </trkpt>
      <trkpt lat="44.15032" lon="3.05455">
        <ele>532</ele>
        <time>2014-01-30T13:24:36Z</time>
      </trkpt>
      <trkpt lat="44.15038" lon="3.05455">
        <ele>532</ele>
        <time>2014-01-30T13:24:40Z</time>
      </trkpt>
      <trkpt lat="44.15042" lon="3.05456">
        <ele>532</ele>
        <time>2014-01-30T13:24:44Z</time>
      </trkpt>
      <trkpt lat="44.15048" lon="3.05457">
        <ele>532</ele>
        <time>2014-01-30T13:24:48Z</time>
      </trkpt>
      <trkpt lat="44.15053" lon="3.05456">
        <ele>531</ele>
        <time>2014-01-30T13:24:52Z</time>
      </trkpt>
      <trkpt lat="44.15058" lon="3.05456">
        <ele>531</ele>
        <time>2014-01-30T13:24:55Z</time>
      </trkpt>
      <trkpt lat="44.15064" lon="3.05457">
        <ele>530</ele>
        <time>2014-01-30T13:25:00Z</time>
      </trkpt>
      <trkpt lat="44.15068" lon="3.05457">
        <ele>530</ele>
        <time>2014-01-30T13:25:04Z</time>
      </trkpt>
      <trkpt lat="44.15073" lon="3.05461">
        <ele>529</ele>
        <time>2014-01-30T13:25:07Z</time>
      </trkpt>
      <trkpt lat="44.15079" lon="3.05467">
        <ele>528</ele>
        <time>2014-01-30T13:25:09Z</time>
      </trkpt>
      <trkpt lat="44.15084" lon="3.05468">
        <ele>527</ele>
        <time>2014-01-30T13:25:12Z</time>
      </trkpt>
      <trkpt lat="44.15088" lon="3.05465">
        <ele>526</ele>
        <time>2014-01-30T13:25:15Z</time>
      </trkpt>
      <trkpt lat="44.15092" lon="3.05458">
        <ele>525</ele>
        <time>2014-01-30T13:25:18Z</time>
      </trkpt>
      <trkpt lat="44.15097" lon="3.05451">
        <ele>525</ele>
        <time>2014-01-30T13:25:21Z</time>
      </trkpt>
      <trkpt lat="44.15102" lon="3.05445">
        <ele>525</ele>
        <time>2014-01-30T13:25:24Z</time>
      </trkpt>
      <trkpt lat="44.15109" lon="3.05442">
        <ele>524</ele>
        <time>2014-01-30T13:25:27Z</time>
      </trkpt>
      <trkpt lat="44.15113" lon="3.05438">
        <ele>524</ele>
        <time>2014-01-30T13:25:31Z</time>
      </trkpt>
      <trkpt lat="44.15118" lon="3.05433">
        <ele>524</ele>
        <time>2014-01-30T13:25:37Z</time>
      </trkpt>
      <trkpt lat="44.15121" lon="3.05429">
        <ele>524</ele>
        <time>2014-01-30T13:25:41Z</time>
      </trkpt>
      <trkpt lat="44.15125" lon="3.05424">
        <ele>525</ele>
        <time>2014-01-30T13:25:45Z</time>
      </trkpt>
      <trkpt lat="44.15131" lon="3.05418">
        <ele>527</ele>
        <time>2014-01-30T13:25:58Z</time>
      </trkpt>
      <trkpt lat="44.15136" lon="3.05415">
        <ele>529</ele>
        <time>2014-01-30T13:26:05Z</time>
      </trkpt>
      <trkpt lat="44.1514" lon="3.05413">
        <ele>530</ele>
        <time>2014-01-30T13:26:09Z</time>
      </trkpt>
      <trkpt lat="44.15144" lon="3.05409">
        <ele>531</ele>
        <time>2014-01-30T13:26:13Z</time>
      </trkpt>
      <trkpt lat="44.15148" lon="3.05406">
        <ele>531</ele>
        <time>2014-01-30T13:26:18Z</time>
      </trkpt>
      <trkpt lat="44.15152" lon="3.05405">
        <ele>529</ele>
        <time>2014-01-30T13:26:26Z</time>
      </trkpt>
      <trkpt lat="44.15154" lon="3.05405">
        <ele>528</ele>
        <time>2014-01-30T13:26:32Z</time>
      </trkpt>
      <trkpt lat="44.1516" lon="3.05403">
        <ele>529</ele>
        <time>2014-01-30T13:26:35Z</time>
      </trkpt>
      <trkpt lat="44.15165" lon="3.05402">
        <ele>529</ele>
        <time>2014-01-30T13:26:38Z</time>
      </trkpt>
      <trkpt lat="44.1517" lon="3.05399">
        <ele>530</ele>
        <time>2014-01-30T13:26:41Z</time>
      </trkpt>
      <trkpt lat="44.15174" lon="3.05397">
        <ele>530</ele>
        <time>2014-01-30T13:26:44Z</time>
      </trkpt>
      <trkpt lat="44.15178" lon="3.05391">
        <ele>531</ele>
        <time>2014-01-30T13:26:47Z</time>
      </trkpt>
      <trkpt lat="44.15182" lon="3.05386">
        <ele>532</ele>
        <time>2014-01-30T13:26:50Z</time>
      </trkpt>
      <trkpt lat="44.15188" lon="3.05384">
        <ele>531</ele>
        <time>2014-01-30T13:26:54Z</time>
      </trkpt>
      <trkpt lat="44.15193" lon="3.05383">
        <ele>531</ele>
        <time>2014-01-30T13:26:58Z</time>
      </trkpt>
      <trkpt lat="44.15198" lon="3.0538">
        <ele>531</ele>
        <time>2014-01-30T13:27:02Z</time>
      </trkpt>
      <trkpt lat="44.15203" lon="3.05378">
        <ele>531</ele>
        <time>2014-01-30T13:27:06Z</time>
      </trkpt>
      <trkpt lat="44.15207" lon="3.05373">
        <ele>532</ele>
        <time>2014-01-30T13:27:11Z</time>
      </trkpt>
      <trkpt lat="44.1521" lon="3.05368">
        <ele>533</ele>
        <time>2014-01-30T13:27:16Z</time>
      </trkpt>
      <trkpt lat="44.15214" lon="3.05363">
        <ele>535</ele>
        <time>2014-01-30T13:27:21Z</time>
      </trkpt>
      <trkpt lat="44.15218" lon="3.05358">
        <ele>536</ele>
        <time>2014-01-30T13:27:24Z</time>
      </trkpt>
      <trkpt lat="44.15223" lon="3.05354">
        <ele>537</ele>
        <time>2014-01-30T13:27:28Z</time>
      </trkpt>
      <trkpt lat="44.15228" lon="3.05353">
        <ele>537</ele>
        <time>2014-01-30T13:27:32Z</time>
      </trkpt>
      <trkpt lat="44.15233" lon="3.05352">
        <ele>537</ele>
        <time>2014-01-30T13:27:36Z</time>
      </trkpt>
      <trkpt lat="44.15238" lon="3.05355">
        <ele>537</ele>
        <time>2014-01-30T13:27:42Z</time>
      </trkpt>
      <trkpt lat="44.15242" lon="3.05358">
        <ele>536</ele>
        <time>2014-01-30T13:27:47Z</time>
      </trkpt>
      <trkpt lat="44.15247" lon="3.05358">
        <ele>535</ele>
        <time>2014-01-30T13:27:53Z</time>
      </trkpt>
      <trkpt lat="44.15244" lon="3.05367">
        <ele>531</ele>
        <time>2014-01-30T13:28:06Z</time>
      </trkpt>
      <trkpt lat="44.15241" lon="3.05373">
        <ele>529</ele>
        <time>2014-01-30T13:28:11Z</time>
      </trkpt>
      <trkpt lat="44.15245" lon="3.05378">
        <ele>527</ele>
        <time>2014-01-30T13:28:16Z</time>
      </trkpt>
      <trkpt lat="44.15249" lon="3.05382">
        <ele>525</ele>
        <time>2014-01-30T13:28:20Z</time>
      </trkpt>
      <trkpt lat="44.15253" lon="3.05386">
        <ele>525</ele>
        <time>2014-01-30T13:28:24Z</time>
      </trkpt>
      <trkpt lat="44.15259" lon="3.05386">
        <ele>524</ele>
        <time>2014-01-30T13:28:28Z</time>
      </trkpt>
      <trkpt lat="44.15263" lon="3.05389">
        <ele>524</ele>
        <time>2014-01-30T13:28:34Z</time>
      </trkpt>
      <trkpt lat="44.15267" lon="3.05392">
        <ele>525</ele>
        <time>2014-01-30T13:28:37Z</time>
      </trkpt>
      <trkpt lat="44.15271" lon="3.05394">
        <ele>524</ele>
        <time>2014-01-30T13:28:42Z</time>
      </trkpt>
      <trkpt lat="44.15276" lon="3.05393">
        <ele>525</ele>
        <time>2014-01-30T13:28:46Z</time>
      </trkpt>
      <trkpt lat="44.15282" lon="3.05388">
        <ele>524</ele>
        <time>2014-01-30T13:28:50Z</time>
      </trkpt>
      <trkpt lat="44.15286" lon="3.05384">
        <ele>522</ele>
        <time>2014-01-30T13:28:53Z</time>
      </trkpt>
      <trkpt lat="44.15289" lon="3.05377">
        <ele>522</ele>
        <time>2014-01-30T13:28:56Z</time>
      </trkpt>
      <trkpt lat="44.15293" lon="3.05372">
        <ele>521</ele>
        <time>2014-01-30T13:28:59Z</time>
      </trkpt>
      <trkpt lat="44.15295" lon="3.05366">
        <ele>521</ele>
        <time>2014-01-30T13:29:03Z</time>
      </trkpt>
      <trkpt lat="44.15297" lon="3.05359">
        <ele>520</ele>
        <time>2014-01-30T13:29:06Z</time>
      </trkpt>
      <trkpt lat="44.15301" lon="3.05353">
        <ele>520</ele>
        <time>2014-01-30T13:29:11Z</time>
      </trkpt>
      <trkpt lat="44.15301" lon="3.05347">
        <ele>520</ele>
        <time>2014-01-30T13:29:14Z</time>
      </trkpt>
      <trkpt lat="44.15302" lon="3.0534">
        <ele>520</ele>
        <time>2014-01-30T13:29:18Z</time>
      </trkpt>
      <trkpt lat="44.15304" lon="3.05335">
        <ele>518</ele>
        <time>2014-01-30T13:29:23Z</time>
      </trkpt>
      <trkpt lat="44.15305" lon="3.05327">
        <ele>517</ele>
        <time>2014-01-30T13:29:27Z</time>
      </trkpt>
      <trkpt lat="44.15305" lon="3.0532">
        <ele>515</ele>
        <time>2014-01-30T13:29:31Z</time>
      </trkpt>
      <trkpt lat="44.15306" lon="3.05313">
        <ele>514</ele>
        <time>2014-01-30T13:29:35Z</time>
      </trkpt>
      <trkpt lat="44.15308" lon="3.05306">
        <ele>514</ele>
        <time>2014-01-30T13:29:39Z</time>
      </trkpt>
      <trkpt lat="44.15308" lon="3.05298">
        <ele>512</ele>
        <time>2014-01-30T13:29:44Z</time>
      </trkpt>
      <trkpt lat="44.15306" lon="3.05292">
        <ele>511</ele>
        <time>2014-01-30T13:29:47Z</time>
      </trkpt>
      <trkpt lat="44.15305" lon="3.05283">
        <ele>510</ele>
        <time>2014-01-30T13:29:51Z</time>
      </trkpt>
      <trkpt lat="44.15302" lon="3.05277">
        <ele>509</ele>
        <time>2014-01-30T13:29:54Z</time>
      </trkpt>
      <trkpt lat="44.15299" lon="3.05272">
        <ele>509</ele>
        <time>2014-01-30T13:29:57Z</time>
      </trkpt>
      <trkpt lat="44.15298" lon="3.05265">
        <ele>509</ele>
        <time>2014-01-30T13:30:01Z</time>
      </trkpt>
      <trkpt lat="44.15297" lon="3.05258">
        <ele>509</ele>
        <time>2014-01-30T13:30:05Z</time>
      </trkpt>
      <trkpt lat="44.15293" lon="3.05253">
        <ele>509</ele>
        <time>2014-01-30T13:30:07Z</time>
      </trkpt>
      <trkpt lat="44.15289" lon="3.05248">
        <ele>509</ele>
        <time>2014-01-30T13:30:09Z</time>
      </trkpt>
      <trkpt lat="44.1529" lon="3.05241">
        <ele>510</ele>
        <time>2014-01-30T13:30:16Z</time>
      </trkpt>
      <trkpt lat="44.15289" lon="3.05233">
        <ele>511</ele>
        <time>2014-01-30T13:30:21Z</time>
      </trkpt>
      <trkpt lat="44.15287" lon="3.05227">
        <ele>512</ele>
        <time>2014-01-30T13:30:24Z</time>
      </trkpt>
      <trkpt lat="44.15285" lon="3.0522">
        <ele>514</ele>
        <time>2014-01-30T13:30:28Z</time>
      </trkpt>
      <trkpt lat="44.15283" lon="3.05212">
        <ele>516</ele>
        <time>2014-01-30T13:30:33Z</time>
      </trkpt>
      <trkpt lat="44.15281" lon="3.05206">
        <ele>517</ele>
        <time>2014-01-30T13:30:37Z</time>
      </trkpt>
      <trkpt lat="44.15278" lon="3.05201">
        <ele>519</ele>
        <time>2014-01-30T13:30:41Z</time>
      </trkpt>
      <trkpt lat="44.15277" lon="3.05194">
        <ele>520</ele>
        <time>2014-01-30T13:30:44Z</time>
      </trkpt>
      <trkpt lat="44.15277" lon="3.05187">
        <ele>520</ele>
        <time>2014-01-30T13:30:46Z</time>
      </trkpt>
      <trkpt lat="44.15278" lon="3.05179">
        <ele>520</ele>
        <time>2014-01-30T13:30:49Z</time>
      </trkpt>
      <trkpt lat="44.1528" lon="3.05172">
        <ele>519</ele>
        <time>2014-01-30T13:30:58Z</time>
      </trkpt>
      <trkpt lat="44.15277" lon="3.05166">
        <ele>519</ele>
        <time>2014-01-30T13:31:01Z</time>
      </trkpt>
      <trkpt lat="44.15276" lon="3.0516">
        <ele>519</ele>
        <time>2014-01-30T13:31:05Z</time>
      </trkpt>
      <trkpt lat="44.15273" lon="3.05155">
        <ele>520</ele>
        <time>2014-01-30T13:31:08Z</time>
      </trkpt>
      <trkpt lat="44.1527" lon="3.05149">
        <ele>520</ele>
        <time>2014-01-30T13:31:12Z</time>
      </trkpt>
      <trkpt lat="44.15267" lon="3.05145">
        <ele>520</ele>
        <time>2014-01-30T13:31:17Z</time>
      </trkpt>
      <trkpt lat="44.15267" lon="3.05137">
        <ele>523</ele>
        <time>2014-01-30T13:31:24Z</time>
      </trkpt>
      <trkpt lat="44.15265" lon="3.0513">
        <ele>524</ele>
        <time>2014-01-30T13:31:28Z</time>
      </trkpt>
      <trkpt lat="44.15262" lon="3.05125">
        <ele>525</ele>
        <time>2014-01-30T13:31:31Z</time>
      </trkpt>
      <trkpt lat="44.15253" lon="3.05117">
        <ele>525</ele>
        <time>2014-01-30T13:31:36Z</time>
      </trkpt>
      <trkpt lat="44.15248" lon="3.05113">
        <ele>525</ele>
        <time>2014-01-30T13:31:39Z</time>
      </trkpt>
      <trkpt lat="44.15247" lon="3.05104">
        <ele>527</ele>
        <time>2014-01-30T13:31:43Z</time>
      </trkpt>
      <trkpt lat="44.15248" lon="3.05097">
        <ele>528</ele>
        <time>2014-01-30T13:31:46Z</time>
      </trkpt>
      <trkpt lat="44.15247" lon="3.05089">
        <ele>530</ele>
        <time>2014-01-30T13:31:50Z</time>
      </trkpt>
      <trkpt lat="44.15244" lon="3.05084">
        <ele>530</ele>
        <time>2014-01-30T13:31:54Z</time>
      </trkpt>
      <trkpt lat="44.15239" lon="3.05081">
        <ele>533</ele>
        <time>2014-01-30T13:32:01Z</time>
      </trkpt>
      <trkpt lat="44.15236" lon="3.05075">
        <ele>533</ele>
        <time>2014-01-30T13:32:08Z</time>
      </trkpt>
      <trkpt lat="44.15233" lon="3.0507">
        <ele>532</ele>
        <time>2014-01-30T13:32:12Z</time>
      </trkpt>
      <trkpt lat="44.1523" lon="3.05063">
        <ele>533</ele>
        <time>2014-01-30T13:32:15Z</time>
      </trkpt>
      <trkpt lat="44.15227" lon="3.05055">
        <ele>533</ele>
        <time>2014-01-30T13:32:19Z</time>
      </trkpt>
      <trkpt lat="44.15223" lon="3.05051">
        <ele>532</ele>
        <time>2014-01-30T13:32:23Z</time>
      </trkpt>
      <trkpt lat="44.15218" lon="3.05051">
        <ele>532</ele>
        <time>2014-01-30T13:32:26Z</time>
      </trkpt>
      <trkpt lat="44.15213" lon="3.0505">
        <ele>531</ele>
        <time>2014-01-30T13:32:30Z</time>
      </trkpt>
      <trkpt lat="44.15209" lon="3.05046">
        <ele>531</ele>
        <time>2014-01-30T13:32:34Z</time>
      </trkpt>
      <trkpt lat="44.15205" lon="3.05041">
        <ele>532</ele>
        <time>2014-01-30T13:32:38Z</time>
      </trkpt>
      <trkpt lat="44.152" lon="3.05037">
        <ele>534</ele>
        <time>2014-01-30T13:32:43Z</time>
      </trkpt>
      <trkpt lat="44.15195" lon="3.05037">
        <ele>535</ele>
        <time>2014-01-30T13:32:48Z</time>
      </trkpt>
      <trkpt lat="44.15191" lon="3.05031">
        <ele>535</ele>
        <time>2014-01-30T13:32:53Z</time>
      </trkpt>
      <trkpt lat="44.15187" lon="3.05026">
        <ele>535</ele>
        <time>2014-01-30T13:32:57Z</time>
      </trkpt>
      <trkpt lat="44.15183" lon="3.05021">
        <ele>536</ele>
        <time>2014-01-30T13:33:00Z</time>
      </trkpt>
      <trkpt lat="44.15179" lon="3.05016">
        <ele>536</ele>
        <time>2014-01-30T13:33:03Z</time>
      </trkpt>
      <trkpt lat="44.15176" lon="3.05011">
        <ele>537</ele>
        <time>2014-01-30T13:33:08Z</time>
      </trkpt>
      <trkpt lat="44.15173" lon="3.05006">
        <ele>538</ele>
        <time>2014-01-30T13:33:14Z</time>
      </trkpt>
      <trkpt lat="44.15168" lon="3.05005">
        <ele>539</ele>
        <time>2014-01-30T13:33:18Z</time>
      </trkpt>
      <trkpt lat="44.15163" lon="3.05002">
        <ele>541</ele>
        <time>2014-01-30T13:33:22Z</time>
      </trkpt>
      <trkpt lat="44.15158" lon="3.04999">
        <ele>543</ele>
        <time>2014-01-30T13:33:28Z</time>
      </trkpt>
      <trkpt lat="44.15152" lon="3.05">
        <ele>543</ele>
        <time>2014-01-30T13:33:33Z</time>
      </trkpt>
      <trkpt lat="44.15148" lon="3.04997">
        <ele>543</ele>
        <time>2014-01-30T13:33:37Z</time>
      </trkpt>
      <trkpt lat="44.15146" lon="3.0499">
        <ele>542</ele>
        <time>2014-01-30T13:33:41Z</time>
      </trkpt>
      <trkpt lat="44.15144" lon="3.04984">
        <ele>543</ele>
        <time>2014-01-30T13:33:47Z</time>
      </trkpt>
      <trkpt lat="44.15146" lon="3.04981">
        <ele>545</ele>
        <time>2014-01-30T13:33:53Z</time>
      </trkpt>
      <trkpt lat="44.15143" lon="3.04975">
        <ele>545</ele>
        <time>2014-01-30T13:33:57Z</time>
      </trkpt>
      <trkpt lat="44.15138" lon="3.04971">
        <ele>545</ele>
        <time>2014-01-30T13:34:02Z</time>
      </trkpt>
      <trkpt lat="44.15137" lon="3.04963">
        <ele>544</ele>
        <time>2014-01-30T13:34:06Z</time>
      </trkpt>
      <trkpt lat="44.15136" lon="3.04956">
        <ele>545</ele>
        <time>2014-01-30T13:34:09Z</time>
      </trkpt>
      <trkpt lat="44.15136" lon="3.0495">
        <ele>545</ele>
        <time>2014-01-30T13:34:11Z</time>
      </trkpt>
      <trkpt lat="44.15137" lon="3.04944">
        <ele>544</ele>
        <time>2014-01-30T13:34:18Z</time>
      </trkpt>
      <trkpt lat="44.15139" lon="3.04937">
        <ele>544</ele>
        <time>2014-01-30T13:34:24Z</time>
      </trkpt>
      <trkpt lat="44.15141" lon="3.04931">
        <ele>543</ele>
        <time>2014-01-30T13:34:28Z</time>
      </trkpt>
      <trkpt lat="44.15144" lon="3.04926">
        <ele>543</ele>
        <time>2014-01-30T13:34:32Z</time>
      </trkpt>
      <trkpt lat="44.15148" lon="3.0492">
        <ele>543</ele>
        <time>2014-01-30T13:34:36Z</time>
      </trkpt>
      <trkpt lat="44.15152" lon="3.04914">
        <ele>544</ele>
        <time>2014-01-30T13:34:39Z</time>
      </trkpt>
      <trkpt lat="44.15155" lon="3.04908">
        <ele>545</ele>
        <time>2014-01-30T13:34:43Z</time>
      </trkpt>
      <trkpt lat="44.15158" lon="3.04902">
        <ele>547</ele>
        <time>2014-01-30T13:34:48Z</time>
      </trkpt>
      <trkpt lat="44.15162" lon="3.04898">
        <ele>547</ele>
        <time>2014-01-30T13:34:52Z</time>
      </trkpt>
      <trkpt lat="44.15163" lon="3.04892">
        <ele>548</ele>
        <time>2014-01-30T13:34:56Z</time>
      </trkpt>
      <trkpt lat="44.15163" lon="3.04885">
        <ele>547</ele>
        <time>2014-01-30T13:35:02Z</time>
      </trkpt>
      <trkpt lat="44.15163" lon="3.04884">
        <ele>551</ele>
        <time>2014-01-30T13:36:43Z</time>
      </trkpt>
      <trkpt lat="44.15164" lon="3.0488">
        <ele>551</ele>
        <time>2014-01-30T13:40:55Z</time>
      </trkpt>
      <trkpt lat="44.15169" lon="3.04875">
        <ele>552</ele>
        <time>2014-01-30T13:41:18Z</time>
      </trkpt>
      <trkpt lat="44.15172" lon="3.04869">
        <ele>552</ele>
        <time>2014-01-30T13:41:22Z</time>
      </trkpt>
      <trkpt lat="44.15174" lon="3.04863">
        <ele>552</ele>
        <time>2014-01-30T13:41:26Z</time>
      </trkpt>
      <trkpt lat="44.15176" lon="3.04857">
        <ele>550</ele>
        <time>2014-01-30T13:41:30Z</time>
      </trkpt>
      <trkpt lat="44.1518" lon="3.04852">
        <ele>550</ele>
        <time>2014-01-30T13:41:38Z</time>
      </trkpt>
      <trkpt lat="44.15182" lon="3.04847">
        <ele>550</ele>
        <time>2014-01-30T13:41:44Z</time>
      </trkpt>
      <trkpt lat="44.15183" lon="3.04841">
        <ele>550</ele>
        <time>2014-01-30T13:41:49Z</time>
      </trkpt>
      <trkpt lat="44.15184" lon="3.04834">
        <ele>551</ele>
        <time>2014-01-30T13:41:56Z</time>
      </trkpt>
      <trkpt lat="44.15185" lon="3.04828">
        <ele>550</ele>
        <time>2014-01-30T13:42:00Z</time>
      </trkpt>
      <trkpt lat="44.15188" lon="3.0482">
        <ele>549</ele>
        <time>2014-01-30T13:42:05Z</time>
      </trkpt>
      <trkpt lat="44.1519" lon="3.04814">
        <ele>549</ele>
        <time>2014-01-30T13:42:08Z</time>
      </trkpt>
      <trkpt lat="44.1519" lon="3.04807">
        <ele>549</ele>
        <time>2014-01-30T13:42:12Z</time>
      </trkpt>
      <trkpt lat="44.15189" lon="3.048">
        <ele>548</ele>
        <time>2014-01-30T13:42:16Z</time>
      </trkpt>
      <trkpt lat="44.15189" lon="3.04793">
        <ele>547</ele>
        <time>2014-01-30T13:42:19Z</time>
      </trkpt>
      <trkpt lat="44.15191" lon="3.04787">
        <ele>545</ele>
        <time>2014-01-30T13:42:22Z</time>
      </trkpt>
      <trkpt lat="44.15192" lon="3.0478">
        <ele>545</ele>
        <time>2014-01-30T13:42:26Z</time>
      </trkpt>
      <trkpt lat="44.15193" lon="3.04772">
        <ele>544</ele>
        <time>2014-01-30T13:42:30Z</time>
      </trkpt>
      <trkpt lat="44.15195" lon="3.04765">
        <ele>543</ele>
        <time>2014-01-30T13:42:34Z</time>
      </trkpt>
      <trkpt lat="44.15195" lon="3.04757">
        <ele>541</ele>
        <time>2014-01-30T13:42:38Z</time>
      </trkpt>
      <trkpt lat="44.15194" lon="3.0475">
        <ele>540</ele>
        <time>2014-01-30T13:42:42Z</time>
      </trkpt>
      <trkpt lat="44.15193" lon="3.04742">
        <ele>538</ele>
        <time>2014-01-30T13:42:46Z</time>
      </trkpt>
      <trkpt lat="44.15193" lon="3.04735">
        <ele>536</ele>
        <time>2014-01-30T13:42:51Z</time>
      </trkpt>
      <trkpt lat="44.15193" lon="3.04726">
        <ele>534</ele>
        <time>2014-01-30T13:42:55Z</time>
      </trkpt>
      <trkpt lat="44.15194" lon="3.04719">
        <ele>534</ele>
        <time>2014-01-30T13:42:59Z</time>
      </trkpt>
      <trkpt lat="44.15197" lon="3.04711">
        <ele>533</ele>
        <time>2014-01-30T13:43:03Z</time>
      </trkpt>
      <trkpt lat="44.15198" lon="3.04705">
        <ele>533</ele>
        <time>2014-01-30T13:43:07Z</time>
      </trkpt>
      <trkpt lat="44.15198" lon="3.04698">
        <ele>533</ele>
        <time>2014-01-30T13:43:14Z</time>
      </trkpt>
      <trkpt lat="44.152" lon="3.04692">
        <ele>532</ele>
        <time>2014-01-30T13:43:18Z</time>
      </trkpt>
      <trkpt lat="44.15201" lon="3.04685">
        <ele>531</ele>
        <time>2014-01-30T13:43:22Z</time>
      </trkpt>
      <trkpt lat="44.15204" lon="3.04678">
        <ele>531</ele>
        <time>2014-01-30T13:43:26Z</time>
      </trkpt>
      <trkpt lat="44.15205" lon="3.04671">
        <ele>529</ele>
        <time>2014-01-30T13:43:31Z</time>
      </trkpt>
      <trkpt lat="44.15207" lon="3.04664">
        <ele>528</ele>
        <time>2014-01-30T13:43:36Z</time>
      </trkpt>
      <trkpt lat="44.15208" lon="3.04658">
        <ele>527</ele>
        <time>2014-01-30T13:43:40Z</time>
      </trkpt>
      <trkpt lat="44.15212" lon="3.04653">
        <ele>526</ele>
        <time>2014-01-30T13:43:45Z</time>
      </trkpt>
      <trkpt lat="44.15215" lon="3.04647">
        <ele>524</ele>
        <time>2014-01-30T13:43:48Z</time>
      </trkpt>
      <trkpt lat="44.15216" lon="3.0464">
        <ele>523</ele>
        <time>2014-01-30T13:43:50Z</time>
      </trkpt>
      <trkpt lat="44.15216" lon="3.04632">
        <ele>521</ele>
        <time>2014-01-30T13:43:54Z</time>
      </trkpt>
      <trkpt lat="44.15215" lon="3.04626">
        <ele>520</ele>
        <time>2014-01-30T13:43:57Z</time>
      </trkpt>
      <trkpt lat="44.15216" lon="3.04619">
        <ele>519</ele>
        <time>2014-01-30T13:44:01Z</time>
      </trkpt>
      <trkpt lat="44.1522" lon="3.04623">
        <ele>518</ele>
        <time>2014-01-30T13:44:10Z</time>
      </trkpt>
      <trkpt lat="44.15221" lon="3.04629">
        <ele>518</ele>
        <time>2014-01-30T13:44:16Z</time>
      </trkpt>
      <trkpt lat="44.15221" lon="3.04636">
        <ele>520</ele>
        <time>2014-01-30T13:44:25Z</time>
      </trkpt>
      <trkpt lat="44.15226" lon="3.04638">
        <ele>519</ele>
        <time>2014-01-30T13:44:31Z</time>
      </trkpt>
      <trkpt lat="44.15228" lon="3.04645">
        <ele>520</ele>
        <time>2014-01-30T13:44:36Z</time>
      </trkpt>
      <trkpt lat="44.15231" lon="3.04651">
        <ele>522</ele>
        <time>2014-01-30T13:44:40Z</time>
      </trkpt>
      <trkpt lat="44.15233" lon="3.04656">
        <ele>523</ele>
        <time>2014-01-30T13:44:43Z</time>
      </trkpt>
      <trkpt lat="44.15237" lon="3.0466">
        <ele>522</ele>
        <time>2014-01-30T13:44:45Z</time>
      </trkpt>
      <trkpt lat="44.15242" lon="3.04661">
        <ele>521</ele>
        <time>2014-01-30T13:44:50Z</time>
      </trkpt>
      <trkpt lat="44.1525" lon="3.04667">
        <ele>519</ele>
        <time>2014-01-30T13:44:57Z</time>
      </trkpt>
      <trkpt lat="44.15255" lon="3.04664">
        <ele>514</ele>
        <time>2014-01-30T13:45:05Z</time>
      </trkpt>
      <trkpt lat="44.15267" lon="3.04652">
        <ele>504</ele>
        <time>2014-01-30T13:45:16Z</time>
      </trkpt>
      <trkpt lat="44.15273" lon="3.0465">
        <ele>502</ele>
        <time>2014-01-30T13:45:28Z</time>
      </trkpt>
      <trkpt lat="44.15278" lon="3.04647">
        <ele>503</ele>
        <time>2014-01-30T13:45:36Z</time>
      </trkpt>
      <trkpt lat="44.15283" lon="3.04647">
        <ele>504</ele>
        <time>2014-01-30T13:45:42Z</time>
      </trkpt>
      <trkpt lat="44.15287" lon="3.04649">
        <ele>504</ele>
        <time>2014-01-30T13:45:49Z</time>
      </trkpt>
      <trkpt lat="44.1529" lon="3.04652">
        <ele>505</ele>
        <time>2014-01-30T13:45:57Z</time>
      </trkpt>
      <trkpt lat="44.1529" lon="3.0466">
        <ele>509</ele>
        <time>2014-01-30T13:46:55Z</time>
      </trkpt>
      <trkpt lat="44.15289" lon="3.04667">
        <ele>512</ele>
        <time>2014-01-30T13:47:00Z</time>
      </trkpt>
      <trkpt lat="44.1529" lon="3.04674">
        <ele>514</ele>
        <time>2014-01-30T13:47:05Z</time>
      </trkpt>
      <trkpt lat="44.15292" lon="3.04681">
        <ele>515</ele>
        <time>2014-01-30T13:47:09Z</time>
      </trkpt>
      <trkpt lat="44.15294" lon="3.04689">
        <ele>513</ele>
        <time>2014-01-30T13:47:22Z</time>
      </trkpt>
      <trkpt lat="44.15299" lon="3.04699">
        <ele>518</ele>
        <time>2014-01-30T13:47:38Z</time>
      </trkpt>
      <trkpt lat="44.15303" lon="3.04705">
        <ele>518</ele>
        <time>2014-01-30T13:47:42Z</time>
      </trkpt>
      <trkpt lat="44.15309" lon="3.04707">
        <ele>519</ele>
        <time>2014-01-30T13:47:47Z</time>
      </trkpt>
      <trkpt lat="44.15312" lon="3.04703">
        <ele>519</ele>
        <time>2014-01-30T13:47:51Z</time>
      </trkpt>
      <trkpt lat="44.15312" lon="3.04696">
        <ele>518</ele>
        <time>2014-01-30T13:47:55Z</time>
      </trkpt>
      <trkpt lat="44.15311" lon="3.04689">
        <ele>519</ele>
        <time>2014-01-30T13:47:59Z</time>
      </trkpt>
      <trkpt lat="44.15312" lon="3.04682">
        <ele>521</ele>
        <time>2014-01-30T13:48:05Z</time>
      </trkpt>
      <trkpt lat="44.15315" lon="3.04678">
        <ele>521</ele>
        <time>2014-01-30T13:48:09Z</time>
      </trkpt>
      <trkpt lat="44.15319" lon="3.04675">
        <ele>522</ele>
        <time>2014-01-30T13:48:14Z</time>
      </trkpt>
      <trkpt lat="44.15323" lon="3.04671">
        <ele>522</ele>
        <time>2014-01-30T13:48:18Z</time>
      </trkpt>
      <trkpt lat="44.15328" lon="3.04668">
        <ele>522</ele>
        <time>2014-01-30T13:48:23Z</time>
      </trkpt>
      <trkpt lat="44.15332" lon="3.04665">
        <ele>521</ele>
        <time>2014-01-30T13:48:30Z</time>
      </trkpt>
      <trkpt lat="44.15336" lon="3.0466">
        <ele>522</ele>
        <time>2014-01-30T13:48:34Z</time>
      </trkpt>
      <trkpt lat="44.15341" lon="3.04657">
        <ele>523</ele>
        <time>2014-01-30T13:48:39Z</time>
      </trkpt>
      <trkpt lat="44.15344" lon="3.04653">
        <ele>525</ele>
        <time>2014-01-30T13:48:43Z</time>
      </trkpt>
      <trkpt lat="44.15349" lon="3.04648">
        <ele>526</ele>
        <time>2014-01-30T13:48:47Z</time>
      </trkpt>
      <trkpt lat="44.15353" lon="3.04643">
        <ele>527</ele>
        <time>2014-01-30T13:48:52Z</time>
      </trkpt>
      <trkpt lat="44.15358" lon="3.04641">
        <ele>528</ele>
        <time>2014-01-30T13:48:57Z</time>
      </trkpt>
      <trkpt lat="44.15362" lon="3.04637">
        <ele>528</ele>
        <time>2014-01-30T13:49:02Z</time>
      </trkpt>
      <trkpt lat="44.15365" lon="3.0463">
        <ele>528</ele>
        <time>2014-01-30T13:49:08Z</time>
      </trkpt>
      <trkpt lat="44.1537" lon="3.04626">
        <ele>527</ele>
        <time>2014-01-30T13:49:12Z</time>
      </trkpt>
      <trkpt lat="44.15373" lon="3.04622">
        <ele>527</ele>
        <time>2014-01-30T13:49:16Z</time>
      </trkpt>
      <trkpt lat="44.15377" lon="3.04617">
        <ele>529</ele>
        <time>2014-01-30T13:49:25Z</time>
      </trkpt>
      <trkpt lat="44.15386" lon="3.0461">
        <ele>535</ele>
        <time>2014-01-30T13:49:38Z</time>
      </trkpt>
      <trkpt lat="44.15389" lon="3.04606">
        <ele>536</ele>
        <time>2014-01-30T13:49:42Z</time>
      </trkpt>
      <trkpt lat="44.15393" lon="3.04602">
        <ele>536</ele>
        <time>2014-01-30T13:49:46Z</time>
      </trkpt>
      <trkpt lat="44.15398" lon="3.04598">
        <ele>539</ele>
        <time>2014-01-30T13:49:54Z</time>
      </trkpt>
      <trkpt lat="44.15402" lon="3.04594">
        <ele>539</ele>
        <time>2014-01-30T13:49:57Z</time>
      </trkpt>
      <trkpt lat="44.15406" lon="3.04593">
        <ele>540</ele>
        <time>2014-01-30T13:50:03Z</time>
      </trkpt>
      <trkpt lat="44.15411" lon="3.04592">
        <ele>542</ele>
        <time>2014-01-30T13:50:08Z</time>
      </trkpt>
      <trkpt lat="44.15416" lon="3.04589">
        <ele>543</ele>
        <time>2014-01-30T13:50:12Z</time>
      </trkpt>
      <trkpt lat="44.1542" lon="3.04582">
        <ele>543</ele>
        <time>2014-01-30T13:50:16Z</time>
      </trkpt>
      <trkpt lat="44.15423" lon="3.04578">
        <ele>543</ele>
        <time>2014-01-30T13:50:22Z</time>
      </trkpt>
      <trkpt lat="44.15428" lon="3.04576">
        <ele>543</ele>
        <time>2014-01-30T13:50:27Z</time>
      </trkpt>
      <trkpt lat="44.15433" lon="3.04578">
        <ele>543</ele>
        <time>2014-01-30T13:50:35Z</time>
      </trkpt>
      <trkpt lat="44.15437" lon="3.04576">
        <ele>544</ele>
        <time>2014-01-30T13:50:43Z</time>
      </trkpt>
      <trkpt lat="44.15442" lon="3.04577">
        <ele>546</ele>
        <time>2014-01-30T13:50:50Z</time>
      </trkpt>
      <trkpt lat="44.15446" lon="3.04574">
        <ele>547</ele>
        <time>2014-01-30T13:50:56Z</time>
      </trkpt>
      <trkpt lat="44.1545" lon="3.0457">
        <ele>548</ele>
        <time>2014-01-30T13:51:00Z</time>
      </trkpt>
      <trkpt lat="44.15456" lon="3.04569">
        <ele>549</ele>
        <time>2014-01-30T13:51:04Z</time>
      </trkpt>
      <trkpt lat="44.15461" lon="3.04569">
        <ele>549</ele>
        <time>2014-01-30T13:51:07Z</time>
      </trkpt>
      <trkpt lat="44.15465" lon="3.04567">
        <ele>551</ele>
        <time>2014-01-30T13:51:13Z</time>
      </trkpt>
      <trkpt lat="44.1547" lon="3.04565">
        <ele>551</ele>
        <time>2014-01-30T13:51:17Z</time>
      </trkpt>
      <trkpt lat="44.15474" lon="3.04565">
        <ele>551</ele>
        <time>2014-01-30T13:51:23Z</time>
      </trkpt>
      <trkpt lat="44.15479" lon="3.04562">
        <ele>553</ele>
        <time>2014-01-30T13:51:29Z</time>
      </trkpt>
      <trkpt lat="44.15482" lon="3.04557">
        <ele>553</ele>
        <time>2014-01-30T13:51:34Z</time>
      </trkpt>
      <trkpt lat="44.15486" lon="3.04555">
        <ele>554</ele>
        <time>2014-01-30T13:51:38Z</time>
      </trkpt>
      <trkpt lat="44.15491" lon="3.04553">
        <ele>554</ele>
        <time>2014-01-30T13:51:42Z</time>
      </trkpt>
      <trkpt lat="44.15495" lon="3.04548">
        <ele>554</ele>
        <time>2014-01-30T13:51:47Z</time>
      </trkpt>
      <trkpt lat="44.155" lon="3.04544">
        <ele>554</ele>
        <time>2014-01-30T13:51:52Z</time>
      </trkpt>
      <trkpt lat="44.15504" lon="3.04541">
        <ele>555</ele>
        <time>2014-01-30T13:51:55Z</time>
      </trkpt>
      <trkpt lat="44.15509" lon="3.04539">
        <ele>554</ele>
        <time>2014-01-30T13:51:59Z</time>
      </trkpt>
      <trkpt lat="44.15515" lon="3.04538">
        <ele>555</ele>
        <time>2014-01-30T13:52:04Z</time>
      </trkpt>
      <trkpt lat="44.1552" lon="3.04537">
        <ele>555</ele>
        <time>2014-01-30T13:52:09Z</time>
      </trkpt>
      <trkpt lat="44.15526" lon="3.04535">
        <ele>555</ele>
        <time>2014-01-30T13:52:14Z</time>
      </trkpt>
      <trkpt lat="44.15531" lon="3.04534">
        <ele>557</ele>
        <time>2014-01-30T13:52:19Z</time>
      </trkpt>
      <trkpt lat="44.15534" lon="3.0453">
        <ele>559</ele>
        <time>2014-01-30T13:52:25Z</time>
      </trkpt>
      <trkpt lat="44.15539" lon="3.04528">
        <ele>561</ele>
        <time>2014-01-30T13:52:29Z</time>
      </trkpt>
      <trkpt lat="44.15544" lon="3.04528">
        <ele>563</ele>
        <time>2014-01-30T13:52:36Z</time>
      </trkpt>
      <trkpt lat="44.15548" lon="3.04526">
        <ele>564</ele>
        <time>2014-01-30T13:52:41Z</time>
      </trkpt>
      <trkpt lat="44.15553" lon="3.04524">
        <ele>566</ele>
        <time>2014-01-30T13:52:49Z</time>
      </trkpt>
      <trkpt lat="44.15558" lon="3.04521">
        <ele>567</ele>
        <time>2014-01-30T13:52:55Z</time>
      </trkpt>
      <trkpt lat="44.15563" lon="3.04517">
        <ele>565</ele>
        <time>2014-01-30T13:52:59Z</time>
      </trkpt>
      <trkpt lat="44.15566" lon="3.04512">
        <ele>565</ele>
        <time>2014-01-30T13:53:04Z</time>
      </trkpt>
      <trkpt lat="44.15571" lon="3.04509">
        <ele>565</ele>
        <time>2014-01-30T13:53:10Z</time>
      </trkpt>
      <trkpt lat="44.15576" lon="3.04508">
        <ele>565</ele>
        <time>2014-01-30T13:53:14Z</time>
      </trkpt>
      <trkpt lat="44.15581" lon="3.04508">
        <ele>567</ele>
        <time>2014-01-30T13:53:21Z</time>
      </trkpt>
      <trkpt lat="44.15586" lon="3.04505">
        <ele>567</ele>
        <time>2014-01-30T13:53:28Z</time>
      </trkpt>
      <trkpt lat="44.1559" lon="3.04503">
        <ele>568</ele>
        <time>2014-01-30T13:53:32Z</time>
      </trkpt>
      <trkpt lat="44.15595" lon="3.04501">
        <ele>568</ele>
        <time>2014-01-30T13:53:37Z</time>
      </trkpt>
      <trkpt lat="44.156" lon="3.04498">
        <ele>570</ele>
        <time>2014-01-30T13:53:42Z</time>
      </trkpt>
      <trkpt lat="44.15604" lon="3.04494">
        <ele>570</ele>
        <time>2014-01-30T13:53:46Z</time>
      </trkpt>
      <trkpt lat="44.15607" lon="3.0449">
        <ele>571</ele>
        <time>2014-01-30T13:53:50Z</time>
      </trkpt>
      <trkpt lat="44.15613" lon="3.04484">
        <ele>573</ele>
        <time>2014-01-30T13:54:02Z</time>
      </trkpt>
      <trkpt lat="44.15616" lon="3.04479">
        <ele>575</ele>
        <time>2014-01-30T13:54:12Z</time>
      </trkpt>
      <trkpt lat="44.15621" lon="3.04474">
        <ele>576</ele>
        <time>2014-01-30T13:54:19Z</time>
      </trkpt>
      <trkpt lat="44.15625" lon="3.04472">
        <ele>575</ele>
        <time>2014-01-30T13:54:34Z</time>
      </trkpt>
      <trkpt lat="44.15632" lon="3.04467">
        <ele>575</ele>
        <time>2014-01-30T13:54:44Z</time>
      </trkpt>
      <trkpt lat="44.15636" lon="3.04463">
        <ele>575</ele>
        <time>2014-01-30T13:54:47Z</time>
      </trkpt>
      <trkpt lat="44.1564" lon="3.0446">
        <ele>575</ele>
        <time>2014-01-30T13:54:51Z</time>
      </trkpt>
      <trkpt lat="44.15645" lon="3.0446">
        <ele>575</ele>
        <time>2014-01-30T13:54:58Z</time>
      </trkpt>
      <trkpt lat="44.1565" lon="3.04459">
        <ele>575</ele>
        <time>2014-01-30T13:55:02Z</time>
      </trkpt>
      <trkpt lat="44.15655" lon="3.04457">
        <ele>575</ele>
        <time>2014-01-30T13:55:07Z</time>
      </trkpt>
      <trkpt lat="44.1566" lon="3.04453">
        <ele>575</ele>
        <time>2014-01-30T13:55:12Z</time>
      </trkpt>
      <trkpt lat="44.15665" lon="3.04451">
        <ele>576</ele>
        <time>2014-01-30T13:55:17Z</time>
      </trkpt>
      <trkpt lat="44.15669" lon="3.04447">
        <ele>576</ele>
        <time>2014-01-30T13:55:21Z</time>
      </trkpt>
      <trkpt lat="44.15674" lon="3.04446">
        <ele>577</ele>
        <time>2014-01-30T13:55:27Z</time>
      </trkpt>
      <trkpt lat="44.15678" lon="3.04447">
        <ele>577</ele>
        <time>2014-01-30T13:55:33Z</time>
      </trkpt>
      <trkpt lat="44.15683" lon="3.04449">
        <ele>576</ele>
        <time>2014-01-30T13:55:40Z</time>
      </trkpt>
      <trkpt lat="44.15688" lon="3.04448">
        <ele>576</ele>
        <time>2014-01-30T13:55:46Z</time>
      </trkpt>
      <trkpt lat="44.15693" lon="3.04451">
        <ele>577</ele>
        <time>2014-01-30T13:55:52Z</time>
      </trkpt>
      <trkpt lat="44.15696" lon="3.04456">
        <ele>577</ele>
        <time>2014-01-30T13:55:57Z</time>
      </trkpt>
      <trkpt lat="44.157" lon="3.04458">
        <ele>577</ele>
        <time>2014-01-30T13:56:01Z</time>
      </trkpt>
      <trkpt lat="44.15727" lon="3.04472">
        <ele>593</ele>
        <time>2014-01-30T13:56:35Z</time>
      </trkpt>
      <trkpt lat="44.15732" lon="3.04474">
        <ele>595</ele>
        <time>2014-01-30T13:56:40Z</time>
      </trkpt>
      <trkpt lat="44.15737" lon="3.04476">
        <ele>597</ele>
        <time>2014-01-30T13:56:45Z</time>
      </trkpt>
      <trkpt lat="44.15742" lon="3.04477">
        <ele>599</ele>
        <time>2014-01-30T13:56:50Z</time>
      </trkpt>
      <trkpt lat="44.15746" lon="3.04479">
        <ele>600</ele>
        <time>2014-01-30T13:56:54Z</time>
      </trkpt>
      <trkpt lat="44.15751" lon="3.0448">
        <ele>603</ele>
        <time>2014-01-30T13:56:59Z</time>
      </trkpt>
      <trkpt lat="44.15756" lon="3.04482">
        <ele>604</ele>
        <time>2014-01-30T13:57:04Z</time>
      </trkpt>
      <trkpt lat="44.15761" lon="3.04484">
        <ele>604</ele>
        <time>2014-01-30T13:57:09Z</time>
      </trkpt>
      <trkpt lat="44.15766" lon="3.04485">
        <ele>604</ele>
        <time>2014-01-30T13:57:13Z</time>
      </trkpt>
      <trkpt lat="44.15769" lon="3.04488">
        <ele>604</ele>
        <time>2014-01-30T13:57:17Z</time>
      </trkpt>
      <trkpt lat="44.15772" lon="3.04494">
        <ele>603</ele>
        <time>2014-01-30T13:57:22Z</time>
      </trkpt>
      <trkpt lat="44.15777" lon="3.04494">
        <ele>602</ele>
        <time>2014-01-30T13:57:28Z</time>
      </trkpt>
      <trkpt lat="44.15782" lon="3.04495">
        <ele>602</ele>
        <time>2014-01-30T13:57:33Z</time>
      </trkpt>
      <trkpt lat="44.15787" lon="3.04495">
        <ele>601</ele>
        <time>2014-01-30T13:57:40Z</time>
      </trkpt>
      <trkpt lat="44.15785" lon="3.04501">
        <ele>602</ele>
        <time>2014-01-30T13:57:47Z</time>
      </trkpt>
      <trkpt lat="44.15788" lon="3.04507">
        <ele>603</ele>
        <time>2014-01-30T13:57:51Z</time>
      </trkpt>
      <trkpt lat="44.15792" lon="3.04513">
        <ele>605</ele>
        <time>2014-01-30T13:57:55Z</time>
      </trkpt>
      <trkpt lat="44.15797" lon="3.04516">
        <ele>606</ele>
        <time>2014-01-30T13:58:00Z</time>
      </trkpt>
      <trkpt lat="44.15802" lon="3.04515">
        <ele>607</ele>
        <time>2014-01-30T13:58:06Z</time>
      </trkpt>
      <trkpt lat="44.15807" lon="3.04514">
        <ele>607</ele>
        <time>2014-01-30T13:58:10Z</time>
      </trkpt>
      <trkpt lat="44.15811" lon="3.04515">
        <ele>607</ele>
        <time>2014-01-30T13:58:16Z</time>
      </trkpt>
      <trkpt lat="44.15816" lon="3.04516">
        <ele>608</ele>
        <time>2014-01-30T13:58:21Z</time>
      </trkpt>
      <trkpt lat="44.1582" lon="3.04515">
        <ele>609</ele>
        <time>2014-01-30T13:58:47Z</time>
      </trkpt>
      <trkpt lat="44.1582" lon="3.0451">
        <ele>608</ele>
        <time>2014-01-30T13:59:18Z</time>
      </trkpt>
      <trkpt lat="44.15822" lon="3.04504">
        <ele>610</ele>
        <time>2014-01-30T14:00:03Z</time>
      </trkpt>
      <trkpt lat="44.15822" lon="3.04499">
        <ele>610</ele>
        <time>2014-01-30T14:00:19Z</time>
      </trkpt>
      <trkpt lat="44.15821" lon="3.04492">
        <ele>611</ele>
        <time>2014-01-30T14:00:27Z</time>
      </trkpt>
      <trkpt lat="44.15821" lon="3.04489">
        <ele>612</ele>
        <time>2014-01-30T14:00:32Z</time>
      </trkpt>
      <trkpt lat="44.1582" lon="3.04481">
        <ele>614</ele>
        <time>2014-01-30T14:00:36Z</time>
      </trkpt>
      <trkpt lat="44.15817" lon="3.04474">
        <ele>613</ele>
        <time>2014-01-30T14:00:41Z</time>
      </trkpt>
      <trkpt lat="44.15815" lon="3.04468">
        <ele>611</ele>
        <time>2014-01-30T14:00:46Z</time>
      </trkpt>
      <trkpt lat="44.15815" lon="3.04462">
        <ele>610</ele>
        <time>2014-01-30T14:00:50Z</time>
      </trkpt>
      <trkpt lat="44.15812" lon="3.04456">
        <ele>609</ele>
        <time>2014-01-30T14:00:54Z</time>
      </trkpt>
      <trkpt lat="44.1581" lon="3.0445">
        <ele>609</ele>
        <time>2014-01-30T14:00:58Z</time>
      </trkpt>
      <trkpt lat="44.15807" lon="3.04444">
        <ele>607</ele>
        <time>2014-01-30T14:01:03Z</time>
      </trkpt>
      <trkpt lat="44.15805" lon="3.04438">
        <ele>606</ele>
        <time>2014-01-30T14:01:09Z</time>
      </trkpt>
      <trkpt lat="44.15801" lon="3.04433">
        <ele>605</ele>
        <time>2014-01-30T14:01:13Z</time>
      </trkpt>
      <trkpt lat="44.15798" lon="3.04429">
        <ele>604</ele>
        <time>2014-01-30T14:01:17Z</time>
      </trkpt>
      <trkpt lat="44.15794" lon="3.04425">
        <ele>604</ele>
        <time>2014-01-30T14:01:21Z</time>
      </trkpt>
      <trkpt lat="44.1579" lon="3.04419">
        <ele>604</ele>
        <time>2014-01-30T14:01:25Z</time>
      </trkpt>
      <trkpt lat="44.15786" lon="3.04414">
        <ele>604</ele>
        <time>2014-01-30T14:01:29Z</time>
      </trkpt>
      <trkpt lat="44.15784" lon="3.04408">
        <ele>604</ele>
        <time>2014-01-30T14:01:33Z</time>
      </trkpt>
      <trkpt lat="44.15782" lon="3.04403">
        <ele>604</ele>
        <time>2014-01-30T14:01:37Z</time>
      </trkpt>
      <trkpt lat="44.15779" lon="3.04398">
        <ele>603</ele>
        <time>2014-01-30T14:01:42Z</time>
      </trkpt>
      <trkpt lat="44.15777" lon="3.04391">
        <ele>602</ele>
        <time>2014-01-30T14:01:47Z</time>
      </trkpt>
      <trkpt lat="44.15774" lon="3.04385">
        <ele>602</ele>
        <time>2014-01-30T14:01:51Z</time>
      </trkpt>
      <trkpt lat="44.15773" lon="3.04377">
        <ele>599</ele>
        <time>2014-01-30T14:01:56Z</time>
      </trkpt>
      <trkpt lat="44.15771" lon="3.04371">
        <ele>599</ele>
        <time>2014-01-30T14:01:59Z</time>
      </trkpt>
      <trkpt lat="44.15768" lon="3.04364">
        <ele>599</ele>
        <time>2014-01-30T14:02:03Z</time>
      </trkpt>
      <trkpt lat="44.15765" lon="3.04358">
        <ele>599</ele>
        <time>2014-01-30T14:02:07Z</time>
      </trkpt>
      <trkpt lat="44.15765" lon="3.04349">
        <ele>600</ele>
        <time>2014-01-30T14:02:11Z</time>
      </trkpt>
      <trkpt lat="44.15764" lon="3.04341">
        <ele>601</ele>
        <time>2014-01-30T14:02:14Z</time>
      </trkpt>
      <trkpt lat="44.15763" lon="3.04335">
        <ele>601</ele>
        <time>2014-01-30T14:02:17Z</time>
      </trkpt>
      <trkpt lat="44.15763" lon="3.04327">
        <ele>602</ele>
        <time>2014-01-30T14:02:21Z</time>
      </trkpt>
      <trkpt lat="44.15763" lon="3.04321">
        <ele>604</ele>
        <time>2014-01-30T14:02:25Z</time>
      </trkpt>
      <trkpt lat="44.15764" lon="3.04314">
        <ele>605</ele>
        <time>2014-01-30T14:02:29Z</time>
      </trkpt>
      <trkpt lat="44.15763" lon="3.04308">
        <ele>605</ele>
        <time>2014-01-30T14:02:33Z</time>
      </trkpt>
      <trkpt lat="44.15762" lon="3.04301">
        <ele>606</ele>
        <time>2014-01-30T14:02:36Z</time>
      </trkpt>
      <trkpt lat="44.15761" lon="3.04294">
        <ele>607</ele>
        <time>2014-01-30T14:02:40Z</time>
      </trkpt>
      <trkpt lat="44.15763" lon="3.04287">
        <ele>607</ele>
        <time>2014-01-30T14:02:45Z</time>
      </trkpt>
      <trkpt lat="44.15764" lon="3.0428">
        <ele>607</ele>
        <time>2014-01-30T14:02:49Z</time>
      </trkpt>
      <trkpt lat="44.15764" lon="3.04273">
        <ele>606</ele>
        <time>2014-01-30T14:02:53Z</time>
      </trkpt>
      <trkpt lat="44.15764" lon="3.04267">
        <ele>607</ele>
        <time>2014-01-30T14:02:56Z</time>
      </trkpt>
      <trkpt lat="44.15764" lon="3.04261">
        <ele>606</ele>
        <time>2014-01-30T14:02:59Z</time>
      </trkpt>
      <trkpt lat="44.15764" lon="3.04255">
        <ele>606</ele>
        <time>2014-01-30T14:03:02Z</time>
      </trkpt>
      <trkpt lat="44.15765" lon="3.04248">
        <ele>604</ele>
        <time>2014-01-30T14:03:06Z</time>
      </trkpt>
      <trkpt lat="44.15765" lon="3.04241">
        <ele>603</ele>
        <time>2014-01-30T14:03:09Z</time>
      </trkpt>
      <trkpt lat="44.15765" lon="3.04234">
        <ele>602</ele>
        <time>2014-01-30T14:03:12Z</time>
      </trkpt>
      <trkpt lat="44.15765" lon="3.04227">
        <ele>601</ele>
        <time>2014-01-30T14:03:16Z</time>
      </trkpt>
      <trkpt lat="44.15765" lon="3.0422">
        <ele>600</ele>
        <time>2014-01-30T14:03:21Z</time>
      </trkpt>
      <trkpt lat="44.15766" lon="3.04213">
        <ele>599</ele>
        <time>2014-01-30T14:03:25Z</time>
      </trkpt>
      <trkpt lat="44.1577" lon="3.04209">
        <ele>596</ele>
        <time>2014-01-30T14:03:30Z</time>
      </trkpt>
      <trkpt lat="44.15773" lon="3.04203">
        <ele>594</ele>
        <time>2014-01-30T14:03:34Z</time>
      </trkpt>
      <trkpt lat="44.15775" lon="3.042">
        <ele>594</ele>
        <time>2014-01-30T14:03:42Z</time>
      </trkpt>
      <trkpt lat="44.15774" lon="3.04191">
        <ele>594</ele>
        <time>2014-01-30T14:04:15Z</time>
      </trkpt>
      <trkpt lat="44.15771" lon="3.04185">
        <ele>595</ele>
        <time>2014-01-30T14:04:21Z</time>
      </trkpt>
      <trkpt lat="44.15765" lon="3.04182">
        <ele>595</ele>
        <time>2014-01-30T14:04:25Z</time>
      </trkpt>
      <trkpt lat="44.15761" lon="3.04181">
        <ele>594</ele>
        <time>2014-01-30T14:04:29Z</time>
      </trkpt>
      <trkpt lat="44.15755" lon="3.0418">
        <ele>594</ele>
        <time>2014-01-30T14:04:34Z</time>
      </trkpt>
      <trkpt lat="44.15751" lon="3.04177">
        <ele>593</ele>
        <time>2014-01-30T14:04:38Z</time>
      </trkpt>
      <trkpt lat="44.15747" lon="3.04174">
        <ele>594</ele>
        <time>2014-01-30T14:04:42Z</time>
      </trkpt>
      <trkpt lat="44.15742" lon="3.04172">
        <ele>595</ele>
        <time>2014-01-30T14:04:46Z</time>
      </trkpt>
      <trkpt lat="44.15737" lon="3.04169">
        <ele>595</ele>
        <time>2014-01-30T14:04:49Z</time>
      </trkpt>
      <trkpt lat="44.15732" lon="3.04166">
        <ele>596</ele>
        <time>2014-01-30T14:04:53Z</time>
      </trkpt>
      <trkpt lat="44.15727" lon="3.04163">
        <ele>597</ele>
        <time>2014-01-30T14:04:57Z</time>
      </trkpt>
      <trkpt lat="44.15723" lon="3.0416">
        <ele>596</ele>
        <time>2014-01-30T14:05:01Z</time>
      </trkpt>
      <trkpt lat="44.15719" lon="3.04155">
        <ele>596</ele>
        <time>2014-01-30T14:05:06Z</time>
      </trkpt>
      <trkpt lat="44.15717" lon="3.0415">
        <ele>595</ele>
        <time>2014-01-30T14:05:13Z</time>
      </trkpt>
      <trkpt lat="44.15713" lon="3.04145">
        <ele>595</ele>
        <time>2014-01-30T14:05:17Z</time>
      </trkpt>
      <trkpt lat="44.15709" lon="3.04142">
        <ele>596</ele>
        <time>2014-01-30T14:05:21Z</time>
      </trkpt>
      <trkpt lat="44.15704" lon="3.04144">
        <ele>596</ele>
        <time>2014-01-30T14:05:25Z</time>
      </trkpt>
      <trkpt lat="44.15699" lon="3.04144">
        <ele>595</ele>
        <time>2014-01-30T14:05:29Z</time>
      </trkpt>
      <trkpt lat="44.15694" lon="3.04141">
        <ele>595</ele>
        <time>2014-01-30T14:05:34Z</time>
      </trkpt>
      <trkpt lat="44.15689" lon="3.0414">
        <ele>596</ele>
        <time>2014-01-30T14:05:38Z</time>
      </trkpt>
      <trkpt lat="44.15685" lon="3.04141">
        <ele>597</ele>
        <time>2014-01-30T14:05:42Z</time>
      </trkpt>
      <trkpt lat="44.15679" lon="3.04142">
        <ele>599</ele>
        <time>2014-01-30T14:05:46Z</time>
      </trkpt>
      <trkpt lat="44.15674" lon="3.04144">
        <ele>599</ele>
        <time>2014-01-30T14:05:50Z</time>
      </trkpt>
      <trkpt lat="44.15669" lon="3.04144">
        <ele>600</ele>
        <time>2014-01-30T14:05:54Z</time>
      </trkpt>
      <trkpt lat="44.15664" lon="3.04143">
        <ele>601</ele>
        <time>2014-01-30T14:05:58Z</time>
      </trkpt>
      <trkpt lat="44.15659" lon="3.04144">
        <ele>602</ele>
        <time>2014-01-30T14:06:02Z</time>
      </trkpt>
      <trkpt lat="44.15655" lon="3.04137">
        <ele>603</ele>
        <time>2014-01-30T14:06:06Z</time>
      </trkpt>
      <trkpt lat="44.15652" lon="3.04132">
        <ele>604</ele>
        <time>2014-01-30T14:06:09Z</time>
      </trkpt>
      <trkpt lat="44.15651" lon="3.04125">
        <ele>606</ele>
        <time>2014-01-30T14:06:13Z</time>
      </trkpt>
      <trkpt lat="44.15647" lon="3.04121">
        <ele>607</ele>
        <time>2014-01-30T14:06:17Z</time>
      </trkpt>
      <trkpt lat="44.15642" lon="3.04117">
        <ele>607</ele>
        <time>2014-01-30T14:06:21Z</time>
      </trkpt>
      <trkpt lat="44.15638" lon="3.04113">
        <ele>607</ele>
        <time>2014-01-30T14:06:25Z</time>
      </trkpt>
      <trkpt lat="44.15634" lon="3.0411">
        <ele>606</ele>
        <time>2014-01-30T14:06:29Z</time>
      </trkpt>
      <trkpt lat="44.15629" lon="3.04107">
        <ele>605</ele>
        <time>2014-01-30T14:06:33Z</time>
      </trkpt>
      <trkpt lat="44.15624" lon="3.04103">
        <ele>604</ele>
        <time>2014-01-30T14:06:37Z</time>
      </trkpt>
      <trkpt lat="44.15624" lon="3.04097">
        <ele>604</ele>
        <time>2014-01-30T14:06:42Z</time>
      </trkpt>
      <trkpt lat="44.15629" lon="3.04095">
        <ele>604</ele>
        <time>2014-01-30T14:06:46Z</time>
      </trkpt>
      <trkpt lat="44.15634" lon="3.04095">
        <ele>604</ele>
        <time>2014-01-30T14:06:51Z</time>
      </trkpt>
      <trkpt lat="44.15639" lon="3.04094">
        <ele>604</ele>
        <time>2014-01-30T14:06:57Z</time>
      </trkpt>
      <trkpt lat="44.15644" lon="3.04095">
        <ele>606</ele>
        <time>2014-01-30T14:07:02Z</time>
      </trkpt>
      <trkpt lat="44.1565" lon="3.04093">
        <ele>607</ele>
        <time>2014-01-30T14:07:07Z</time>
      </trkpt>
      <trkpt lat="44.15656" lon="3.04092">
        <ele>608</ele>
        <time>2014-01-30T14:07:11Z</time>
      </trkpt>
      <trkpt lat="44.15661" lon="3.04091">
        <ele>610</ele>
        <time>2014-01-30T14:07:15Z</time>
      </trkpt>
      <trkpt lat="44.15666" lon="3.04087">
        <ele>613</ele>
        <time>2014-01-30T14:07:20Z</time>
      </trkpt>
      <trkpt lat="44.1567" lon="3.04084">
        <ele>615</ele>
        <time>2014-01-30T14:07:25Z</time>
      </trkpt>
      <trkpt lat="44.15674" lon="3.04078">
        <ele>616</ele>
        <time>2014-01-30T14:07:31Z</time>
      </trkpt>
      <trkpt lat="44.15677" lon="3.04073">
        <ele>616</ele>
        <time>2014-01-30T14:07:35Z</time>
      </trkpt>
      <trkpt lat="44.15682" lon="3.04068">
        <ele>616</ele>
        <time>2014-01-30T14:07:38Z</time>
      </trkpt>
      <trkpt lat="44.15685" lon="3.04063">
        <ele>617</ele>
        <time>2014-01-30T14:07:42Z</time>
      </trkpt>
      <trkpt lat="44.1569" lon="3.04058">
        <ele>617</ele>
        <time>2014-01-30T14:07:46Z</time>
      </trkpt>
      <trkpt lat="44.15693" lon="3.04053">
        <ele>618</ele>
        <time>2014-01-30T14:07:49Z</time>
      </trkpt>
      <trkpt lat="44.15698" lon="3.04049">
        <ele>617</ele>
        <time>2014-01-30T14:07:53Z</time>
      </trkpt>
      <trkpt lat="44.15703" lon="3.04046">
        <ele>617</ele>
        <time>2014-01-30T14:07:57Z</time>
      </trkpt>
      <trkpt lat="44.15708" lon="3.04044">
        <ele>618</ele>
        <time>2014-01-30T14:08:01Z</time>
      </trkpt>
      <trkpt lat="44.15712" lon="3.04041">
        <ele>619</ele>
        <time>2014-01-30T14:08:07Z</time>
      </trkpt>
      <trkpt lat="44.15715" lon="3.04035">
        <ele>619</ele>
        <time>2014-01-30T14:08:13Z</time>
      </trkpt>
      <trkpt lat="44.1572" lon="3.04032">
        <ele>620</ele>
        <time>2014-01-30T14:08:17Z</time>
      </trkpt>
      <trkpt lat="44.15725" lon="3.04028">
        <ele>621</ele>
        <time>2014-01-30T14:08:21Z</time>
      </trkpt>
      <trkpt lat="44.15729" lon="3.04025">
        <ele>621</ele>
        <time>2014-01-30T14:08:25Z</time>
      </trkpt>
      <trkpt lat="44.15733" lon="3.04021">
        <ele>621</ele>
        <time>2014-01-30T14:08:29Z</time>
      </trkpt>
      <trkpt lat="44.15736" lon="3.04016">
        <ele>622</ele>
        <time>2014-01-30T14:08:34Z</time>
      </trkpt>
      <trkpt lat="44.15739" lon="3.0401">
        <ele>622</ele>
        <time>2014-01-30T14:08:38Z</time>
      </trkpt>
      <trkpt lat="44.15741" lon="3.04003">
        <ele>622</ele>
        <time>2014-01-30T14:08:42Z</time>
      </trkpt>
      <trkpt lat="44.15743" lon="3.03997">
        <ele>623</ele>
        <time>2014-01-30T14:08:45Z</time>
      </trkpt>
      <trkpt lat="44.15745" lon="3.03991">
        <ele>623</ele>
        <time>2014-01-30T14:08:49Z</time>
      </trkpt>
      <trkpt lat="44.1575" lon="3.03987">
        <ele>624</ele>
        <time>2014-01-30T14:08:53Z</time>
      </trkpt>
      <trkpt lat="44.15754" lon="3.03984">
        <ele>624</ele>
        <time>2014-01-30T14:08:56Z</time>
      </trkpt>
      <trkpt lat="44.1576" lon="3.03983">
        <ele>625</ele>
        <time>2014-01-30T14:09:00Z</time>
      </trkpt>
      <trkpt lat="44.15765" lon="3.03983">
        <ele>626</ele>
        <time>2014-01-30T14:09:05Z</time>
      </trkpt>
      <trkpt lat="44.1577" lon="3.03982">
        <ele>627</ele>
        <time>2014-01-30T14:09:10Z</time>
      </trkpt>
      <trkpt lat="44.15774" lon="3.03977">
        <ele>628</ele>
        <time>2014-01-30T14:09:15Z</time>
      </trkpt>
      <trkpt lat="44.15779" lon="3.03974">
        <ele>630</ele>
        <time>2014-01-30T14:09:20Z</time>
      </trkpt>
      <trkpt lat="44.15784" lon="3.03971">
        <ele>630</ele>
        <time>2014-01-30T14:09:24Z</time>
      </trkpt>
      <trkpt lat="44.15789" lon="3.03968">
        <ele>631</ele>
        <time>2014-01-30T14:09:28Z</time>
      </trkpt>
      <trkpt lat="44.15793" lon="3.03966">
        <ele>631</ele>
        <time>2014-01-30T14:09:31Z</time>
      </trkpt>
      <trkpt lat="44.158" lon="3.03966">
        <ele>632</ele>
        <time>2014-01-30T14:09:35Z</time>
      </trkpt>
      <trkpt lat="44.15804" lon="3.03962">
        <ele>632</ele>
        <time>2014-01-30T14:09:40Z</time>
      </trkpt>
      <trkpt lat="44.15808" lon="3.03961">
        <ele>631</ele>
        <time>2014-01-30T14:09:45Z</time>
      </trkpt>
      <trkpt lat="44.15813" lon="3.03959">
        <ele>630</ele>
        <time>2014-01-30T14:09:49Z</time>
      </trkpt>
      <trkpt lat="44.15819" lon="3.03958">
        <ele>630</ele>
        <time>2014-01-30T14:09:53Z</time>
      </trkpt>
      <trkpt lat="44.15823" lon="3.03956">
        <ele>631</ele>
        <time>2014-01-30T14:09:56Z</time>
      </trkpt>
      <trkpt lat="44.15833" lon="3.03951">
        <ele>631</ele>
        <time>2014-01-30T14:10:02Z</time>
      </trkpt>
      <trkpt lat="44.15838" lon="3.0395">
        <ele>631</ele>
        <time>2014-01-30T14:10:09Z</time>
      </trkpt>
      <trkpt lat="44.15841" lon="3.03948">
        <ele>632</ele>
        <time>2014-01-30T14:10:51Z</time>
      </trkpt>
      <trkpt lat="44.15845" lon="3.03949">
        <ele>633</ele>
        <time>2014-01-30T14:10:55Z</time>
      </trkpt>
      <trkpt lat="44.15848" lon="3.03951">
        <ele>633</ele>
        <time>2014-01-30T14:11:02Z</time>
      </trkpt>
      <trkpt lat="44.15851" lon="3.03947">
        <ele>631</ele>
        <time>2014-01-30T14:11:16Z</time>
      </trkpt>
      <trkpt lat="44.15858" lon="3.03947">
        <ele>630</ele>
        <time>2014-01-30T14:11:20Z</time>
      </trkpt>
      <trkpt lat="44.15862" lon="3.03947">
        <ele>629</ele>
        <time>2014-01-30T14:11:23Z</time>
      </trkpt>
      <trkpt lat="44.15868" lon="3.03945">
        <ele>630</ele>
        <time>2014-01-30T14:11:28Z</time>
      </trkpt>
      <trkpt lat="44.15872" lon="3.0394">
        <ele>631</ele>
        <time>2014-01-30T14:11:33Z</time>
      </trkpt>
      <trkpt lat="44.15876" lon="3.03937">
        <ele>631</ele>
        <time>2014-01-30T14:11:37Z</time>
      </trkpt>
      <trkpt lat="44.15882" lon="3.03935">
        <ele>631</ele>
        <time>2014-01-30T14:11:41Z</time>
      </trkpt>
      <trkpt lat="44.15885" lon="3.03931">
        <ele>631</ele>
        <time>2014-01-30T14:11:46Z</time>
      </trkpt>
      <trkpt lat="44.15891" lon="3.03932">
        <ele>633</ele>
        <time>2014-01-30T14:11:50Z</time>
      </trkpt>
      <trkpt lat="44.15896" lon="3.03932">
        <ele>635</ele>
        <time>2014-01-30T14:11:53Z</time>
      </trkpt>
      <trkpt lat="44.159" lon="3.03932">
        <ele>636</ele>
        <time>2014-01-30T14:11:57Z</time>
      </trkpt>
      <trkpt lat="44.15905" lon="3.03932">
        <ele>637</ele>
        <time>2014-01-30T14:12:01Z</time>
      </trkpt>
      <trkpt lat="44.15909" lon="3.0393">
        <ele>637</ele>
        <time>2014-01-30T14:12:04Z</time>
      </trkpt>
      <trkpt lat="44.15915" lon="3.0393">
        <ele>637</ele>
        <time>2014-01-30T14:12:07Z</time>
      </trkpt>
      <trkpt lat="44.15925" lon="3.03931">
        <ele>637</ele>
        <time>2014-01-30T14:12:14Z</time>
      </trkpt>
      <trkpt lat="44.1593" lon="3.03926">
        <ele>636</ele>
        <time>2014-01-30T14:12:19Z</time>
      </trkpt>
      <trkpt lat="44.15935" lon="3.03922">
        <ele>637</ele>
        <time>2014-01-30T14:12:22Z</time>
      </trkpt>
      <trkpt lat="44.1594" lon="3.0392">
        <ele>638</ele>
        <time>2014-01-30T14:12:26Z</time>
      </trkpt>
      <trkpt lat="44.15943" lon="3.03913">
        <ele>639</ele>
        <time>2014-01-30T14:12:30Z</time>
      </trkpt>
      <trkpt lat="44.15946" lon="3.03909">
        <ele>640</ele>
        <time>2014-01-30T14:12:33Z</time>
      </trkpt>
      <trkpt lat="44.15951" lon="3.03906">
        <ele>641</ele>
        <time>2014-01-30T14:12:37Z</time>
      </trkpt>
      <trkpt lat="44.15956" lon="3.03906">
        <ele>641</ele>
        <time>2014-01-30T14:12:42Z</time>
      </trkpt>
      <trkpt lat="44.1596" lon="3.03905">
        <ele>641</ele>
        <time>2014-01-30T14:12:45Z</time>
      </trkpt>
      <trkpt lat="44.15966" lon="3.03907">
        <ele>642</ele>
        <time>2014-01-30T14:12:48Z</time>
      </trkpt>
      <trkpt lat="44.15971" lon="3.03909">
        <ele>642</ele>
        <time>2014-01-30T14:12:51Z</time>
      </trkpt>
      <trkpt lat="44.15975" lon="3.03909">
        <ele>642</ele>
        <time>2014-01-30T14:12:55Z</time>
      </trkpt>
      <trkpt lat="44.1598" lon="3.03909">
        <ele>642</ele>
        <time>2014-01-30T14:12:59Z</time>
      </trkpt>
      <trkpt lat="44.15985" lon="3.03909">
        <ele>641</ele>
        <time>2014-01-30T14:13:03Z</time>
      </trkpt>
      <trkpt lat="44.1599" lon="3.03907">
        <ele>642</ele>
        <time>2014-01-30T14:13:06Z</time>
      </trkpt>
      <trkpt lat="44.15996" lon="3.03907">
        <ele>642</ele>
        <time>2014-01-30T14:13:09Z</time>
      </trkpt>
      <trkpt lat="44.16" lon="3.03906">
        <ele>645</ele>
        <time>2014-01-30T14:13:13Z</time>
      </trkpt>
      <trkpt lat="44.16005" lon="3.03904">
        <ele>645</ele>
        <time>2014-01-30T14:13:17Z</time>
      </trkpt>
      <trkpt lat="44.1601" lon="3.03902">
        <ele>645</ele>
        <time>2014-01-30T14:13:21Z</time>
      </trkpt>
      <trkpt lat="44.16015" lon="3.03901">
        <ele>647</ele>
        <time>2014-01-30T14:13:24Z</time>
      </trkpt>
      <trkpt lat="44.1602" lon="3.03899">
        <ele>647</ele>
        <time>2014-01-30T14:13:28Z</time>
      </trkpt>
      <trkpt lat="44.16024" lon="3.03894">
        <ele>647</ele>
        <time>2014-01-30T14:13:32Z</time>
      </trkpt>
      <trkpt lat="44.16028" lon="3.03891">
        <ele>645</ele>
        <time>2014-01-30T14:13:36Z</time>
      </trkpt>
      <trkpt lat="44.16033" lon="3.0389">
        <ele>644</ele>
        <time>2014-01-30T14:13:40Z</time>
      </trkpt>
      <trkpt lat="44.16039" lon="3.0389">
        <ele>643</ele>
        <time>2014-01-30T14:13:44Z</time>
      </trkpt>
      <trkpt lat="44.16045" lon="3.0389">
        <ele>643</ele>
        <time>2014-01-30T14:13:47Z</time>
      </trkpt>
      <trkpt lat="44.1605" lon="3.0389">
        <ele>642</ele>
        <time>2014-01-30T14:13:51Z</time>
      </trkpt>
      <trkpt lat="44.16053" lon="3.03884">
        <ele>642</ele>
        <time>2014-01-30T14:13:55Z</time>
      </trkpt>
      <trkpt lat="44.16056" lon="3.03878">
        <ele>643</ele>
        <time>2014-01-30T14:13:58Z</time>
      </trkpt>
      <trkpt lat="44.16059" lon="3.03871">
        <ele>644</ele>
        <time>2014-01-30T14:14:01Z</time>
      </trkpt>
      <trkpt lat="44.16062" lon="3.03865">
        <ele>645</ele>
        <time>2014-01-30T14:14:04Z</time>
      </trkpt>
      <trkpt lat="44.16067" lon="3.03863">
        <ele>646</ele>
        <time>2014-01-30T14:14:08Z</time>
      </trkpt>
      <trkpt lat="44.16072" lon="3.03859">
        <ele>647</ele>
        <time>2014-01-30T14:14:12Z</time>
      </trkpt>
      <trkpt lat="44.16074" lon="3.03852">
        <ele>647</ele>
        <time>2014-01-30T14:14:16Z</time>
      </trkpt>
      <trkpt lat="44.16076" lon="3.03845">
        <ele>648</ele>
        <time>2014-01-30T14:14:20Z</time>
      </trkpt>
      <trkpt lat="44.16079" lon="3.03838">
        <ele>650</ele>
        <time>2014-01-30T14:14:24Z</time>
      </trkpt>
      <trkpt lat="44.1608" lon="3.0383">
        <ele>650</ele>
        <time>2014-01-30T14:14:27Z</time>
      </trkpt>
      <trkpt lat="44.16081" lon="3.03824">
        <ele>651</ele>
        <time>2014-01-30T14:14:30Z</time>
      </trkpt>
      <trkpt lat="44.16086" lon="3.0382">
        <ele>652</ele>
        <time>2014-01-30T14:14:35Z</time>
      </trkpt>
      <trkpt lat="44.1609" lon="3.03817">
        <ele>654</ele>
        <time>2014-01-30T14:14:39Z</time>
      </trkpt>
      <trkpt lat="44.16096" lon="3.03816">
        <ele>654</ele>
        <time>2014-01-30T14:14:43Z</time>
      </trkpt>
      <trkpt lat="44.16101" lon="3.03815">
        <ele>654</ele>
        <time>2014-01-30T14:14:46Z</time>
      </trkpt>
      <trkpt lat="44.16105" lon="3.03814">
        <ele>654</ele>
        <time>2014-01-30T14:14:48Z</time>
      </trkpt>
      <trkpt lat="44.1611" lon="3.03812">
        <ele>656</ele>
        <time>2014-01-30T14:14:51Z</time>
      </trkpt>
      <trkpt lat="44.16115" lon="3.03811">
        <ele>656</ele>
        <time>2014-01-30T14:14:56Z</time>
      </trkpt>
      <trkpt lat="44.1612" lon="3.03808">
        <ele>656</ele>
        <time>2014-01-30T14:15:00Z</time>
      </trkpt>
      <trkpt lat="44.16124" lon="3.03804">
        <ele>657</ele>
        <time>2014-01-30T14:15:04Z</time>
      </trkpt>
      <trkpt lat="44.16128" lon="3.03799">
        <ele>657</ele>
        <time>2014-01-30T14:15:08Z</time>
      </trkpt>
      <trkpt lat="44.16131" lon="3.03794">
        <ele>656</ele>
        <time>2014-01-30T14:15:12Z</time>
      </trkpt>
      <trkpt lat="44.16134" lon="3.03789">
        <ele>656</ele>
        <time>2014-01-30T14:15:16Z</time>
      </trkpt>
      <trkpt lat="44.16138" lon="3.03783">
        <ele>656</ele>
        <time>2014-01-30T14:15:19Z</time>
      </trkpt>
      <trkpt lat="44.16142" lon="3.0378">
        <ele>657</ele>
        <time>2014-01-30T14:15:22Z</time>
      </trkpt>
      <trkpt lat="44.16148" lon="3.03778">
        <ele>658</ele>
        <time>2014-01-30T14:15:26Z</time>
      </trkpt>
      <trkpt lat="44.16152" lon="3.03774">
        <ele>658</ele>
        <time>2014-01-30T14:15:29Z</time>
      </trkpt>
      <trkpt lat="44.16155" lon="3.0377">
        <ele>658</ele>
        <time>2014-01-30T14:15:33Z</time>
      </trkpt>
      <trkpt lat="44.16158" lon="3.03764">
        <ele>658</ele>
        <time>2014-01-30T14:15:36Z</time>
      </trkpt>
      <trkpt lat="44.16163" lon="3.03759">
        <ele>657</ele>
        <time>2014-01-30T14:15:40Z</time>
      </trkpt>
      <trkpt lat="44.16166" lon="3.03756">
        <ele>656</ele>
        <time>2014-01-30T14:15:43Z</time>
      </trkpt>
      <trkpt lat="44.1617" lon="3.03752">
        <ele>655</ele>
        <time>2014-01-30T14:15:47Z</time>
      </trkpt>
      <trkpt lat="44.16169" lon="3.03747">
        <ele>652</ele>
        <time>2014-01-30T14:16:08Z</time>
      </trkpt>
      <trkpt lat="44.1617" lon="3.03744">
        <ele>652</ele>
        <time>2014-01-30T14:16:14Z</time>
      </trkpt>
      <trkpt lat="44.1617" lon="3.03735">
        <ele>657</ele>
        <time>2014-01-30T14:16:43Z</time>
      </trkpt>
      <trkpt lat="44.16171" lon="3.03727">
        <ele>658</ele>
        <time>2014-01-30T14:16:47Z</time>
      </trkpt>
      <trkpt lat="44.1617" lon="3.03721">
        <ele>659</ele>
        <time>2014-01-30T14:16:50Z</time>
      </trkpt>
      <trkpt lat="44.16168" lon="3.03713">
        <ele>659</ele>
        <time>2014-01-30T14:16:54Z</time>
      </trkpt>
      <trkpt lat="44.16166" lon="3.03707">
        <ele>660</ele>
        <time>2014-01-30T14:16:57Z</time>
      </trkpt>
      <trkpt lat="44.16163" lon="3.03702">
        <ele>660</ele>
        <time>2014-01-30T14:17:01Z</time>
      </trkpt>
      <trkpt lat="44.16159" lon="3.03698">
        <ele>660</ele>
        <time>2014-01-30T14:17:04Z</time>
      </trkpt>
      <trkpt lat="44.16156" lon="3.03692">
        <ele>661</ele>
        <time>2014-01-30T14:17:08Z</time>
      </trkpt>
      <trkpt lat="44.16152" lon="3.03687">
        <ele>661</ele>
        <time>2014-01-30T14:17:12Z</time>
      </trkpt>
      <trkpt lat="44.16148" lon="3.03683">
        <ele>661</ele>
        <time>2014-01-30T14:17:17Z</time>
      </trkpt>
      <trkpt lat="44.16146" lon="3.03677">
        <ele>661</ele>
        <time>2014-01-30T14:17:21Z</time>
      </trkpt>
      <trkpt lat="44.16146" lon="3.0367">
        <ele>660</ele>
        <time>2014-01-30T14:17:25Z</time>
      </trkpt>
      <trkpt lat="44.16149" lon="3.03664">
        <ele>660</ele>
        <time>2014-01-30T14:17:29Z</time>
      </trkpt>
      <trkpt lat="44.16153" lon="3.03658">
        <ele>660</ele>
        <time>2014-01-30T14:17:33Z</time>
      </trkpt>
      <trkpt lat="44.16156" lon="3.03653">
        <ele>660</ele>
        <time>2014-01-30T14:17:38Z</time>
      </trkpt>
      <trkpt lat="44.16161" lon="3.03651">
        <ele>660</ele>
        <time>2014-01-30T14:18:22Z</time>
      </trkpt>
      <trkpt lat="44.16163" lon="3.03644">
        <ele>660</ele>
        <time>2014-01-30T14:18:27Z</time>
      </trkpt>
      <trkpt lat="44.16169" lon="3.03645">
        <ele>655</ele>
        <time>2014-01-30T14:18:45Z</time>
      </trkpt>
      <trkpt lat="44.16173" lon="3.03643">
        <ele>654</ele>
        <time>2014-01-30T14:18:51Z</time>
      </trkpt>
      <trkpt lat="44.16178" lon="3.0364">
        <ele>655</ele>
        <time>2014-01-30T14:18:57Z</time>
      </trkpt>
      <trkpt lat="44.16181" lon="3.03636">
        <ele>655</ele>
        <time>2014-01-30T14:19:03Z</time>
      </trkpt>
      <trkpt lat="44.16181" lon="3.03636">
        <ele>653</ele>
        <time>2014-01-30T14:20:22Z</time>
      </trkpt>
      <trkpt lat="44.16186" lon="3.03635">
        <ele>653</ele>
        <time>2014-01-30T14:20:29Z</time>
      </trkpt>
      <trkpt lat="44.16191" lon="3.03635">
        <ele>653</ele>
        <time>2014-01-30T14:20:36Z</time>
      </trkpt>
      <trkpt lat="44.16197" lon="3.03635">
        <ele>654</ele>
        <time>2014-01-30T14:20:42Z</time>
      </trkpt>
      <trkpt lat="44.16202" lon="3.03636">
        <ele>655</ele>
        <time>2014-01-30T14:20:47Z</time>
      </trkpt>
      <trkpt lat="44.16208" lon="3.03636">
        <ele>657</ele>
        <time>2014-01-30T14:20:52Z</time>
      </trkpt>
      <trkpt lat="44.16212" lon="3.03638">
        <ele>658</ele>
        <time>2014-01-30T14:20:56Z</time>
      </trkpt>
      <trkpt lat="44.16216" lon="3.03642">
        <ele>658</ele>
        <time>2014-01-30T14:21:00Z</time>
      </trkpt>
      <trkpt lat="44.1622" lon="3.03644">
        <ele>658</ele>
        <time>2014-01-30T14:21:04Z</time>
      </trkpt>
      <trkpt lat="44.16225" lon="3.03649">
        <ele>659</ele>
        <time>2014-01-30T14:21:08Z</time>
      </trkpt>
      <trkpt lat="44.16228" lon="3.03653">
        <ele>660</ele>
        <time>2014-01-30T14:21:11Z</time>
      </trkpt>
      <trkpt lat="44.16232" lon="3.03658">
        <ele>661</ele>
        <time>2014-01-30T14:21:14Z</time>
      </trkpt>
      <trkpt lat="44.16235" lon="3.03662">
        <ele>661</ele>
        <time>2014-01-30T14:21:19Z</time>
      </trkpt>
      <trkpt lat="44.1624" lon="3.03665">
        <ele>662</ele>
        <time>2014-01-30T14:21:23Z</time>
      </trkpt>
      <trkpt lat="44.16244" lon="3.03668">
        <ele>663</ele>
        <time>2014-01-30T14:21:27Z</time>
      </trkpt>
      <trkpt lat="44.16249" lon="3.03671">
        <ele>663</ele>
        <time>2014-01-30T14:21:34Z</time>
      </trkpt>
      <trkpt lat="44.16253" lon="3.03673">
        <ele>663</ele>
        <time>2014-01-30T14:21:37Z</time>
      </trkpt>
      <trkpt lat="44.16259" lon="3.03677">
        <ele>663</ele>
        <time>2014-01-30T14:21:41Z</time>
      </trkpt>
      <trkpt lat="44.16262" lon="3.03683">
        <ele>661</ele>
        <time>2014-01-30T14:21:45Z</time>
      </trkpt>
      <trkpt lat="44.16266" lon="3.03688">
        <ele>660</ele>
        <time>2014-01-30T14:21:49Z</time>
      </trkpt>
      <trkpt lat="44.1627" lon="3.03692">
        <ele>660</ele>
        <time>2014-01-30T14:21:53Z</time>
      </trkpt>
      <trkpt lat="44.16274" lon="3.03695">
        <ele>658</ele>
        <time>2014-01-30T14:21:58Z</time>
      </trkpt>
      <trkpt lat="44.16278" lon="3.037">
        <ele>658</ele>
        <time>2014-01-30T14:22:03Z</time>
      </trkpt>
      <trkpt lat="44.16283" lon="3.03701">
        <ele>657</ele>
        <time>2014-01-30T14:22:06Z</time>
      </trkpt>
      <trkpt lat="44.16289" lon="3.03705">
        <ele>656</ele>
        <time>2014-01-30T14:22:10Z</time>
      </trkpt>
      <trkpt lat="44.16293" lon="3.03709">
        <ele>655</ele>
        <time>2014-01-30T14:22:14Z</time>
      </trkpt>
      <trkpt lat="44.16298" lon="3.03712">
        <ele>655</ele>
        <time>2014-01-30T14:22:20Z</time>
      </trkpt>
      <trkpt lat="44.16303" lon="3.03714">
        <ele>656</ele>
        <time>2014-01-30T14:22:25Z</time>
      </trkpt>
      <trkpt lat="44.16308" lon="3.03715">
        <ele>657</ele>
        <time>2014-01-30T14:22:28Z</time>
      </trkpt>
      <trkpt lat="44.16313" lon="3.03717">
        <ele>659</ele>
        <time>2014-01-30T14:22:31Z</time>
      </trkpt>
      <trkpt lat="44.16318" lon="3.03719">
        <ele>659</ele>
        <time>2014-01-30T14:22:35Z</time>
      </trkpt>
      <trkpt lat="44.16323" lon="3.03716">
        <ele>660</ele>
        <time>2014-01-30T14:22:39Z</time>
      </trkpt>
      <trkpt lat="44.16328" lon="3.03716">
        <ele>661</ele>
        <time>2014-01-30T14:22:43Z</time>
      </trkpt>
      <trkpt lat="44.16333" lon="3.03714">
        <ele>661</ele>
        <time>2014-01-30T14:22:46Z</time>
      </trkpt>
      <trkpt lat="44.16337" lon="3.03712">
        <ele>662</ele>
        <time>2014-01-30T14:22:49Z</time>
      </trkpt>
      <trkpt lat="44.16342" lon="3.03711">
        <ele>662</ele>
        <time>2014-01-30T14:22:53Z</time>
      </trkpt>
      <trkpt lat="44.16347" lon="3.03711">
        <ele>662</ele>
        <time>2014-01-30T14:22:58Z</time>
      </trkpt>
      <trkpt lat="44.16352" lon="3.03709">
        <ele>663</ele>
        <time>2014-01-30T14:23:02Z</time>
      </trkpt>
      <trkpt lat="44.16357" lon="3.03708">
        <ele>666</ele>
        <time>2014-01-30T14:23:07Z</time>
      </trkpt>
      <trkpt lat="44.16363" lon="3.03708">
        <ele>668</ele>
        <time>2014-01-30T14:23:11Z</time>
      </trkpt>
      <trkpt lat="44.16368" lon="3.03707">
        <ele>669</ele>
        <time>2014-01-30T14:23:14Z</time>
      </trkpt>
      <trkpt lat="44.16373" lon="3.03709">
        <ele>669</ele>
        <time>2014-01-30T14:23:17Z</time>
      </trkpt>
      <trkpt lat="44.16377" lon="3.03713">
        <ele>668</ele>
        <time>2014-01-30T14:23:20Z</time>
      </trkpt>
      <trkpt lat="44.16381" lon="3.03718">
        <ele>669</ele>
        <time>2014-01-30T14:23:24Z</time>
      </trkpt>
      <trkpt lat="44.16386" lon="3.03719">
        <ele>668</ele>
        <time>2014-01-30T14:23:30Z</time>
      </trkpt>
      <trkpt lat="44.1639" lon="3.03716">
        <ele>667</ele>
        <time>2014-01-30T14:23:34Z</time>
      </trkpt>
      <trkpt lat="44.16394" lon="3.03711">
        <ele>666</ele>
        <time>2014-01-30T14:23:38Z</time>
      </trkpt>
      <trkpt lat="44.164" lon="3.0371">
        <ele>665</ele>
        <time>2014-01-30T14:23:43Z</time>
      </trkpt>
      <trkpt lat="44.16405" lon="3.03712">
        <ele>666</ele>
        <time>2014-01-30T14:23:48Z</time>
      </trkpt>
      <trkpt lat="44.1641" lon="3.03714">
        <ele>666</ele>
        <time>2014-01-30T14:23:51Z</time>
      </trkpt>
      <trkpt lat="44.16415" lon="3.03714">
        <ele>666</ele>
        <time>2014-01-30T14:23:57Z</time>
      </trkpt>
      <trkpt lat="44.1642" lon="3.03717">
        <ele>667</ele>
        <time>2014-01-30T14:24:03Z</time>
      </trkpt>
      <trkpt lat="44.16425" lon="3.03717">
        <ele>667</ele>
        <time>2014-01-30T14:24:07Z</time>
      </trkpt>
      <trkpt lat="44.1643" lon="3.03717">
        <ele>668</ele>
        <time>2014-01-30T14:24:10Z</time>
      </trkpt>
      <trkpt lat="44.16436" lon="3.03718">
        <ele>670</ele>
        <time>2014-01-30T14:24:14Z</time>
      </trkpt>
      <trkpt lat="44.16439" lon="3.03724">
        <ele>671</ele>
        <time>2014-01-30T14:24:18Z</time>
      </trkpt>
      <trkpt lat="44.16444" lon="3.0373">
        <ele>670</ele>
        <time>2014-01-30T14:24:22Z</time>
      </trkpt>
      <trkpt lat="44.16447" lon="3.03735">
        <ele>670</ele>
        <time>2014-01-30T14:24:25Z</time>
      </trkpt>
      <trkpt lat="44.16452" lon="3.03738">
        <ele>670</ele>
        <time>2014-01-30T14:24:29Z</time>
      </trkpt>
      <trkpt lat="44.16458" lon="3.03738">
        <ele>671</ele>
        <time>2014-01-30T14:24:35Z</time>
      </trkpt>
      <trkpt lat="44.16463" lon="3.03739">
        <ele>672</ele>
        <time>2014-01-30T14:24:38Z</time>
      </trkpt>
      <trkpt lat="44.16467" lon="3.0374">
        <ele>673</ele>
        <time>2014-01-30T14:24:41Z</time>
      </trkpt>
      <trkpt lat="44.16473" lon="3.03742">
        <ele>672</ele>
        <time>2014-01-30T14:24:45Z</time>
      </trkpt>
      <trkpt lat="44.16477" lon="3.03745">
        <ele>671</ele>
        <time>2014-01-30T14:24:48Z</time>
      </trkpt>
      <trkpt lat="44.1648" lon="3.03749">
        <ele>669</ele>
        <time>2014-01-30T14:24:53Z</time>
      </trkpt>
      <trkpt lat="44.1648" lon="3.03757">
        <ele>668</ele>
        <time>2014-01-30T14:24:57Z</time>
      </trkpt>
      <trkpt lat="44.1648" lon="3.03763">
        <ele>668</ele>
        <time>2014-01-30T14:25:01Z</time>
      </trkpt>
      <trkpt lat="44.16482" lon="3.0377">
        <ele>668</ele>
        <time>2014-01-30T14:25:05Z</time>
      </trkpt>
      <trkpt lat="44.16486" lon="3.03774">
        <ele>669</ele>
        <time>2014-01-30T14:25:08Z</time>
      </trkpt>
      <trkpt lat="44.1649" lon="3.03778">
        <ele>670</ele>
        <time>2014-01-30T14:25:12Z</time>
      </trkpt>
      <trkpt lat="44.16493" lon="3.03786">
        <ele>669</ele>
        <time>2014-01-30T14:25:17Z</time>
      </trkpt>
      <trkpt lat="44.16497" lon="3.03792">
        <ele>669</ele>
        <time>2014-01-30T14:25:21Z</time>
      </trkpt>
      <trkpt lat="44.16499" lon="3.03798">
        <ele>668</ele>
        <time>2014-01-30T14:25:25Z</time>
      </trkpt>
      <trkpt lat="44.16503" lon="3.03803">
        <ele>668</ele>
        <time>2014-01-30T14:25:29Z</time>
      </trkpt>
      <trkpt lat="44.16507" lon="3.03809">
        <ele>668</ele>
        <time>2014-01-30T14:25:33Z</time>
      </trkpt>
      <trkpt lat="44.1651" lon="3.03815">
        <ele>669</ele>
        <time>2014-01-30T14:25:37Z</time>
      </trkpt>
      <trkpt lat="44.16511" lon="3.03822">
        <ele>668</ele>
        <time>2014-01-30T14:25:42Z</time>
      </trkpt>
      <trkpt lat="44.16515" lon="3.03824">
        <ele>669</ele>
        <time>2014-01-30T14:25:52Z</time>
      </trkpt>
      <trkpt lat="44.16519" lon="3.03828">
        <ele>669</ele>
        <time>2014-01-30T14:26:02Z</time>
      </trkpt>
      <trkpt lat="44.16523" lon="3.03834">
        <ele>669</ele>
        <time>2014-01-30T14:26:07Z</time>
      </trkpt>
      <trkpt lat="44.16527" lon="3.03839">
        <ele>669</ele>
        <time>2014-01-30T14:26:11Z</time>
      </trkpt>
      <trkpt lat="44.16531" lon="3.03844">
        <ele>670</ele>
        <time>2014-01-30T14:26:14Z</time>
      </trkpt>
      <trkpt lat="44.16539" lon="3.03854">
        <ele>670</ele>
        <time>2014-01-30T14:26:21Z</time>
      </trkpt>
      <trkpt lat="44.16541" lon="3.03867">
        <ele>670</ele>
        <time>2014-01-30T14:26:29Z</time>
      </trkpt>
      <trkpt lat="44.16544" lon="3.0388">
        <ele>670</ele>
        <time>2014-01-30T14:26:36Z</time>
      </trkpt>
      <trkpt lat="44.16544" lon="3.03887">
        <ele>669</ele>
        <time>2014-01-30T14:26:39Z</time>
      </trkpt>
      <trkpt lat="44.16545" lon="3.03894">
        <ele>669</ele>
        <time>2014-01-30T14:26:43Z</time>
      </trkpt>
      <trkpt lat="44.16542" lon="3.039">
        <ele>669</ele>
        <time>2014-01-30T14:26:48Z</time>
      </trkpt>
      <trkpt lat="44.16541" lon="3.03907">
        <ele>669</ele>
        <time>2014-01-30T14:26:52Z</time>
      </trkpt>
      <trkpt lat="44.1654" lon="3.03914">
        <ele>669</ele>
        <time>2014-01-30T14:26:56Z</time>
      </trkpt>
      <trkpt lat="44.16541" lon="3.0392">
        <ele>670</ele>
        <time>2014-01-30T14:27:00Z</time>
      </trkpt>
      <trkpt lat="44.16541" lon="3.03927">
        <ele>669</ele>
        <time>2014-01-30T14:27:05Z</time>
      </trkpt>
      <trkpt lat="44.16541" lon="3.03935">
        <ele>669</ele>
        <time>2014-01-30T14:27:10Z</time>
      </trkpt>
      <trkpt lat="44.16542" lon="3.03941">
        <ele>668</ele>
        <time>2014-01-30T14:27:16Z</time>
      </trkpt>
      <trkpt lat="44.16538" lon="3.03954">
        <ele>663</ele>
        <time>2014-01-30T14:27:27Z</time>
      </trkpt>
      <trkpt lat="44.16537" lon="3.03962">
        <ele>662</ele>
        <time>2014-01-30T14:27:31Z</time>
      </trkpt>
      <trkpt lat="44.16537" lon="3.0397">
        <ele>662</ele>
        <time>2014-01-30T14:27:35Z</time>
      </trkpt>
      <trkpt lat="44.16536" lon="3.03977">
        <ele>662</ele>
        <time>2014-01-30T14:27:39Z</time>
      </trkpt>
      <trkpt lat="44.16535" lon="3.03983">
        <ele>662</ele>
        <time>2014-01-30T14:27:43Z</time>
      </trkpt>
      <trkpt lat="44.16534" lon="3.03991">
        <ele>662</ele>
        <time>2014-01-30T14:27:47Z</time>
      </trkpt>
      <trkpt lat="44.16535" lon="3.03998">
        <ele>661</ele>
        <time>2014-01-30T14:27:52Z</time>
      </trkpt>
      <trkpt lat="44.16537" lon="3.04002">
        <ele>661</ele>
        <time>2014-01-30T14:28:00Z</time>
      </trkpt>
      <trkpt lat="44.16536" lon="3.0401">
        <ele>660</ele>
        <time>2014-01-30T14:28:06Z</time>
      </trkpt>
      <trkpt lat="44.16535" lon="3.04017">
        <ele>659</ele>
        <time>2014-01-30T14:28:09Z</time>
      </trkpt>
      <trkpt lat="44.16535" lon="3.04024">
        <ele>658</ele>
        <time>2014-01-30T14:28:13Z</time>
      </trkpt>
      <trkpt lat="44.16533" lon="3.0403">
        <ele>657</ele>
        <time>2014-01-30T14:28:17Z</time>
      </trkpt>
      <trkpt lat="44.16529" lon="3.04036">
        <ele>656</ele>
        <time>2014-01-30T14:28:23Z</time>
      </trkpt>
      <trkpt lat="44.16527" lon="3.04043">
        <ele>656</ele>
        <time>2014-01-30T14:28:27Z</time>
      </trkpt>
      <trkpt lat="44.16528" lon="3.0405">
        <ele>656</ele>
        <time>2014-01-30T14:28:31Z</time>
      </trkpt>
      <trkpt lat="44.16528" lon="3.04057">
        <ele>655</ele>
        <time>2014-01-30T14:28:35Z</time>
      </trkpt>
      <trkpt lat="44.16531" lon="3.04063">
        <ele>653</ele>
        <time>2014-01-30T14:28:40Z</time>
      </trkpt>
      <trkpt lat="44.16533" lon="3.0407">
        <ele>652</ele>
        <time>2014-01-30T14:28:44Z</time>
      </trkpt>
      <trkpt lat="44.16533" lon="3.0408">
        <ele>652</ele>
        <time>2014-01-30T14:28:47Z</time>
      </trkpt>
      <trkpt lat="44.16534" lon="3.04086">
        <ele>651</ele>
        <time>2014-01-30T14:28:50Z</time>
      </trkpt>
      <trkpt lat="44.16537" lon="3.04095">
        <ele>651</ele>
        <time>2014-01-30T14:28:55Z</time>
      </trkpt>
      <trkpt lat="44.16541" lon="3.04099">
        <ele>652</ele>
        <time>2014-01-30T14:28:58Z</time>
      </trkpt>
      <trkpt lat="44.16544" lon="3.04104">
        <ele>652</ele>
        <time>2014-01-30T14:29:02Z</time>
      </trkpt>
      <trkpt lat="44.16547" lon="3.04111">
        <ele>651</ele>
        <time>2014-01-30T14:29:06Z</time>
      </trkpt>
      <trkpt lat="44.16549" lon="3.04118">
        <ele>647</ele>
        <time>2014-01-30T14:29:14Z</time>
      </trkpt>
      <trkpt lat="44.16553" lon="3.04121">
        <ele>646</ele>
        <time>2014-01-30T14:29:17Z</time>
      </trkpt>
      <trkpt lat="44.16557" lon="3.04126">
        <ele>646</ele>
        <time>2014-01-30T14:29:20Z</time>
      </trkpt>
      <trkpt lat="44.1656" lon="3.04133">
        <ele>647</ele>
        <time>2014-01-30T14:29:24Z</time>
      </trkpt>
      <trkpt lat="44.16561" lon="3.04139">
        <ele>647</ele>
        <time>2014-01-30T14:29:29Z</time>
      </trkpt>
      <trkpt lat="44.16563" lon="3.04145">
        <ele>648</ele>
        <time>2014-01-30T14:29:35Z</time>
      </trkpt>
      <trkpt lat="44.16569" lon="3.04154">
        <ele>652</ele>
        <time>2014-01-30T14:29:49Z</time>
      </trkpt>
      <trkpt lat="44.16568" lon="3.0416">
        <ele>652</ele>
        <time>2014-01-30T14:29:55Z</time>
      </trkpt>
      <trkpt lat="44.16563" lon="3.04163">
        <ele>653</ele>
        <time>2014-01-30T14:30:02Z</time>
      </trkpt>
      <trkpt lat="44.16562" lon="3.0417">
        <ele>652</ele>
        <time>2014-01-30T14:30:11Z</time>
      </trkpt>
      <trkpt lat="44.16566" lon="3.04174">
        <ele>650</ele>
        <time>2014-01-30T14:30:20Z</time>
      </trkpt>
      <trkpt lat="44.16568" lon="3.04181">
        <ele>649</ele>
        <time>2014-01-30T14:30:24Z</time>
      </trkpt>
      <trkpt lat="44.16568" lon="3.04189">
        <ele>649</ele>
        <time>2014-01-30T14:30:28Z</time>
      </trkpt>
      <trkpt lat="44.16561" lon="3.04191">
        <ele>648</ele>
        <time>2014-01-30T14:30:31Z</time>
      </trkpt>
      <trkpt lat="44.16561" lon="3.04195">
        <ele>648</ele>
        <time>2014-01-30T14:32:55Z</time>
      </trkpt>
      <trkpt lat="44.16556" lon="3.04197">
        <ele>647</ele>
        <time>2014-01-30T14:33:11Z</time>
      </trkpt>
      <trkpt lat="44.16554" lon="3.04203">
        <ele>647</ele>
        <time>2014-01-30T14:33:30Z</time>
      </trkpt>
      <trkpt lat="44.16555" lon="3.04205">
        <ele>641</ele>
        <time>2014-01-30T14:35:05Z</time>
      </trkpt>
      <trkpt lat="44.16555" lon="3.04211">
        <ele>640</ele>
        <time>2014-01-30T14:35:12Z</time>
      </trkpt>
      <trkpt lat="44.16553" lon="3.04217">
        <ele>637</ele>
        <time>2014-01-30T14:35:21Z</time>
      </trkpt>
      <trkpt lat="44.16548" lon="3.04218">
        <ele>639</ele>
        <time>2014-01-30T14:35:34Z</time>
      </trkpt>
      <trkpt lat="44.16548" lon="3.04217">
        <ele>642</ele>
        <time>2014-01-30T14:36:45Z</time>
      </trkpt>
      <trkpt lat="44.16546" lon="3.04211">
        <ele>642</ele>
        <time>2014-01-30T14:36:52Z</time>
      </trkpt>
      <trkpt lat="44.16544" lon="3.04204">
        <ele>643</ele>
        <time>2014-01-30T14:36:55Z</time>
      </trkpt>
      <trkpt lat="44.16545" lon="3.04197">
        <ele>643</ele>
        <time>2014-01-30T14:37:01Z</time>
      </trkpt>
      <trkpt lat="44.1655" lon="3.04194">
        <ele>644</ele>
        <time>2014-01-30T14:37:04Z</time>
      </trkpt>
      <trkpt lat="44.16549" lon="3.04187">
        <ele>644</ele>
        <time>2014-01-30T14:37:12Z</time>
      </trkpt>
      <trkpt lat="44.16552" lon="3.04187">
        <ele>642</ele>
        <time>2014-01-30T14:39:01Z</time>
      </trkpt>
      <trkpt lat="44.1655" lon="3.0419">
        <ele>644</ele>
        <time>2014-01-30T14:40:55Z</time>
      </trkpt>
      <trkpt lat="44.16551" lon="3.0419">
        <ele>646</ele>
        <time>2014-01-30T14:43:33Z</time>
      </trkpt>
      <trkpt lat="44.16556" lon="3.04192">
        <ele>647</ele>
        <time>2014-01-30T14:43:51Z</time>
      </trkpt>
      <trkpt lat="44.16554" lon="3.04195">
        <ele>647</ele>
        <time>2014-01-30T14:44:33Z</time>
      </trkpt>
      <trkpt lat="44.16551" lon="3.04193">
        <ele>647</ele>
        <time>2014-01-30T14:44:44Z</time>
      </trkpt>
      <trkpt lat="44.16547" lon="3.04197">
        <ele>648</ele>
        <time>2014-01-30T14:44:49Z</time>
      </trkpt>
      <trkpt lat="44.16548" lon="3.04202">
        <ele>648</ele>
        <time>2014-01-30T14:45:02Z</time>
      </trkpt>
      <trkpt lat="44.16548" lon="3.04202">
        <ele>645</ele>
        <time>2014-01-30T14:45:21Z</time>
      </trkpt>
      <trkpt lat="44.16553" lon="3.042">
        <ele>645</ele>
        <time>2014-01-30T14:45:25Z</time>
      </trkpt>
      <trkpt lat="44.16557" lon="3.04197">
        <ele>644</ele>
        <time>2014-01-30T14:45:31Z</time>
      </trkpt>
      <trkpt lat="44.16558" lon="3.0419">
        <ele>645</ele>
        <time>2014-01-30T14:45:38Z</time>
      </trkpt>
      <trkpt lat="44.16558" lon="3.04181">
        <ele>647</ele>
        <time>2014-01-30T14:45:50Z</time>
      </trkpt>
      <trkpt lat="44.16557" lon="3.04175">
        <ele>651</ele>
        <time>2014-01-30T14:45:58Z</time>
      </trkpt>
      <trkpt lat="44.16558" lon="3.04168">
        <ele>651</ele>
        <time>2014-01-30T14:46:11Z</time>
      </trkpt>
      <trkpt lat="44.16557" lon="3.04161">
        <ele>651</ele>
        <time>2014-01-30T14:46:16Z</time>
      </trkpt>
      <trkpt lat="44.16555" lon="3.04155">
        <ele>651</ele>
        <time>2014-01-30T14:46:24Z</time>
      </trkpt>
      <trkpt lat="44.16556" lon="3.04148">
        <ele>651</ele>
        <time>2014-01-30T14:46:30Z</time>
      </trkpt>
      <trkpt lat="44.16555" lon="3.04142">
        <ele>651</ele>
        <time>2014-01-30T14:46:36Z</time>
      </trkpt>
      <trkpt lat="44.16551" lon="3.04138">
        <ele>651</ele>
        <time>2014-01-30T14:46:41Z</time>
      </trkpt>
      <trkpt lat="44.16546" lon="3.04136">
        <ele>648</ele>
        <time>2014-01-30T14:46:48Z</time>
      </trkpt>
      <trkpt lat="44.16542" lon="3.04132">
        <ele>647</ele>
        <time>2014-01-30T14:46:53Z</time>
      </trkpt>
      <trkpt lat="44.16539" lon="3.04126">
        <ele>646</ele>
        <time>2014-01-30T14:46:58Z</time>
      </trkpt>
      <trkpt lat="44.16536" lon="3.0412">
        <ele>646</ele>
        <time>2014-01-30T14:47:03Z</time>
      </trkpt>
      <trkpt lat="44.16532" lon="3.04116">
        <ele>645</ele>
        <time>2014-01-30T14:47:08Z</time>
      </trkpt>
      <trkpt lat="44.16529" lon="3.0411">
        <ele>643</ele>
        <time>2014-01-30T14:47:13Z</time>
      </trkpt>
      <trkpt lat="44.16527" lon="3.04104">
        <ele>643</ele>
        <time>2014-01-30T14:47:17Z</time>
      </trkpt>
      <trkpt lat="44.16526" lon="3.04097">
        <ele>643</ele>
        <time>2014-01-30T14:47:20Z</time>
      </trkpt>
      <trkpt lat="44.16525" lon="3.04089">
        <ele>643</ele>
        <time>2014-01-30T14:47:24Z</time>
      </trkpt>
      <trkpt lat="44.16526" lon="3.04083">
        <ele>644</ele>
        <time>2014-01-30T14:47:31Z</time>
      </trkpt>
      <trkpt lat="44.16524" lon="3.04076">
        <ele>644</ele>
        <time>2014-01-30T14:47:37Z</time>
      </trkpt>
      <trkpt lat="44.16522" lon="3.04069">
        <ele>646</ele>
        <time>2014-01-30T14:47:43Z</time>
      </trkpt>
      <trkpt lat="44.16523" lon="3.04063">
        <ele>647</ele>
        <time>2014-01-30T14:47:51Z</time>
      </trkpt>
      <trkpt lat="44.16522" lon="3.04056">
        <ele>650</ele>
        <time>2014-01-30T14:47:58Z</time>
      </trkpt>
      <trkpt lat="44.16526" lon="3.04044">
        <ele>652</ele>
        <time>2014-01-30T14:48:08Z</time>
      </trkpt>
      <trkpt lat="44.1653" lon="3.04038">
        <ele>653</ele>
        <time>2014-01-30T14:48:13Z</time>
      </trkpt>
      <trkpt lat="44.16534" lon="3.04035">
        <ele>654</ele>
        <time>2014-01-30T14:48:18Z</time>
      </trkpt>
      <trkpt lat="44.16542" lon="3.04025">
        <ele>655</ele>
        <time>2014-01-30T14:48:29Z</time>
      </trkpt>
      <trkpt lat="44.16542" lon="3.04019">
        <ele>657</ele>
        <time>2014-01-30T14:48:32Z</time>
      </trkpt>
      <trkpt lat="44.16542" lon="3.04012">
        <ele>658</ele>
        <time>2014-01-30T14:48:37Z</time>
      </trkpt>
      <trkpt lat="44.16542" lon="3.04004">
        <ele>660</ele>
        <time>2014-01-30T14:48:43Z</time>
      </trkpt>
      <trkpt lat="44.16541" lon="3.03997">
        <ele>660</ele>
        <time>2014-01-30T14:48:47Z</time>
      </trkpt>
      <trkpt lat="44.16542" lon="3.03991">
        <ele>660</ele>
        <time>2014-01-30T14:48:52Z</time>
      </trkpt>
      <trkpt lat="44.16542" lon="3.03984">
        <ele>660</ele>
        <time>2014-01-30T14:48:57Z</time>
      </trkpt>
      <trkpt lat="44.16543" lon="3.03976">
        <ele>659</ele>
        <time>2014-01-30T14:49:03Z</time>
      </trkpt>
      <trkpt lat="44.16543" lon="3.03968">
        <ele>659</ele>
        <time>2014-01-30T14:49:07Z</time>
      </trkpt>
      <trkpt lat="44.16542" lon="3.0396">
        <ele>657</ele>
        <time>2014-01-30T14:49:20Z</time>
      </trkpt>
      <trkpt lat="44.16539" lon="3.03953">
        <ele>657</ele>
        <time>2014-01-30T14:49:25Z</time>
      </trkpt>
      <trkpt lat="44.16536" lon="3.03948">
        <ele>656</ele>
        <time>2014-01-30T14:49:30Z</time>
      </trkpt>
      <trkpt lat="44.16535" lon="3.03941">
        <ele>656</ele>
        <time>2014-01-30T14:49:36Z</time>
      </trkpt>
      <trkpt lat="44.16535" lon="3.03935">
        <ele>656</ele>
        <time>2014-01-30T14:49:40Z</time>
      </trkpt>
      <trkpt lat="44.16536" lon="3.03928">
        <ele>655</ele>
        <time>2014-01-30T14:49:44Z</time>
      </trkpt>
      <trkpt lat="44.16536" lon="3.03921">
        <ele>655</ele>
        <time>2014-01-30T14:49:48Z</time>
      </trkpt>
      <trkpt lat="44.16534" lon="3.03914">
        <ele>655</ele>
        <time>2014-01-30T14:49:52Z</time>
      </trkpt>
      <trkpt lat="44.16533" lon="3.03907">
        <ele>656</ele>
        <time>2014-01-30T14:49:57Z</time>
      </trkpt>
      <trkpt lat="44.16532" lon="3.039">
        <ele>657</ele>
        <time>2014-01-30T14:50:01Z</time>
      </trkpt>
      <trkpt lat="44.16533" lon="3.03893">
        <ele>657</ele>
        <time>2014-01-30T14:50:05Z</time>
      </trkpt>
      <trkpt lat="44.16533" lon="3.03886">
        <ele>659</ele>
        <time>2014-01-30T14:50:09Z</time>
      </trkpt>
      <trkpt lat="44.16533" lon="3.03878">
        <ele>660</ele>
        <time>2014-01-30T14:50:15Z</time>
      </trkpt>
      <trkpt lat="44.16531" lon="3.03872">
        <ele>660</ele>
        <time>2014-01-30T14:50:18Z</time>
      </trkpt>
      <trkpt lat="44.16528" lon="3.03865">
        <ele>661</ele>
        <time>2014-01-30T14:50:21Z</time>
      </trkpt>
      <trkpt lat="44.16525" lon="3.0386">
        <ele>661</ele>
        <time>2014-01-30T14:50:24Z</time>
      </trkpt>
      <trkpt lat="44.16522" lon="3.03855">
        <ele>661</ele>
        <time>2014-01-30T14:50:27Z</time>
      </trkpt>
      <trkpt lat="44.1652" lon="3.0385">
        <ele>662</ele>
        <time>2014-01-30T14:50:30Z</time>
      </trkpt>
      <trkpt lat="44.16518" lon="3.03843">
        <ele>664</ele>
        <time>2014-01-30T14:50:35Z</time>
      </trkpt>
      <trkpt lat="44.16516" lon="3.03836">
        <ele>665</ele>
        <time>2014-01-30T14:50:40Z</time>
      </trkpt>
      <trkpt lat="44.16518" lon="3.03828">
        <ele>666</ele>
        <time>2014-01-30T14:50:45Z</time>
      </trkpt>
      <trkpt lat="44.16519" lon="3.03822">
        <ele>667</ele>
        <time>2014-01-30T14:50:49Z</time>
      </trkpt>
      <trkpt lat="44.16518" lon="3.03815">
        <ele>668</ele>
        <time>2014-01-30T14:50:53Z</time>
      </trkpt>
      <trkpt lat="44.16517" lon="3.03809">
        <ele>669</ele>
        <time>2014-01-30T14:50:56Z</time>
      </trkpt>
      <trkpt lat="44.16517" lon="3.03801">
        <ele>670</ele>
        <time>2014-01-30T14:51:00Z</time>
      </trkpt>
      <trkpt lat="44.16519" lon="3.03796">
        <ele>671</ele>
        <time>2014-01-30T14:51:05Z</time>
      </trkpt>
      <trkpt lat="44.16521" lon="3.03789">
        <ele>672</ele>
        <time>2014-01-30T14:51:10Z</time>
      </trkpt>
      <trkpt lat="44.16522" lon="3.03782">
        <ele>673</ele>
        <time>2014-01-30T14:51:14Z</time>
      </trkpt>
      <trkpt lat="44.16522" lon="3.03774">
        <ele>674</ele>
        <time>2014-01-30T14:51:21Z</time>
      </trkpt>
      <trkpt lat="44.16523" lon="3.03767">
        <ele>675</ele>
        <time>2014-01-30T14:51:26Z</time>
      </trkpt>
      <trkpt lat="44.16524" lon="3.03759">
        <ele>675</ele>
        <time>2014-01-30T14:51:31Z</time>
      </trkpt>
      <trkpt lat="44.16527" lon="3.03753">
        <ele>676</ele>
        <time>2014-01-30T14:51:36Z</time>
      </trkpt>
      <trkpt lat="44.16536" lon="3.03752">
        <ele>676</ele>
        <time>2014-01-30T14:51:43Z</time>
      </trkpt>
      <trkpt lat="44.16541" lon="3.03757">
        <ele>676</ele>
        <time>2014-01-30T14:51:47Z</time>
      </trkpt>
      <trkpt lat="44.16546" lon="3.03763">
        <ele>676</ele>
        <time>2014-01-30T14:51:50Z</time>
      </trkpt>
      <trkpt lat="44.16549" lon="3.03768">
        <ele>676</ele>
        <time>2014-01-30T14:51:52Z</time>
      </trkpt>
      <trkpt lat="44.16553" lon="3.03772">
        <ele>676</ele>
        <time>2014-01-30T14:51:54Z</time>
      </trkpt>
      <trkpt lat="44.16558" lon="3.03775">
        <ele>676</ele>
        <time>2014-01-30T14:51:58Z</time>
      </trkpt>
      <trkpt lat="44.16563" lon="3.03778">
        <ele>674</ele>
        <time>2014-01-30T14:52:02Z</time>
      </trkpt>
      <trkpt lat="44.16577" lon="3.03788">
        <ele>667</ele>
        <time>2014-01-30T14:52:12Z</time>
      </trkpt>
      <trkpt lat="44.16582" lon="3.0379">
        <ele>668</ele>
        <time>2014-01-30T14:52:22Z</time>
      </trkpt>
      <trkpt lat="44.16587" lon="3.0379">
        <ele>668</ele>
        <time>2014-01-30T14:52:27Z</time>
      </trkpt>
      <trkpt lat="44.16592" lon="3.0379">
        <ele>668</ele>
        <time>2014-01-30T14:52:30Z</time>
      </trkpt>
      <trkpt lat="44.16598" lon="3.03788">
        <ele>669</ele>
        <time>2014-01-30T14:52:35Z</time>
      </trkpt>
      <trkpt lat="44.16604" lon="3.03788">
        <ele>670</ele>
        <time>2014-01-30T14:52:39Z</time>
      </trkpt>
      <trkpt lat="44.16609" lon="3.03791">
        <ele>670</ele>
        <time>2014-01-30T14:52:41Z</time>
      </trkpt>
      <trkpt lat="44.16614" lon="3.03793">
        <ele>670</ele>
        <time>2014-01-30T14:52:43Z</time>
      </trkpt>
      <trkpt lat="44.16619" lon="3.0379">
        <ele>670</ele>
        <time>2014-01-30T14:52:46Z</time>
      </trkpt>
      <trkpt lat="44.16624" lon="3.03787">
        <ele>670</ele>
        <time>2014-01-30T14:52:49Z</time>
      </trkpt>
      <trkpt lat="44.16629" lon="3.03787">
        <ele>670</ele>
        <time>2014-01-30T14:52:52Z</time>
      </trkpt>
      <trkpt lat="44.16634" lon="3.03789">
        <ele>669</ele>
        <time>2014-01-30T14:52:59Z</time>
      </trkpt>
      <trkpt lat="44.1664" lon="3.03786">
        <ele>669</ele>
        <time>2014-01-30T14:53:02Z</time>
      </trkpt>
      <trkpt lat="44.16647" lon="3.03779">
        <ele>668</ele>
        <time>2014-01-30T14:53:09Z</time>
      </trkpt>
      <trkpt lat="44.16651" lon="3.03774">
        <ele>668</ele>
        <time>2014-01-30T14:53:16Z</time>
      </trkpt>
      <trkpt lat="44.16652" lon="3.03768">
        <ele>668</ele>
        <time>2014-01-30T14:53:20Z</time>
      </trkpt>
      <trkpt lat="44.16656" lon="3.03765">
        <ele>666</ele>
        <time>2014-01-30T14:53:26Z</time>
      </trkpt>
      <trkpt lat="44.1666" lon="3.03757">
        <ele>665</ele>
        <time>2014-01-30T14:53:33Z</time>
      </trkpt>
      <trkpt lat="44.16664" lon="3.0375">
        <ele>665</ele>
        <time>2014-01-30T14:53:35Z</time>
      </trkpt>
      <trkpt lat="44.16668" lon="3.03746">
        <ele>665</ele>
        <time>2014-01-30T14:53:38Z</time>
      </trkpt>
      <trkpt lat="44.16673" lon="3.03745">
        <ele>664</ele>
        <time>2014-01-30T14:53:42Z</time>
      </trkpt>
      <trkpt lat="44.16678" lon="3.03745">
        <ele>663</ele>
        <time>2014-01-30T14:53:46Z</time>
      </trkpt>
      <trkpt lat="44.16682" lon="3.03742">
        <ele>663</ele>
        <time>2014-01-30T14:53:50Z</time>
      </trkpt>
      <trkpt lat="44.16684" lon="3.03736">
        <ele>663</ele>
        <time>2014-01-30T14:53:53Z</time>
      </trkpt>
      <trkpt lat="44.16687" lon="3.03729">
        <ele>663</ele>
        <time>2014-01-30T14:53:57Z</time>
      </trkpt>
      <trkpt lat="44.16687" lon="3.03723">
        <ele>664</ele>
        <time>2014-01-30T14:54:00Z</time>
      </trkpt>
      <trkpt lat="44.16686" lon="3.03716">
        <ele>664</ele>
        <time>2014-01-30T14:54:04Z</time>
      </trkpt>
      <trkpt lat="44.16687" lon="3.03709">
        <ele>663</ele>
        <time>2014-01-30T14:54:08Z</time>
      </trkpt>
      <trkpt lat="44.16688" lon="3.03701">
        <ele>663</ele>
        <time>2014-01-30T14:54:11Z</time>
      </trkpt>
      <trkpt lat="44.16689" lon="3.03694">
        <ele>662</ele>
        <time>2014-01-30T14:54:15Z</time>
      </trkpt>
      <trkpt lat="44.16689" lon="3.03686">
        <ele>662</ele>
        <time>2014-01-30T14:54:20Z</time>
      </trkpt>
      <trkpt lat="44.1669" lon="3.03683">
        <ele>661</ele>
        <time>2014-01-30T14:54:26Z</time>
      </trkpt>
      <trkpt lat="44.16696" lon="3.03679">
        <ele>661</ele>
        <time>2014-01-30T14:54:29Z</time>
      </trkpt>
      <trkpt lat="44.167" lon="3.03675">
        <ele>662</ele>
        <time>2014-01-30T14:54:32Z</time>
      </trkpt>
      <trkpt lat="44.16705" lon="3.03678">
        <ele>662</ele>
        <time>2014-01-30T14:54:37Z</time>
      </trkpt>
      <trkpt lat="44.16704" lon="3.03685">
        <ele>662</ele>
        <time>2014-01-30T14:54:40Z</time>
      </trkpt>
      <trkpt lat="44.16704" lon="3.03691">
        <ele>664</ele>
        <time>2014-01-30T14:54:50Z</time>
      </trkpt>
      <trkpt lat="44.16706" lon="3.03693">
        <ele>665</ele>
        <time>2014-01-30T14:55:10Z</time>
      </trkpt>
      <trkpt lat="44.16707" lon="3.03684">
        <ele>663</ele>
        <time>2014-01-30T14:55:23Z</time>
      </trkpt>
      <trkpt lat="44.16707" lon="3.0368">
        <ele>663</ele>
        <time>2014-01-30T14:55:30Z</time>
      </trkpt>
      <trkpt lat="44.16711" lon="3.03677">
        <ele>663</ele>
        <time>2014-01-30T14:55:35Z</time>
      </trkpt>
      <trkpt lat="44.16712" lon="3.03669">
        <ele>660</ele>
        <time>2014-01-30T14:55:41Z</time>
      </trkpt>
      <trkpt lat="44.1671" lon="3.03662">
        <ele>660</ele>
        <time>2014-01-30T14:55:44Z</time>
      </trkpt>
      <trkpt lat="44.16711" lon="3.03655">
        <ele>658</ele>
        <time>2014-01-30T14:55:49Z</time>
      </trkpt>
      <trkpt lat="44.16716" lon="3.03651">
        <ele>655</ele>
        <time>2014-01-30T14:55:55Z</time>
      </trkpt>
      <trkpt lat="44.1672" lon="3.03649">
        <ele>654</ele>
        <time>2014-01-30T14:55:59Z</time>
      </trkpt>
      <trkpt lat="44.16723" lon="3.03643">
        <ele>653</ele>
        <time>2014-01-30T14:56:04Z</time>
      </trkpt>
      <trkpt lat="44.16723" lon="3.03636">
        <ele>650</ele>
        <time>2014-01-30T14:56:11Z</time>
      </trkpt>
      <trkpt lat="44.16727" lon="3.03632">
        <ele>648</ele>
        <time>2014-01-30T14:56:16Z</time>
      </trkpt>
      <trkpt lat="44.16731" lon="3.03629">
        <ele>644</ele>
        <time>2014-01-30T14:56:20Z</time>
      </trkpt>
      <trkpt lat="44.16735" lon="3.03624">
        <ele>643</ele>
        <time>2014-01-30T14:56:24Z</time>
      </trkpt>
      <trkpt lat="44.16738" lon="3.03619">
        <ele>643</ele>
        <time>2014-01-30T14:56:27Z</time>
      </trkpt>
      <trkpt lat="44.16743" lon="3.03613">
        <ele>643</ele>
        <time>2014-01-30T14:56:31Z</time>
      </trkpt>
      <trkpt lat="44.16746" lon="3.03609">
        <ele>643</ele>
        <time>2014-01-30T14:56:34Z</time>
      </trkpt>
      <trkpt lat="44.16745" lon="3.03601">
        <ele>644</ele>
        <time>2014-01-30T14:56:37Z</time>
      </trkpt>
      <trkpt lat="44.16745" lon="3.03594">
        <ele>645</ele>
        <time>2014-01-30T14:56:40Z</time>
      </trkpt>
      <trkpt lat="44.16746" lon="3.03588">
        <ele>647</ele>
        <time>2014-01-30T14:56:44Z</time>
      </trkpt>
      <trkpt lat="44.1675" lon="3.03583">
        <ele>647</ele>
        <time>2014-01-30T14:56:48Z</time>
      </trkpt>
      <trkpt lat="44.16753" lon="3.03577">
        <ele>647</ele>
        <time>2014-01-30T14:56:53Z</time>
      </trkpt>
      <trkpt lat="44.16755" lon="3.03572">
        <ele>647</ele>
        <time>2014-01-30T14:56:57Z</time>
      </trkpt>
      <trkpt lat="44.16757" lon="3.03566">
        <ele>648</ele>
        <time>2014-01-30T14:57:00Z</time>
      </trkpt>
      <trkpt lat="44.1676" lon="3.03561">
        <ele>648</ele>
        <time>2014-01-30T14:57:04Z</time>
      </trkpt>
      <trkpt lat="44.16765" lon="3.03557">
        <ele>648</ele>
        <time>2014-01-30T14:57:09Z</time>
      </trkpt>
      <trkpt lat="44.16769" lon="3.03554">
        <ele>646</ele>
        <time>2014-01-30T14:57:13Z</time>
      </trkpt>
      <trkpt lat="44.16772" lon="3.03548">
        <ele>644</ele>
        <time>2014-01-30T14:57:18Z</time>
      </trkpt>
      <trkpt lat="44.16773" lon="3.03541">
        <ele>644</ele>
        <time>2014-01-30T14:57:22Z</time>
      </trkpt>
      <trkpt lat="44.16775" lon="3.03534">
        <ele>643</ele>
        <time>2014-01-30T14:57:28Z</time>
      </trkpt>
      <trkpt lat="44.1678" lon="3.0353">
        <ele>642</ele>
        <time>2014-01-30T14:57:33Z</time>
      </trkpt>
      <trkpt lat="44.16784" lon="3.03526">
        <ele>641</ele>
        <time>2014-01-30T14:57:38Z</time>
      </trkpt>
      <trkpt lat="44.1679" lon="3.03525">
        <ele>639</ele>
        <time>2014-01-30T14:57:42Z</time>
      </trkpt>
      <trkpt lat="44.16794" lon="3.03521">
        <ele>638</ele>
        <time>2014-01-30T14:57:46Z</time>
      </trkpt>
      <trkpt lat="44.16799" lon="3.03517">
        <ele>637</ele>
        <time>2014-01-30T14:57:50Z</time>
      </trkpt>
      <trkpt lat="44.16803" lon="3.03511">
        <ele>636</ele>
        <time>2014-01-30T14:57:54Z</time>
      </trkpt>
      <trkpt lat="44.16805" lon="3.03505">
        <ele>636</ele>
        <time>2014-01-30T14:57:58Z</time>
      </trkpt>
      <trkpt lat="44.16809" lon="3.03501">
        <ele>636</ele>
        <time>2014-01-30T14:58:02Z</time>
      </trkpt>
      <trkpt lat="44.16814" lon="3.03498">
        <ele>635</ele>
        <time>2014-01-30T14:58:06Z</time>
      </trkpt>
      <trkpt lat="44.16819" lon="3.03495">
        <ele>635</ele>
        <time>2014-01-30T14:58:10Z</time>
      </trkpt>
      <trkpt lat="44.16823" lon="3.0349">
        <ele>633</ele>
        <time>2014-01-30T14:58:14Z</time>
      </trkpt>
      <trkpt lat="44.16827" lon="3.03486">
        <ele>630</ele>
        <time>2014-01-30T14:58:20Z</time>
      </trkpt>
      <trkpt lat="44.1683" lon="3.03482">
        <ele>629</ele>
        <time>2014-01-30T14:58:24Z</time>
      </trkpt>
      <trkpt lat="44.16834" lon="3.03477">
        <ele>627</ele>
        <time>2014-01-30T14:58:27Z</time>
      </trkpt>
      <trkpt lat="44.16839" lon="3.03473">
        <ele>626</ele>
        <time>2014-01-30T14:58:30Z</time>
      </trkpt>
      <trkpt lat="44.16842" lon="3.03469">
        <ele>625</ele>
        <time>2014-01-30T14:58:32Z</time>
      </trkpt>
      <trkpt lat="44.16846" lon="3.03464">
        <ele>624</ele>
        <time>2014-01-30T14:58:35Z</time>
      </trkpt>
      <trkpt lat="44.16848" lon="3.03457">
        <ele>625</ele>
        <time>2014-01-30T14:58:39Z</time>
      </trkpt>
      <trkpt lat="44.16849" lon="3.03451">
        <ele>625</ele>
        <time>2014-01-30T14:58:43Z</time>
      </trkpt>
      <trkpt lat="44.16854" lon="3.03453">
        <ele>622</ele>
        <time>2014-01-30T14:58:49Z</time>
      </trkpt>
      <trkpt lat="44.16857" lon="3.03455">
        <ele>612</ele>
        <time>2014-01-30T14:59:10Z</time>
      </trkpt>
      <trkpt lat="44.16855" lon="3.03451">
        <ele>610</ele>
        <time>2014-01-30T14:59:51Z</time>
      </trkpt>
      <trkpt lat="44.16854" lon="3.03449">
        <ele>613</ele>
        <time>2014-01-30T15:00:47Z</time>
      </trkpt>
      <trkpt lat="44.16851" lon="3.03448">
        <ele>628</ele>
        <time>2014-01-30T15:01:11Z</time>
      </trkpt>
      <trkpt lat="44.16849" lon="3.03455">
        <ele>630</ele>
        <time>2014-01-30T15:01:16Z</time>
      </trkpt>
      <trkpt lat="44.16849" lon="3.03464">
        <ele>631</ele>
        <time>2014-01-30T15:01:26Z</time>
      </trkpt>
      <trkpt lat="44.16844" lon="3.03469">
        <ele>633</ele>
        <time>2014-01-30T15:01:31Z</time>
      </trkpt>
      <trkpt lat="44.16839" lon="3.03472">
        <ele>635</ele>
        <time>2014-01-30T15:01:34Z</time>
      </trkpt>
      <trkpt lat="44.16835" lon="3.03474">
        <ele>635</ele>
        <time>2014-01-30T15:01:40Z</time>
      </trkpt>
      <trkpt lat="44.16829" lon="3.03476">
        <ele>633</ele>
        <time>2014-01-30T15:01:44Z</time>
      </trkpt>
      <trkpt lat="44.16825" lon="3.03476">
        <ele>632</ele>
        <time>2014-01-30T15:01:46Z</time>
      </trkpt>
      <trkpt lat="44.1682" lon="3.03477">
        <ele>631</ele>
        <time>2014-01-30T15:01:49Z</time>
      </trkpt>
      <trkpt lat="44.16816" lon="3.0348">
        <ele>629</ele>
        <time>2014-01-30T15:01:52Z</time>
      </trkpt>
      <trkpt lat="44.16811" lon="3.03483">
        <ele>628</ele>
        <time>2014-01-30T15:01:55Z</time>
      </trkpt>
      <trkpt lat="44.16807" lon="3.03484">
        <ele>624</ele>
        <time>2014-01-30T15:02:02Z</time>
      </trkpt>
      <trkpt lat="44.16802" lon="3.03485">
        <ele>623</ele>
        <time>2014-01-30T15:02:06Z</time>
      </trkpt>
      <trkpt lat="44.16796" lon="3.03488">
        <ele>623</ele>
        <time>2014-01-30T15:02:09Z</time>
      </trkpt>
      <trkpt lat="44.1679" lon="3.03486">
        <ele>622</ele>
        <time>2014-01-30T15:02:13Z</time>
      </trkpt>
      <trkpt lat="44.16786" lon="3.03488">
        <ele>622</ele>
        <time>2014-01-30T15:02:18Z</time>
      </trkpt>
      <trkpt lat="44.16782" lon="3.03492">
        <ele>623</ele>
        <time>2014-01-30T15:02:23Z</time>
      </trkpt>
      <trkpt lat="44.16779" lon="3.03499">
        <ele>621</ele>
        <time>2014-01-30T15:02:27Z</time>
      </trkpt>
      <trkpt lat="44.16777" lon="3.03506">
        <ele>621</ele>
        <time>2014-01-30T15:02:31Z</time>
      </trkpt>
      <trkpt lat="44.16782" lon="3.03516">
        <ele>620</ele>
        <time>2014-01-30T15:02:36Z</time>
      </trkpt>
      <trkpt lat="44.16778" lon="3.0352">
        <ele>621</ele>
        <time>2014-01-30T15:02:40Z</time>
      </trkpt>
      <trkpt lat="44.16773" lon="3.03522">
        <ele>621</ele>
        <time>2014-01-30T15:02:42Z</time>
      </trkpt>
      <trkpt lat="44.16768" lon="3.03524">
        <ele>622</ele>
        <time>2014-01-30T15:02:45Z</time>
      </trkpt>
      <trkpt lat="44.16763" lon="3.03523">
        <ele>623</ele>
        <time>2014-01-30T15:02:49Z</time>
      </trkpt>
      <trkpt lat="44.16758" lon="3.03522">
        <ele>623</ele>
        <time>2014-01-30T15:02:52Z</time>
      </trkpt>
      <trkpt lat="44.16748" lon="3.03522">
        <ele>624</ele>
        <time>2014-01-30T15:02:57Z</time>
      </trkpt>
      <trkpt lat="44.16739" lon="3.03521">
        <ele>624</ele>
        <time>2014-01-30T15:03:01Z</time>
      </trkpt>
      <trkpt lat="44.16734" lon="3.03524">
        <ele>625</ele>
        <time>2014-01-30T15:03:04Z</time>
      </trkpt>
      <trkpt lat="44.1673" lon="3.03528">
        <ele>625</ele>
        <time>2014-01-30T15:03:08Z</time>
      </trkpt>
      <trkpt lat="44.16725" lon="3.03531">
        <ele>626</ele>
        <time>2014-01-30T15:03:12Z</time>
      </trkpt>
      <trkpt lat="44.16721" lon="3.03537">
        <ele>626</ele>
        <time>2014-01-30T15:03:15Z</time>
      </trkpt>
      <trkpt lat="44.16718" lon="3.03541">
        <ele>626</ele>
        <time>2014-01-30T15:03:19Z</time>
      </trkpt>
      <trkpt lat="44.16714" lon="3.03546">
        <ele>627</ele>
        <time>2014-01-30T15:03:22Z</time>
      </trkpt>
      <trkpt lat="44.1671" lon="3.03546">
        <ele>628</ele>
        <time>2014-01-30T15:03:25Z</time>
      </trkpt>
      <trkpt lat="44.16704" lon="3.0354">
        <ele>628</ele>
        <time>2014-01-30T15:03:28Z</time>
      </trkpt>
      <trkpt lat="44.16698" lon="3.03537">
        <ele>627</ele>
        <time>2014-01-30T15:03:31Z</time>
      </trkpt>
      <trkpt lat="44.16694" lon="3.03537">
        <ele>625</ele>
        <time>2014-01-30T15:03:34Z</time>
      </trkpt>
      <trkpt lat="44.16688" lon="3.03535">
        <ele>624</ele>
        <time>2014-01-30T15:03:37Z</time>
      </trkpt>
      <trkpt lat="44.16682" lon="3.03531">
        <ele>622</ele>
        <time>2014-01-30T15:03:40Z</time>
      </trkpt>
      <trkpt lat="44.16677" lon="3.0353">
        <ele>621</ele>
        <time>2014-01-30T15:03:43Z</time>
      </trkpt>
      <trkpt lat="44.16672" lon="3.03528">
        <ele>619</ele>
        <time>2014-01-30T15:03:48Z</time>
      </trkpt>
      <trkpt lat="44.16667" lon="3.03524">
        <ele>618</ele>
        <time>2014-01-30T15:03:53Z</time>
      </trkpt>
      <trkpt lat="44.1666" lon="3.03519">
        <ele>616</ele>
        <time>2014-01-30T15:03:59Z</time>
      </trkpt>
      <trkpt lat="44.16656" lon="3.03515">
        <ele>613</ele>
        <time>2014-01-30T15:04:05Z</time>
      </trkpt>
      <trkpt lat="44.1665" lon="3.03516">
        <ele>612</ele>
        <time>2014-01-30T15:04:10Z</time>
      </trkpt>
      <trkpt lat="44.16645" lon="3.03516">
        <ele>612</ele>
        <time>2014-01-30T15:04:15Z</time>
      </trkpt>
      <trkpt lat="44.1664" lon="3.03517">
        <ele>612</ele>
        <time>2014-01-30T15:04:21Z</time>
      </trkpt>
      <trkpt lat="44.16635" lon="3.03516">
        <ele>611</ele>
        <time>2014-01-30T15:04:26Z</time>
      </trkpt>
      <trkpt lat="44.1663" lon="3.03514">
        <ele>608</ele>
        <time>2014-01-30T15:04:30Z</time>
      </trkpt>
      <trkpt lat="44.16611" lon="3.03505">
        <ele>600</ele>
        <time>2014-01-30T15:04:50Z</time>
      </trkpt>
      <trkpt lat="44.16606" lon="3.03508">
        <ele>598</ele>
        <time>2014-01-30T15:04:56Z</time>
      </trkpt>
      <trkpt lat="44.16601" lon="3.0351">
        <ele>596</ele>
        <time>2014-01-30T15:05:04Z</time>
      </trkpt>
      <trkpt lat="44.16597" lon="3.03504">
        <ele>597</ele>
        <time>2014-01-30T15:05:11Z</time>
      </trkpt>
      <trkpt lat="44.16594" lon="3.03499">
        <ele>598</ele>
        <time>2014-01-30T15:05:14Z</time>
      </trkpt>
      <trkpt lat="44.1659" lon="3.03494">
        <ele>599</ele>
        <time>2014-01-30T15:05:17Z</time>
      </trkpt>
      <trkpt lat="44.16586" lon="3.03488">
        <ele>599</ele>
        <time>2014-01-30T15:05:21Z</time>
      </trkpt>
      <trkpt lat="44.16582" lon="3.03485">
        <ele>599</ele>
        <time>2014-01-30T15:05:24Z</time>
      </trkpt>
      <trkpt lat="44.16577" lon="3.03483">
        <ele>599</ele>
        <time>2014-01-30T15:05:27Z</time>
      </trkpt>
      <trkpt lat="44.16573" lon="3.03486">
        <ele>598</ele>
        <time>2014-01-30T15:05:32Z</time>
      </trkpt>
      <trkpt lat="44.16567" lon="3.03484">
        <ele>597</ele>
        <time>2014-01-30T15:05:36Z</time>
      </trkpt>
      <trkpt lat="44.16562" lon="3.03483">
        <ele>596</ele>
        <time>2014-01-30T15:05:39Z</time>
      </trkpt>
      <trkpt lat="44.16558" lon="3.03479">
        <ele>594</ele>
        <time>2014-01-30T15:05:43Z</time>
      </trkpt>
      <trkpt lat="44.16558" lon="3.03475">
        <ele>593</ele>
        <time>2014-01-30T15:05:52Z</time>
      </trkpt>
      <trkpt lat="44.16553" lon="3.03474">
        <ele>592</ele>
        <time>2014-01-30T15:05:56Z</time>
      </trkpt>
      <trkpt lat="44.16553" lon="3.0347">
        <ele>592</ele>
        <time>2014-01-30T15:06:02Z</time>
      </trkpt>
      <trkpt lat="44.16548" lon="3.03474">
        <ele>591</ele>
        <time>2014-01-30T15:06:08Z</time>
      </trkpt>
      <trkpt lat="44.16542" lon="3.03474">
        <ele>590</ele>
        <time>2014-01-30T15:06:19Z</time>
      </trkpt>
      <trkpt lat="44.16537" lon="3.03472">
        <ele>589</ele>
        <time>2014-01-30T15:06:23Z</time>
      </trkpt>
      <trkpt lat="44.16533" lon="3.0347">
        <ele>589</ele>
        <time>2014-01-30T15:06:28Z</time>
      </trkpt>
      <trkpt lat="44.16528" lon="3.03469">
        <ele>588</ele>
        <time>2014-01-30T15:06:32Z</time>
      </trkpt>
      <trkpt lat="44.16522" lon="3.03467">
        <ele>587</ele>
        <time>2014-01-30T15:06:36Z</time>
      </trkpt>
      <trkpt lat="44.16517" lon="3.03464">
        <ele>586</ele>
        <time>2014-01-30T15:06:40Z</time>
      </trkpt>
      <trkpt lat="44.16512" lon="3.0346">
        <ele>585</ele>
        <time>2014-01-30T15:06:44Z</time>
      </trkpt>
      <trkpt lat="44.16508" lon="3.03453">
        <ele>585</ele>
        <time>2014-01-30T15:06:49Z</time>
      </trkpt>
      <trkpt lat="44.16505" lon="3.03447">
        <ele>584</ele>
        <time>2014-01-30T15:06:55Z</time>
      </trkpt>
      <trkpt lat="44.16501" lon="3.03441">
        <ele>584</ele>
        <time>2014-01-30T15:06:59Z</time>
      </trkpt>
      <trkpt lat="44.16497" lon="3.03436">
        <ele>585</ele>
        <time>2014-01-30T15:07:04Z</time>
      </trkpt>
      <trkpt lat="44.16492" lon="3.03432">
        <ele>585</ele>
        <time>2014-01-30T15:07:08Z</time>
      </trkpt>
      <trkpt lat="44.16487" lon="3.03426">
        <ele>587</ele>
        <time>2014-01-30T15:07:12Z</time>
      </trkpt>
      <trkpt lat="44.16483" lon="3.03422">
        <ele>588</ele>
        <time>2014-01-30T15:07:15Z</time>
      </trkpt>
      <trkpt lat="44.16478" lon="3.03418">
        <ele>590</ele>
        <time>2014-01-30T15:07:18Z</time>
      </trkpt>
      <trkpt lat="44.16473" lon="3.03414">
        <ele>593</ele>
        <time>2014-01-30T15:07:21Z</time>
      </trkpt>
      <trkpt lat="44.16469" lon="3.0341">
        <ele>595</ele>
        <time>2014-01-30T15:07:23Z</time>
      </trkpt>
      <trkpt lat="44.16465" lon="3.03405">
        <ele>597</ele>
        <time>2014-01-30T15:07:28Z</time>
      </trkpt>
      <trkpt lat="44.16462" lon="3.034">
        <ele>596</ele>
        <time>2014-01-30T15:07:34Z</time>
      </trkpt>
      <trkpt lat="44.16457" lon="3.03399">
        <ele>595</ele>
        <time>2014-01-30T15:07:38Z</time>
      </trkpt>
      <trkpt lat="44.16452" lon="3.03395">
        <ele>595</ele>
        <time>2014-01-30T15:07:42Z</time>
      </trkpt>
      <trkpt lat="44.16447" lon="3.03393">
        <ele>594</ele>
        <time>2014-01-30T15:07:47Z</time>
      </trkpt>
      <trkpt lat="44.16444" lon="3.03389">
        <ele>593</ele>
        <time>2014-01-30T15:07:52Z</time>
      </trkpt>
      <trkpt lat="44.16438" lon="3.03387">
        <ele>590</ele>
        <time>2014-01-30T15:07:58Z</time>
      </trkpt>
      <trkpt lat="44.16433" lon="3.03388">
        <ele>589</ele>
        <time>2014-01-30T15:08:01Z</time>
      </trkpt>
      <trkpt lat="44.16429" lon="3.03386">
        <ele>588</ele>
        <time>2014-01-30T15:08:04Z</time>
      </trkpt>
      <trkpt lat="44.16423" lon="3.03383">
        <ele>587</ele>
        <time>2014-01-30T15:08:07Z</time>
      </trkpt>
      <trkpt lat="44.16418" lon="3.0338">
        <ele>586</ele>
        <time>2014-01-30T15:08:10Z</time>
      </trkpt>
      <trkpt lat="44.16412" lon="3.03375">
        <ele>585</ele>
        <time>2014-01-30T15:08:14Z</time>
      </trkpt>
      <trkpt lat="44.16407" lon="3.03374">
        <ele>583</ele>
        <time>2014-01-30T15:08:19Z</time>
      </trkpt>
      <trkpt lat="44.16402" lon="3.03372">
        <ele>583</ele>
        <time>2014-01-30T15:08:23Z</time>
      </trkpt>
      <trkpt lat="44.16397" lon="3.03369">
        <ele>583</ele>
        <time>2014-01-30T15:08:28Z</time>
      </trkpt>
      <trkpt lat="44.16393" lon="3.03363">
        <ele>584</ele>
        <time>2014-01-30T15:08:32Z</time>
      </trkpt>
      <trkpt lat="44.16389" lon="3.03359">
        <ele>584</ele>
        <time>2014-01-30T15:08:37Z</time>
      </trkpt>
      <trkpt lat="44.16384" lon="3.03354">
        <ele>584</ele>
        <time>2014-01-30T15:08:41Z</time>
      </trkpt>
      <trkpt lat="44.16381" lon="3.03349">
        <ele>585</ele>
        <time>2014-01-30T15:08:46Z</time>
      </trkpt>
      <trkpt lat="44.16377" lon="3.03343">
        <ele>587</ele>
        <time>2014-01-30T15:08:50Z</time>
      </trkpt>
      <trkpt lat="44.16373" lon="3.03339">
        <ele>589</ele>
        <time>2014-01-30T15:08:58Z</time>
      </trkpt>
      <trkpt lat="44.1637" lon="3.03335">
        <ele>589</ele>
        <time>2014-01-30T15:09:02Z</time>
      </trkpt>
      <trkpt lat="44.16365" lon="3.03331">
        <ele>589</ele>
        <time>2014-01-30T15:09:06Z</time>
      </trkpt>
      <trkpt lat="44.16361" lon="3.03325">
        <ele>589</ele>
        <time>2014-01-30T15:09:09Z</time>
      </trkpt>
      <trkpt lat="44.16357" lon="3.03321">
        <ele>586</ele>
        <time>2014-01-30T15:09:15Z</time>
      </trkpt>
      <trkpt lat="44.16353" lon="3.03317">
        <ele>585</ele>
        <time>2014-01-30T15:09:18Z</time>
      </trkpt>
      <trkpt lat="44.1635" lon="3.03312">
        <ele>583</ele>
        <time>2014-01-30T15:09:21Z</time>
      </trkpt>
      <trkpt lat="44.16346" lon="3.03307">
        <ele>582</ele>
        <time>2014-01-30T15:09:25Z</time>
      </trkpt>
      <trkpt lat="44.1634" lon="3.03306">
        <ele>581</ele>
        <time>2014-01-30T15:09:28Z</time>
      </trkpt>
      <trkpt lat="44.16336" lon="3.033">
        <ele>581</ele>
        <time>2014-01-30T15:09:32Z</time>
      </trkpt>
      <trkpt lat="44.16333" lon="3.03295">
        <ele>582</ele>
        <time>2014-01-30T15:09:35Z</time>
      </trkpt>
      <trkpt lat="44.16328" lon="3.03288">
        <ele>582</ele>
        <time>2014-01-30T15:09:38Z</time>
      </trkpt>
      <trkpt lat="44.16324" lon="3.03285">
        <ele>583</ele>
        <time>2014-01-30T15:09:42Z</time>
      </trkpt>
      <trkpt lat="44.16319" lon="3.03283">
        <ele>583</ele>
        <time>2014-01-30T15:09:47Z</time>
      </trkpt>
      <trkpt lat="44.16317" lon="3.03283">
        <ele>582</ele>
        <time>2014-01-30T15:09:54Z</time>
      </trkpt>
      <trkpt lat="44.16312" lon="3.03278">
        <ele>582</ele>
        <time>2014-01-30T15:09:59Z</time>
      </trkpt>
      <trkpt lat="44.16307" lon="3.03274">
        <ele>583</ele>
        <time>2014-01-30T15:10:02Z</time>
      </trkpt>
      <trkpt lat="44.16302" lon="3.03272">
        <ele>584</ele>
        <time>2014-01-30T15:10:05Z</time>
      </trkpt>
      <trkpt lat="44.16298" lon="3.03269">
        <ele>583</ele>
        <time>2014-01-30T15:10:10Z</time>
      </trkpt>
      <trkpt lat="44.16293" lon="3.03266">
        <ele>582</ele>
        <time>2014-01-30T15:10:14Z</time>
      </trkpt>
      <trkpt lat="44.16289" lon="3.03263">
        <ele>581</ele>
        <time>2014-01-30T15:10:19Z</time>
      </trkpt>
      <trkpt lat="44.16284" lon="3.03258">
        <ele>580</ele>
        <time>2014-01-30T15:10:22Z</time>
      </trkpt>
      <trkpt lat="44.16279" lon="3.03253">
        <ele>580</ele>
        <time>2014-01-30T15:10:25Z</time>
      </trkpt>
      <trkpt lat="44.16274" lon="3.03249">
        <ele>578</ele>
        <time>2014-01-30T15:10:30Z</time>
      </trkpt>
      <trkpt lat="44.16269" lon="3.03247">
        <ele>578</ele>
        <time>2014-01-30T15:10:34Z</time>
      </trkpt>
      <trkpt lat="44.16264" lon="3.03245">
        <ele>579</ele>
        <time>2014-01-30T15:10:38Z</time>
      </trkpt>
      <trkpt lat="44.16259" lon="3.03244">
        <ele>580</ele>
        <time>2014-01-30T15:10:43Z</time>
      </trkpt>
      <trkpt lat="44.16255" lon="3.03246">
        <ele>581</ele>
        <time>2014-01-30T15:10:49Z</time>
      </trkpt>
      <trkpt lat="44.16249" lon="3.0325">
        <ele>582</ele>
        <time>2014-01-30T15:10:55Z</time>
      </trkpt>
      <trkpt lat="44.16244" lon="3.0325">
        <ele>584</ele>
        <time>2014-01-30T15:10:58Z</time>
      </trkpt>
      <trkpt lat="44.16239" lon="3.03248">
        <ele>585</ele>
        <time>2014-01-30T15:11:01Z</time>
      </trkpt>
      <trkpt lat="44.16234" lon="3.03247">
        <ele>587</ele>
        <time>2014-01-30T15:11:05Z</time>
      </trkpt>
      <trkpt lat="44.16228" lon="3.03248">
        <ele>586</ele>
        <time>2014-01-30T15:11:15Z</time>
      </trkpt>
      <trkpt lat="44.16222" lon="3.03248">
        <ele>585</ele>
        <time>2014-01-30T15:11:18Z</time>
      </trkpt>
      <trkpt lat="44.16218" lon="3.03253">
        <ele>584</ele>
        <time>2014-01-30T15:11:22Z</time>
      </trkpt>
      <trkpt lat="44.16214" lon="3.03257">
        <ele>583</ele>
        <time>2014-01-30T15:11:26Z</time>
      </trkpt>
      <trkpt lat="44.16209" lon="3.03254">
        <ele>581</ele>
        <time>2014-01-30T15:11:30Z</time>
      </trkpt>
      <trkpt lat="44.16204" lon="3.03256">
        <ele>580</ele>
        <time>2014-01-30T15:11:33Z</time>
      </trkpt>
      <trkpt lat="44.16196" lon="3.03261">
        <ele>579</ele>
        <time>2014-01-30T15:11:39Z</time>
      </trkpt>
      <trkpt lat="44.16192" lon="3.03265">
        <ele>578</ele>
        <time>2014-01-30T15:11:42Z</time>
      </trkpt>
      <trkpt lat="44.16189" lon="3.03269">
        <ele>578</ele>
        <time>2014-01-30T15:11:46Z</time>
      </trkpt>
      <trkpt lat="44.16185" lon="3.03271">
        <ele>577</ele>
        <time>2014-01-30T15:11:50Z</time>
      </trkpt>
      <trkpt lat="44.16181" lon="3.03275">
        <ele>577</ele>
        <time>2014-01-30T15:11:55Z</time>
      </trkpt>
      <trkpt lat="44.16177" lon="3.0328">
        <ele>576</ele>
        <time>2014-01-30T15:12:01Z</time>
      </trkpt>
      <trkpt lat="44.16174" lon="3.03284">
        <ele>576</ele>
        <time>2014-01-30T15:12:05Z</time>
      </trkpt>
      <trkpt lat="44.16171" lon="3.0329">
        <ele>576</ele>
        <time>2014-01-30T15:12:10Z</time>
      </trkpt>
      <trkpt lat="44.16167" lon="3.03294">
        <ele>577</ele>
        <time>2014-01-30T15:12:16Z</time>
      </trkpt>
      <trkpt lat="44.16162" lon="3.03295">
        <ele>577</ele>
        <time>2014-01-30T15:12:22Z</time>
      </trkpt>
      <trkpt lat="44.16158" lon="3.03299">
        <ele>578</ele>
        <time>2014-01-30T15:12:29Z</time>
      </trkpt>
      <trkpt lat="44.16153" lon="3.03304">
        <ele>581</ele>
        <time>2014-01-30T15:12:34Z</time>
      </trkpt>
      <trkpt lat="44.16149" lon="3.03309">
        <ele>581</ele>
        <time>2014-01-30T15:12:38Z</time>
      </trkpt>
      <trkpt lat="44.16145" lon="3.03311">
        <ele>580</ele>
        <time>2014-01-30T15:12:41Z</time>
      </trkpt>
      <trkpt lat="44.16137" lon="3.03317">
        <ele>577</ele>
        <time>2014-01-30T15:12:52Z</time>
      </trkpt>
      <trkpt lat="44.16134" lon="3.03324">
        <ele>576</ele>
        <time>2014-01-30T15:12:55Z</time>
      </trkpt>
      <trkpt lat="44.16131" lon="3.03332">
        <ele>578</ele>
        <time>2014-01-30T15:12:58Z</time>
      </trkpt>
      <trkpt lat="44.16129" lon="3.03338">
        <ele>578</ele>
        <time>2014-01-30T15:13:01Z</time>
      </trkpt>
      <trkpt lat="44.16125" lon="3.03343">
        <ele>579</ele>
        <time>2014-01-30T15:13:05Z</time>
      </trkpt>
      <trkpt lat="44.1612" lon="3.03342">
        <ele>578</ele>
        <time>2014-01-30T15:13:11Z</time>
      </trkpt>
      <trkpt lat="44.16115" lon="3.03345">
        <ele>578</ele>
        <time>2014-01-30T15:13:16Z</time>
      </trkpt>
      <trkpt lat="44.1611" lon="3.03346">
        <ele>578</ele>
        <time>2014-01-30T15:13:22Z</time>
      </trkpt>
      <trkpt lat="44.16105" lon="3.03348">
        <ele>578</ele>
        <time>2014-01-30T15:13:27Z</time>
      </trkpt>
      <trkpt lat="44.16101" lon="3.03351">
        <ele>578</ele>
        <time>2014-01-30T15:13:33Z</time>
      </trkpt>
      <trkpt lat="44.16096" lon="3.03354">
        <ele>579</ele>
        <time>2014-01-30T15:13:38Z</time>
      </trkpt>
      <trkpt lat="44.16092" lon="3.03358">
        <ele>579</ele>
        <time>2014-01-30T15:13:42Z</time>
      </trkpt>
      <trkpt lat="44.16087" lon="3.03363">
        <ele>579</ele>
        <time>2014-01-30T15:13:46Z</time>
      </trkpt>
      <trkpt lat="44.16084" lon="3.03369">
        <ele>580</ele>
        <time>2014-01-30T15:13:50Z</time>
      </trkpt>
      <trkpt lat="44.1608" lon="3.03373">
        <ele>580</ele>
        <time>2014-01-30T15:13:55Z</time>
      </trkpt>
      <trkpt lat="44.16075" lon="3.03372">
        <ele>580</ele>
        <time>2014-01-30T15:14:01Z</time>
      </trkpt>
      <trkpt lat="44.1607" lon="3.0337">
        <ele>579</ele>
        <time>2014-01-30T15:14:06Z</time>
      </trkpt>
      <trkpt lat="44.16067" lon="3.03375">
        <ele>578</ele>
        <time>2014-01-30T15:14:11Z</time>
      </trkpt>
      <trkpt lat="44.16061" lon="3.03377">
        <ele>577</ele>
        <time>2014-01-30T15:14:18Z</time>
      </trkpt>
      <trkpt lat="44.16057" lon="3.0338">
        <ele>578</ele>
        <time>2014-01-30T15:14:22Z</time>
      </trkpt>
      <trkpt lat="44.16054" lon="3.03384">
        <ele>578</ele>
        <time>2014-01-30T15:14:26Z</time>
      </trkpt>
      <trkpt lat="44.1605" lon="3.03388">
        <ele>578</ele>
        <time>2014-01-30T15:14:30Z</time>
      </trkpt>
      <trkpt lat="44.16045" lon="3.03392">
        <ele>578</ele>
        <time>2014-01-30T15:14:35Z</time>
      </trkpt>
      <trkpt lat="44.16042" lon="3.03398">
        <ele>578</ele>
        <time>2014-01-30T15:14:39Z</time>
      </trkpt>
      <trkpt lat="44.16038" lon="3.034">
        <ele>578</ele>
        <time>2014-01-30T15:14:45Z</time>
      </trkpt>
      <trkpt lat="44.16033" lon="3.03404">
        <ele>576</ele>
        <time>2014-01-30T15:14:49Z</time>
      </trkpt>
      <trkpt lat="44.16028" lon="3.0341">
        <ele>577</ele>
        <time>2014-01-30T15:14:53Z</time>
      </trkpt>
      <trkpt lat="44.16024" lon="3.03411">
        <ele>576</ele>
        <time>2014-01-30T15:14:58Z</time>
      </trkpt>
      <trkpt lat="44.16019" lon="3.03411">
        <ele>576</ele>
        <time>2014-01-30T15:15:02Z</time>
      </trkpt>
      <trkpt lat="44.16015" lon="3.03412">
        <ele>575</ele>
        <time>2014-01-30T15:15:06Z</time>
      </trkpt>
      <trkpt lat="44.1601" lon="3.0341">
        <ele>572</ele>
        <time>2014-01-30T15:15:14Z</time>
      </trkpt>
      <trkpt lat="44.16006" lon="3.03414">
        <ele>571</ele>
        <time>2014-01-30T15:15:19Z</time>
      </trkpt>
      <trkpt lat="44.16003" lon="3.03419">
        <ele>569</ele>
        <time>2014-01-30T15:15:24Z</time>
      </trkpt>
      <trkpt lat="44.15999" lon="3.03425">
        <ele>567</ele>
        <time>2014-01-30T15:15:29Z</time>
      </trkpt>
      <trkpt lat="44.15997" lon="3.03431">
        <ele>567</ele>
        <time>2014-01-30T15:15:32Z</time>
      </trkpt>
      <trkpt lat="44.15993" lon="3.03436">
        <ele>567</ele>
        <time>2014-01-30T15:15:36Z</time>
      </trkpt>
      <trkpt lat="44.15989" lon="3.0344">
        <ele>567</ele>
        <time>2014-01-30T15:15:41Z</time>
      </trkpt>
      <trkpt lat="44.15986" lon="3.03446">
        <ele>568</ele>
        <time>2014-01-30T15:15:45Z</time>
      </trkpt>
      <trkpt lat="44.15981" lon="3.0345">
        <ele>567</ele>
        <time>2014-01-30T15:15:50Z</time>
      </trkpt>
      <trkpt lat="44.15977" lon="3.03455">
        <ele>566</ele>
        <time>2014-01-30T15:15:54Z</time>
      </trkpt>
      <trkpt lat="44.15973" lon="3.03459">
        <ele>566</ele>
        <time>2014-01-30T15:15:57Z</time>
      </trkpt>
      <trkpt lat="44.1597" lon="3.03463">
        <ele>566</ele>
        <time>2014-01-30T15:16:01Z</time>
      </trkpt>
      <trkpt lat="44.15966" lon="3.03468">
        <ele>566</ele>
        <time>2014-01-30T15:16:05Z</time>
      </trkpt>
      <trkpt lat="44.15961" lon="3.03471">
        <ele>566</ele>
        <time>2014-01-30T15:16:10Z</time>
      </trkpt>
      <trkpt lat="44.15958" lon="3.03477">
        <ele>568</ele>
        <time>2014-01-30T15:16:13Z</time>
      </trkpt>
      <trkpt lat="44.15954" lon="3.03482">
        <ele>569</ele>
        <time>2014-01-30T15:16:16Z</time>
      </trkpt>
      <trkpt lat="44.15949" lon="3.03484">
        <ele>569</ele>
        <time>2014-01-30T15:16:19Z</time>
      </trkpt>
      <trkpt lat="44.15943" lon="3.03483">
        <ele>571</ele>
        <time>2014-01-30T15:16:23Z</time>
      </trkpt>
      <trkpt lat="44.15938" lon="3.03482">
        <ele>572</ele>
        <time>2014-01-30T15:16:26Z</time>
      </trkpt>
      <trkpt lat="44.15934" lon="3.03477">
        <ele>572</ele>
        <time>2014-01-30T15:16:29Z</time>
      </trkpt>
      <trkpt lat="44.15931" lon="3.03471">
        <ele>571</ele>
        <time>2014-01-30T15:16:33Z</time>
      </trkpt>
      <trkpt lat="44.1593" lon="3.03466">
        <ele>569</ele>
        <time>2014-01-30T15:17:30Z</time>
      </trkpt>
      <trkpt lat="44.15929" lon="3.03463">
        <ele>570</ele>
        <time>2014-01-30T15:17:48Z</time>
      </trkpt>
      <trkpt lat="44.15924" lon="3.03461">
        <ele>570</ele>
        <time>2014-01-30T15:17:56Z</time>
      </trkpt>
      <trkpt lat="44.15926" lon="3.03458">
        <ele>570</ele>
        <time>2014-01-30T15:18:28Z</time>
      </trkpt>
      <trkpt lat="44.15926" lon="3.03457">
        <ele>573</ele>
        <time>2014-01-30T15:19:44Z</time>
      </trkpt>
      <trkpt lat="44.15922" lon="3.03454">
        <ele>574</ele>
        <time>2014-01-30T15:19:54Z</time>
      </trkpt>
      <trkpt lat="44.15919" lon="3.03448">
        <ele>577</ele>
        <time>2014-01-30T15:20:01Z</time>
      </trkpt>
      <trkpt lat="44.15915" lon="3.03442">
        <ele>577</ele>
        <time>2014-01-30T15:20:06Z</time>
      </trkpt>
      <trkpt lat="44.15911" lon="3.03436">
        <ele>577</ele>
        <time>2014-01-30T15:20:11Z</time>
      </trkpt>
      <trkpt lat="44.15907" lon="3.03434">
        <ele>578</ele>
        <time>2014-01-30T15:20:15Z</time>
      </trkpt>
      <trkpt lat="44.15902" lon="3.03433">
        <ele>580</ele>
        <time>2014-01-30T15:20:21Z</time>
      </trkpt>
      <trkpt lat="44.15898" lon="3.03438">
        <ele>580</ele>
        <time>2014-01-30T15:20:25Z</time>
      </trkpt>
      <trkpt lat="44.15898" lon="3.03444">
        <ele>581</ele>
        <time>2014-01-30T15:20:30Z</time>
      </trkpt>
      <trkpt lat="44.15896" lon="3.03451">
        <ele>581</ele>
        <time>2014-01-30T15:20:36Z</time>
      </trkpt>
      <trkpt lat="44.15893" lon="3.03456">
        <ele>582</ele>
        <time>2014-01-30T15:20:43Z</time>
      </trkpt>
      <trkpt lat="44.15889" lon="3.0346">
        <ele>583</ele>
        <time>2014-01-30T15:20:47Z</time>
      </trkpt>
      <trkpt lat="44.15886" lon="3.03464">
        <ele>583</ele>
        <time>2014-01-30T15:20:51Z</time>
      </trkpt>
      <trkpt lat="44.1588" lon="3.03465">
        <ele>583</ele>
        <time>2014-01-30T15:20:56Z</time>
      </trkpt>
      <trkpt lat="44.15876" lon="3.03467">
        <ele>583</ele>
        <time>2014-01-30T15:20:59Z</time>
      </trkpt>
      <trkpt lat="44.15872" lon="3.03472">
        <ele>583</ele>
        <time>2014-01-30T15:21:02Z</time>
      </trkpt>
      <trkpt lat="44.15869" lon="3.03477">
        <ele>583</ele>
        <time>2014-01-30T15:21:06Z</time>
      </trkpt>
      <trkpt lat="44.15868" lon="3.03483">
        <ele>583</ele>
        <time>2014-01-30T15:21:10Z</time>
      </trkpt>
      <trkpt lat="44.15864" lon="3.03486">
        <ele>582</ele>
        <time>2014-01-30T15:21:14Z</time>
      </trkpt>
      <trkpt lat="44.15861" lon="3.03491">
        <ele>581</ele>
        <time>2014-01-30T15:21:17Z</time>
      </trkpt>
      <trkpt lat="44.15858" lon="3.03497">
        <ele>581</ele>
        <time>2014-01-30T15:21:19Z</time>
      </trkpt>
      <trkpt lat="44.15856" lon="3.03503">
        <ele>581</ele>
        <time>2014-01-30T15:21:21Z</time>
      </trkpt>
      <trkpt lat="44.15853" lon="3.03509">
        <ele>581</ele>
        <time>2014-01-30T15:21:25Z</time>
      </trkpt>
      <trkpt lat="44.1585" lon="3.03514">
        <ele>582</ele>
        <time>2014-01-30T15:21:29Z</time>
      </trkpt>
      <trkpt lat="44.15847" lon="3.03519">
        <ele>583</ele>
        <time>2014-01-30T15:21:32Z</time>
      </trkpt>
      <trkpt lat="44.15842" lon="3.03522">
        <ele>584</ele>
        <time>2014-01-30T15:21:37Z</time>
      </trkpt>
      <trkpt lat="44.15839" lon="3.03529">
        <ele>585</ele>
        <time>2014-01-30T15:21:40Z</time>
      </trkpt>
      <trkpt lat="44.15835" lon="3.03533">
        <ele>587</ele>
        <time>2014-01-30T15:21:44Z</time>
      </trkpt>
      <trkpt lat="44.1583" lon="3.03535">
        <ele>588</ele>
        <time>2014-01-30T15:21:49Z</time>
      </trkpt>
      <trkpt lat="44.15825" lon="3.03536">
        <ele>589</ele>
        <time>2014-01-30T15:21:53Z</time>
      </trkpt>
      <trkpt lat="44.1582" lon="3.03536">
        <ele>588</ele>
        <time>2014-01-30T15:21:57Z</time>
      </trkpt>
      <trkpt lat="44.15815" lon="3.03537">
        <ele>588</ele>
        <time>2014-01-30T15:22:00Z</time>
      </trkpt>
      <trkpt lat="44.1581" lon="3.03539">
        <ele>589</ele>
        <time>2014-01-30T15:22:04Z</time>
      </trkpt>
      <trkpt lat="44.15805" lon="3.03541">
        <ele>590</ele>
        <time>2014-01-30T15:22:08Z</time>
      </trkpt>
      <trkpt lat="44.15798" lon="3.03539">
        <ele>589</ele>
        <time>2014-01-30T15:22:13Z</time>
      </trkpt>
      <trkpt lat="44.15793" lon="3.03537">
        <ele>589</ele>
        <time>2014-01-30T15:22:16Z</time>
      </trkpt>
      <trkpt lat="44.15788" lon="3.03538">
        <ele>589</ele>
        <time>2014-01-30T15:22:19Z</time>
      </trkpt>
      <trkpt lat="44.15786" lon="3.03545">
        <ele>590</ele>
        <time>2014-01-30T15:22:22Z</time>
      </trkpt>
      <trkpt lat="44.15782" lon="3.03551">
        <ele>592</ele>
        <time>2014-01-30T15:22:26Z</time>
      </trkpt>
      <trkpt lat="44.15777" lon="3.03551">
        <ele>592</ele>
        <time>2014-01-30T15:22:29Z</time>
      </trkpt>
      <trkpt lat="44.15771" lon="3.0355">
        <ele>592</ele>
        <time>2014-01-30T15:22:32Z</time>
      </trkpt>
      <trkpt lat="44.15766" lon="3.03548">
        <ele>592</ele>
        <time>2014-01-30T15:22:35Z</time>
      </trkpt>
      <trkpt lat="44.15762" lon="3.03546">
        <ele>591</ele>
        <time>2014-01-30T15:22:38Z</time>
      </trkpt>
      <trkpt lat="44.15757" lon="3.03544">
        <ele>590</ele>
        <time>2014-01-30T15:22:44Z</time>
      </trkpt>
      <trkpt lat="44.15752" lon="3.03544">
        <ele>588</ele>
        <time>2014-01-30T15:22:48Z</time>
      </trkpt>
      <trkpt lat="44.15747" lon="3.03544">
        <ele>586</ele>
        <time>2014-01-30T15:22:51Z</time>
      </trkpt>
      <trkpt lat="44.15742" lon="3.03543">
        <ele>585</ele>
        <time>2014-01-30T15:22:54Z</time>
      </trkpt>
      <trkpt lat="44.15737" lon="3.03544">
        <ele>585</ele>
        <time>2014-01-30T15:23:00Z</time>
      </trkpt>
      <trkpt lat="44.15732" lon="3.03545">
        <ele>586</ele>
        <time>2014-01-30T15:23:04Z</time>
      </trkpt>
      <trkpt lat="44.15727" lon="3.03543">
        <ele>586</ele>
        <time>2014-01-30T15:23:09Z</time>
      </trkpt>
      <trkpt lat="44.15722" lon="3.03545">
        <ele>587</ele>
        <time>2014-01-30T15:23:13Z</time>
      </trkpt>
      <trkpt lat="44.15717" lon="3.03546">
        <ele>587</ele>
        <time>2014-01-30T15:23:18Z</time>
      </trkpt>
      <trkpt lat="44.15712" lon="3.03546">
        <ele>588</ele>
        <time>2014-01-30T15:23:23Z</time>
      </trkpt>
      <trkpt lat="44.15706" lon="3.03547">
        <ele>589</ele>
        <time>2014-01-30T15:23:27Z</time>
      </trkpt>
      <trkpt lat="44.15702" lon="3.03547">
        <ele>590</ele>
        <time>2014-01-30T15:23:32Z</time>
      </trkpt>
      <trkpt lat="44.15697" lon="3.03547">
        <ele>591</ele>
        <time>2014-01-30T15:23:36Z</time>
      </trkpt>
      <trkpt lat="44.15692" lon="3.03546">
        <ele>592</ele>
        <time>2014-01-30T15:23:40Z</time>
      </trkpt>
      <trkpt lat="44.15688" lon="3.03545">
        <ele>592</ele>
        <time>2014-01-30T15:23:44Z</time>
      </trkpt>
      <trkpt lat="44.15683" lon="3.03541">
        <ele>593</ele>
        <time>2014-01-30T15:23:48Z</time>
      </trkpt>
      <trkpt lat="44.15679" lon="3.03536">
        <ele>593</ele>
        <time>2014-01-30T15:23:52Z</time>
      </trkpt>
      <trkpt lat="44.15675" lon="3.03532">
        <ele>593</ele>
        <time>2014-01-30T15:23:55Z</time>
      </trkpt>
      <trkpt lat="44.1567" lon="3.03527">
        <ele>591</ele>
        <time>2014-01-30T15:23:59Z</time>
      </trkpt>
      <trkpt lat="44.15666" lon="3.03524">
        <ele>591</ele>
        <time>2014-01-30T15:24:04Z</time>
      </trkpt>
      <trkpt lat="44.15662" lon="3.03523">
        <ele>589</ele>
        <time>2014-01-30T15:24:09Z</time>
      </trkpt>
      <trkpt lat="44.15657" lon="3.03519">
        <ele>588</ele>
        <time>2014-01-30T15:24:13Z</time>
      </trkpt>
      <trkpt lat="44.15652" lon="3.03517">
        <ele>586</ele>
        <time>2014-01-30T15:24:18Z</time>
      </trkpt>
      <trkpt lat="44.15648" lon="3.03514">
        <ele>585</ele>
        <time>2014-01-30T15:24:22Z</time>
      </trkpt>
      <trkpt lat="44.15644" lon="3.03511">
        <ele>584</ele>
        <time>2014-01-30T15:24:26Z</time>
      </trkpt>
      <trkpt lat="44.15639" lon="3.0351">
        <ele>584</ele>
        <time>2014-01-30T15:24:31Z</time>
      </trkpt>
      <trkpt lat="44.15634" lon="3.03509">
        <ele>585</ele>
        <time>2014-01-30T15:24:35Z</time>
      </trkpt>
      <trkpt lat="44.15629" lon="3.03511">
        <ele>585</ele>
        <time>2014-01-30T15:24:38Z</time>
      </trkpt>
      <trkpt lat="44.15625" lon="3.03511">
        <ele>585</ele>
        <time>2014-01-30T15:24:43Z</time>
      </trkpt>
      <trkpt lat="44.15621" lon="3.03514">
        <ele>585</ele>
        <time>2014-01-30T15:24:47Z</time>
      </trkpt>
      <trkpt lat="44.15616" lon="3.03517">
        <ele>585</ele>
        <time>2014-01-30T15:24:51Z</time>
      </trkpt>
      <trkpt lat="44.15613" lon="3.03522">
        <ele>586</ele>
        <time>2014-01-30T15:24:53Z</time>
      </trkpt>
      <trkpt lat="44.15609" lon="3.03523">
        <ele>587</ele>
        <time>2014-01-30T15:24:57Z</time>
      </trkpt>
      <trkpt lat="44.15604" lon="3.03521">
        <ele>588</ele>
        <time>2014-01-30T15:25:02Z</time>
      </trkpt>
      <trkpt lat="44.15599" lon="3.03524">
        <ele>589</ele>
        <time>2014-01-30T15:25:07Z</time>
      </trkpt>
      <trkpt lat="44.15597" lon="3.0353">
        <ele>589</ele>
        <time>2014-01-30T15:25:11Z</time>
      </trkpt>
      <trkpt lat="44.15593" lon="3.03535">
        <ele>592</ele>
        <time>2014-01-30T15:25:15Z</time>
      </trkpt>
      <trkpt lat="44.15588" lon="3.03538">
        <ele>592</ele>
        <time>2014-01-30T15:25:19Z</time>
      </trkpt>
      <trkpt lat="44.15584" lon="3.0354">
        <ele>594</ele>
        <time>2014-01-30T15:25:23Z</time>
      </trkpt>
      <trkpt lat="44.15579" lon="3.03543">
        <ele>595</ele>
        <time>2014-01-30T15:25:29Z</time>
      </trkpt>
      <trkpt lat="44.15575" lon="3.03547">
        <ele>595</ele>
        <time>2014-01-30T15:25:35Z</time>
      </trkpt>
      <trkpt lat="44.15572" lon="3.03553">
        <ele>596</ele>
        <time>2014-01-30T15:25:40Z</time>
      </trkpt>
      <trkpt lat="44.15571" lon="3.0356">
        <ele>598</ele>
        <time>2014-01-30T15:25:44Z</time>
      </trkpt>
      <trkpt lat="44.15568" lon="3.03567">
        <ele>599</ele>
        <time>2014-01-30T15:25:48Z</time>
      </trkpt>
      <trkpt lat="44.15564" lon="3.03572">
        <ele>598</ele>
        <time>2014-01-30T15:25:55Z</time>
      </trkpt>
      <trkpt lat="44.15561" lon="3.03578">
        <ele>596</ele>
        <time>2014-01-30T15:25:59Z</time>
      </trkpt>
      <trkpt lat="44.15559" lon="3.03584">
        <ele>596</ele>
        <time>2014-01-30T15:26:03Z</time>
      </trkpt>
      <trkpt lat="44.15555" lon="3.0359">
        <ele>596</ele>
        <time>2014-01-30T15:26:07Z</time>
      </trkpt>
      <trkpt lat="44.15552" lon="3.03594">
        <ele>596</ele>
        <time>2014-01-30T15:26:10Z</time>
      </trkpt>
      <trkpt lat="44.15548" lon="3.03598">
        <ele>597</ele>
        <time>2014-01-30T15:26:14Z</time>
      </trkpt>
      <trkpt lat="44.15545" lon="3.03602">
        <ele>597</ele>
        <time>2014-01-30T15:26:18Z</time>
      </trkpt>
      <trkpt lat="44.15543" lon="3.03608">
        <ele>597</ele>
        <time>2014-01-30T15:26:21Z</time>
      </trkpt>
      <trkpt lat="44.15541" lon="3.03614">
        <ele>595</ele>
        <time>2014-01-30T15:26:24Z</time>
      </trkpt>
      <trkpt lat="44.15539" lon="3.0362">
        <ele>595</ele>
        <time>2014-01-30T15:26:27Z</time>
      </trkpt>
      <trkpt lat="44.15536" lon="3.03624">
        <ele>593</ele>
        <time>2014-01-30T15:26:31Z</time>
      </trkpt>
      <trkpt lat="44.15531" lon="3.03626">
        <ele>591</ele>
        <time>2014-01-30T15:26:36Z</time>
      </trkpt>
      <trkpt lat="44.15526" lon="3.03626">
        <ele>589</ele>
        <time>2014-01-30T15:26:39Z</time>
      </trkpt>
      <trkpt lat="44.15522" lon="3.03628">
        <ele>589</ele>
        <time>2014-01-30T15:26:43Z</time>
      </trkpt>
      <trkpt lat="44.15518" lon="3.03632">
        <ele>588</ele>
        <time>2014-01-30T15:26:49Z</time>
      </trkpt>
      <trkpt lat="44.15515" lon="3.03637">
        <ele>587</ele>
        <time>2014-01-30T15:26:53Z</time>
      </trkpt>
      <trkpt lat="44.15511" lon="3.03642">
        <ele>586</ele>
        <time>2014-01-30T15:26:56Z</time>
      </trkpt>
      <trkpt lat="44.15508" lon="3.03647">
        <ele>587</ele>
        <time>2014-01-30T15:26:58Z</time>
      </trkpt>
      <trkpt lat="44.15505" lon="3.03652">
        <ele>588</ele>
        <time>2014-01-30T15:27:00Z</time>
      </trkpt>
      <trkpt lat="44.155" lon="3.03657">
        <ele>589</ele>
        <time>2014-01-30T15:27:03Z</time>
      </trkpt>
      <trkpt lat="44.15495" lon="3.03658">
        <ele>589</ele>
        <time>2014-01-30T15:27:07Z</time>
      </trkpt>
      <trkpt lat="44.1549" lon="3.03661">
        <ele>589</ele>
        <time>2014-01-30T15:27:12Z</time>
      </trkpt>
      <trkpt lat="44.15485" lon="3.03664">
        <ele>588</ele>
        <time>2014-01-30T15:27:16Z</time>
      </trkpt>
      <trkpt lat="44.1548" lon="3.03664">
        <ele>587</ele>
        <time>2014-01-30T15:27:20Z</time>
      </trkpt>
      <trkpt lat="44.15476" lon="3.03662">
        <ele>587</ele>
        <time>2014-01-30T15:27:25Z</time>
      </trkpt>
      <trkpt lat="44.1547" lon="3.03661">
        <ele>585</ele>
        <time>2014-01-30T15:27:30Z</time>
      </trkpt>
      <trkpt lat="44.15466" lon="3.03658">
        <ele>583</ele>
        <time>2014-01-30T15:27:34Z</time>
      </trkpt>
      <trkpt lat="44.15461" lon="3.03659">
        <ele>582</ele>
        <time>2014-01-30T15:27:38Z</time>
      </trkpt>
      <trkpt lat="44.15456" lon="3.03659">
        <ele>581</ele>
        <time>2014-01-30T15:27:42Z</time>
      </trkpt>
      <trkpt lat="44.15451" lon="3.0366">
        <ele>580</ele>
        <time>2014-01-30T15:27:46Z</time>
      </trkpt>
      <trkpt lat="44.15446" lon="3.03657">
        <ele>580</ele>
        <time>2014-01-30T15:27:50Z</time>
      </trkpt>
      <trkpt lat="44.15441" lon="3.03657">
        <ele>579</ele>
        <time>2014-01-30T15:27:54Z</time>
      </trkpt>
      <trkpt lat="44.15437" lon="3.03653">
        <ele>577</ele>
        <time>2014-01-30T15:27:59Z</time>
      </trkpt>
      <trkpt lat="44.15432" lon="3.03651">
        <ele>576</ele>
        <time>2014-01-30T15:28:03Z</time>
      </trkpt>
      <trkpt lat="44.15426" lon="3.03652">
        <ele>575</ele>
        <time>2014-01-30T15:28:07Z</time>
      </trkpt>
      <trkpt lat="44.15422" lon="3.03653">
        <ele>575</ele>
        <time>2014-01-30T15:28:11Z</time>
      </trkpt>
      <trkpt lat="44.15417" lon="3.03655">
        <ele>576</ele>
        <time>2014-01-30T15:28:15Z</time>
      </trkpt>
      <trkpt lat="44.15412" lon="3.03656">
        <ele>576</ele>
        <time>2014-01-30T15:28:18Z</time>
      </trkpt>
      <trkpt lat="44.15408" lon="3.03656">
        <ele>576</ele>
        <time>2014-01-30T15:28:21Z</time>
      </trkpt>
      <trkpt lat="44.15403" lon="3.03654">
        <ele>576</ele>
        <time>2014-01-30T15:28:26Z</time>
      </trkpt>
      <trkpt lat="44.15397" lon="3.03654">
        <ele>576</ele>
        <time>2014-01-30T15:28:30Z</time>
      </trkpt>
      <trkpt lat="44.15392" lon="3.03655">
        <ele>578</ele>
        <time>2014-01-30T15:28:34Z</time>
      </trkpt>
      <trkpt lat="44.15388" lon="3.03652">
        <ele>579</ele>
        <time>2014-01-30T15:28:38Z</time>
      </trkpt>
      <trkpt lat="44.15383" lon="3.03649">
        <ele>580</ele>
        <time>2014-01-30T15:28:43Z</time>
      </trkpt>
      <trkpt lat="44.15379" lon="3.03646">
        <ele>580</ele>
        <time>2014-01-30T15:28:47Z</time>
      </trkpt>
      <trkpt lat="44.15373" lon="3.03646">
        <ele>580</ele>
        <time>2014-01-30T15:28:52Z</time>
      </trkpt>
      <trkpt lat="44.15369" lon="3.03648">
        <ele>580</ele>
        <time>2014-01-30T15:28:56Z</time>
      </trkpt>
      <trkpt lat="44.15364" lon="3.0365">
        <ele>580</ele>
        <time>2014-01-30T15:29:00Z</time>
      </trkpt>
      <trkpt lat="44.15359" lon="3.03653">
        <ele>581</ele>
        <time>2014-01-30T15:29:04Z</time>
      </trkpt>
      <trkpt lat="44.15355" lon="3.03655">
        <ele>582</ele>
        <time>2014-01-30T15:29:09Z</time>
      </trkpt>
      <trkpt lat="44.1535" lon="3.03653">
        <ele>582</ele>
        <time>2014-01-30T15:29:14Z</time>
      </trkpt>
      <trkpt lat="44.15345" lon="3.03652">
        <ele>580</ele>
        <time>2014-01-30T15:29:20Z</time>
      </trkpt>
      <trkpt lat="44.15341" lon="3.03655">
        <ele>580</ele>
        <time>2014-01-30T15:29:25Z</time>
      </trkpt>
      <trkpt lat="44.15336" lon="3.03651">
        <ele>580</ele>
        <time>2014-01-30T15:29:30Z</time>
      </trkpt>
      <trkpt lat="44.15333" lon="3.03645">
        <ele>580</ele>
        <time>2014-01-30T15:29:35Z</time>
      </trkpt>
      <trkpt lat="44.15333" lon="3.03638">
        <ele>580</ele>
        <time>2014-01-30T15:29:39Z</time>
      </trkpt>
      <trkpt lat="44.15333" lon="3.03631">
        <ele>581</ele>
        <time>2014-01-30T15:29:44Z</time>
      </trkpt>
      <trkpt lat="44.1533" lon="3.03623">
        <ele>582</ele>
        <time>2014-01-30T15:29:47Z</time>
      </trkpt>
      <trkpt lat="44.15334" lon="3.03618">
        <ele>582</ele>
        <time>2014-01-30T15:29:56Z</time>
      </trkpt>
      <trkpt lat="44.15333" lon="3.03612">
        <ele>582</ele>
        <time>2014-01-30T15:30:03Z</time>
      </trkpt>
      <trkpt lat="44.15334" lon="3.03606">
        <ele>582</ele>
        <time>2014-01-30T15:30:09Z</time>
      </trkpt>
      <trkpt lat="44.15334" lon="3.03599">
        <ele>582</ele>
        <time>2014-01-30T15:30:14Z</time>
      </trkpt>
      <trkpt lat="44.15334" lon="3.03592">
        <ele>581</ele>
        <time>2014-01-30T15:30:21Z</time>
      </trkpt>
      <trkpt lat="44.15332" lon="3.03586">
        <ele>580</ele>
        <time>2014-01-30T15:30:26Z</time>
      </trkpt>
      <trkpt lat="44.15332" lon="3.03583">
        <ele>580</ele>
        <time>2014-01-30T15:30:31Z</time>
      </trkpt>
      <trkpt lat="44.15329" lon="3.03577">
        <ele>579</ele>
        <time>2014-01-30T15:30:37Z</time>
      </trkpt>
      <trkpt lat="44.15325" lon="3.03571">
        <ele>579</ele>
        <time>2014-01-30T15:30:43Z</time>
      </trkpt>
      <trkpt lat="44.15323" lon="3.03566">
        <ele>578</ele>
        <time>2014-01-30T15:30:50Z</time>
      </trkpt>
      <trkpt lat="44.15318" lon="3.03566">
        <ele>578</ele>
        <time>2014-01-30T15:30:55Z</time>
      </trkpt>
      <trkpt lat="44.15314" lon="3.03563">
        <ele>580</ele>
        <time>2014-01-30T15:31:02Z</time>
      </trkpt>
      <trkpt lat="44.15309" lon="3.03559">
        <ele>582</ele>
        <time>2014-01-30T15:31:09Z</time>
      </trkpt>
      <trkpt lat="44.15304" lon="3.03561">
        <ele>584</ele>
        <time>2014-01-30T15:31:13Z</time>
      </trkpt>
      <trkpt lat="44.15299" lon="3.0356">
        <ele>587</ele>
        <time>2014-01-30T15:31:18Z</time>
      </trkpt>
      <trkpt lat="44.15295" lon="3.03557">
        <ele>588</ele>
        <time>2014-01-30T15:31:23Z</time>
      </trkpt>
      <trkpt lat="44.15289" lon="3.03553">
        <ele>590</ele>
        <time>2014-01-30T15:31:34Z</time>
      </trkpt>
      <trkpt lat="44.15284" lon="3.03551">
        <ele>591</ele>
        <time>2014-01-30T15:31:39Z</time>
      </trkpt>
      <trkpt lat="44.1528" lon="3.03547">
        <ele>592</ele>
        <time>2014-01-30T15:31:43Z</time>
      </trkpt>
      <trkpt lat="44.15277" lon="3.03543">
        <ele>593</ele>
        <time>2014-01-30T15:31:50Z</time>
      </trkpt>
      <trkpt lat="44.15272" lon="3.03539">
        <ele>596</ele>
        <time>2014-01-30T15:31:55Z</time>
      </trkpt>
      <trkpt lat="44.15267" lon="3.03538">
        <ele>597</ele>
        <time>2014-01-30T15:31:59Z</time>
      </trkpt>
      <trkpt lat="44.15263" lon="3.03536">
        <ele>599</ele>
        <time>2014-01-30T15:32:05Z</time>
      </trkpt>
      <trkpt lat="44.15255" lon="3.0353">
        <ele>603</ele>
        <time>2014-01-30T15:32:13Z</time>
      </trkpt>
      <trkpt lat="44.15252" lon="3.03523">
        <ele>606</ele>
        <time>2014-01-30T15:32:18Z</time>
      </trkpt>
      <trkpt lat="44.15249" lon="3.03518">
        <ele>608</ele>
        <time>2014-01-30T15:32:22Z</time>
      </trkpt>
      <trkpt lat="44.15244" lon="3.03517">
        <ele>609</ele>
        <time>2014-01-30T15:32:26Z</time>
      </trkpt>
      <trkpt lat="44.15239" lon="3.03512">
        <ele>611</ele>
        <time>2014-01-30T15:32:30Z</time>
      </trkpt>
      <trkpt lat="44.15235" lon="3.03508">
        <ele>612</ele>
        <time>2014-01-30T15:32:33Z</time>
      </trkpt>
      <trkpt lat="44.1523" lon="3.03504">
        <ele>613</ele>
        <time>2014-01-30T15:32:37Z</time>
      </trkpt>
      <trkpt lat="44.15225" lon="3.03503">
        <ele>614</ele>
        <time>2014-01-30T15:32:41Z</time>
      </trkpt>
      <trkpt lat="44.1522" lon="3.035">
        <ele>614</ele>
        <time>2014-01-30T15:32:45Z</time>
      </trkpt>
      <trkpt lat="44.15215" lon="3.03495">
        <ele>614</ele>
        <time>2014-01-30T15:32:49Z</time>
      </trkpt>
      <trkpt lat="44.15211" lon="3.03491">
        <ele>615</ele>
        <time>2014-01-30T15:32:53Z</time>
      </trkpt>
      <trkpt lat="44.15206" lon="3.03489">
        <ele>617</ele>
        <time>2014-01-30T15:32:57Z</time>
      </trkpt>
      <trkpt lat="44.15201" lon="3.03488">
        <ele>617</ele>
        <time>2014-01-30T15:33:01Z</time>
      </trkpt>
      <trkpt lat="44.15196" lon="3.03487">
        <ele>618</ele>
        <time>2014-01-30T15:33:05Z</time>
      </trkpt>
      <trkpt lat="44.15192" lon="3.03484">
        <ele>617</ele>
        <time>2014-01-30T15:33:09Z</time>
      </trkpt>
      <trkpt lat="44.15187" lon="3.03479">
        <ele>618</ele>
        <time>2014-01-30T15:33:13Z</time>
      </trkpt>
      <trkpt lat="44.15184" lon="3.03474">
        <ele>617</ele>
        <time>2014-01-30T15:33:17Z</time>
      </trkpt>
      <trkpt lat="44.15181" lon="3.03467">
        <ele>617</ele>
        <time>2014-01-30T15:33:21Z</time>
      </trkpt>
      <trkpt lat="44.15179" lon="3.03461">
        <ele>617</ele>
        <time>2014-01-30T15:33:24Z</time>
      </trkpt>
      <trkpt lat="44.15178" lon="3.03455">
        <ele>618</ele>
        <time>2014-01-30T15:33:27Z</time>
      </trkpt>
      <trkpt lat="44.15177" lon="3.03447">
        <ele>619</ele>
        <time>2014-01-30T15:33:31Z</time>
      </trkpt>
      <trkpt lat="44.15176" lon="3.03441">
        <ele>619</ele>
        <time>2014-01-30T15:33:35Z</time>
      </trkpt>
      <trkpt lat="44.15172" lon="3.03436">
        <ele>619</ele>
        <time>2014-01-30T15:33:40Z</time>
      </trkpt>
      <trkpt lat="44.15167" lon="3.0344">
        <ele>618</ele>
        <time>2014-01-30T15:33:44Z</time>
      </trkpt>
      <trkpt lat="44.15164" lon="3.03444">
        <ele>617</ele>
        <time>2014-01-30T15:33:47Z</time>
      </trkpt>
      <trkpt lat="44.15158" lon="3.03447">
        <ele>617</ele>
        <time>2014-01-30T15:33:51Z</time>
      </trkpt>
      <trkpt lat="44.15154" lon="3.0345">
        <ele>617</ele>
        <time>2014-01-30T15:33:54Z</time>
      </trkpt>
      <trkpt lat="44.15152" lon="3.03456">
        <ele>616</ele>
        <time>2014-01-30T15:33:58Z</time>
      </trkpt>
      <trkpt lat="44.15149" lon="3.03462">
        <ele>617</ele>
        <time>2014-01-30T15:34:03Z</time>
      </trkpt>
      <trkpt lat="44.15147" lon="3.0346">
        <ele>616</ele>
        <time>2014-01-30T15:34:13Z</time>
      </trkpt>
      <trkpt lat="44.15145" lon="3.03457">
        <ele>615</ele>
        <time>2014-01-30T15:34:22Z</time>
      </trkpt>
      <trkpt lat="44.15145" lon="3.03457">
        <ele>613</ele>
        <time>2014-01-30T15:34:56Z</time>
      </trkpt>
      <trkpt lat="44.15148" lon="3.0346">
        <ele>613</ele>
        <time>2014-01-30T15:34:59Z</time>
      </trkpt>
      <trkpt lat="44.15151" lon="3.03466">
        <ele>612</ele>
        <time>2014-01-30T15:35:04Z</time>
      </trkpt>
      <trkpt lat="44.15148" lon="3.03467">
        <ele>610</ele>
        <time>2014-01-30T15:36:07Z</time>
      </trkpt>
      <trkpt lat="44.15149" lon="3.03461">
        <ele>611</ele>
        <time>2014-01-30T15:36:35Z</time>
      </trkpt>
      <trkpt lat="44.15144" lon="3.03461">
        <ele>611</ele>
        <time>2014-01-30T15:36:43Z</time>
      </trkpt>
      <trkpt lat="44.15143" lon="3.03467">
        <ele>610</ele>
        <time>2014-01-30T15:36:48Z</time>
      </trkpt>
      <trkpt lat="44.15141" lon="3.03473">
        <ele>609</ele>
        <time>2014-01-30T15:36:52Z</time>
      </trkpt>
      <trkpt lat="44.15142" lon="3.03481">
        <ele>608</ele>
        <time>2014-01-30T15:36:57Z</time>
      </trkpt>
      <trkpt lat="44.15142" lon="3.03488">
        <ele>607</ele>
        <time>2014-01-30T15:37:01Z</time>
      </trkpt>
      <trkpt lat="44.15146" lon="3.03486">
        <ele>608</ele>
        <time>2014-01-30T15:37:25Z</time>
      </trkpt>
      <trkpt lat="44.15147" lon="3.03487">
        <ele>608</ele>
        <time>2014-01-30T15:38:05Z</time>
      </trkpt>
      <trkpt lat="44.15141" lon="3.0349">
        <ele>609</ele>
        <time>2014-01-30T15:38:20Z</time>
      </trkpt>
      <trkpt lat="44.15141" lon="3.03486">
        <ele>608</ele>
        <time>2014-01-30T15:38:44Z</time>
      </trkpt>
      <trkpt lat="44.15143" lon="3.0348">
        <ele>608</ele>
        <time>2014-01-30T15:38:47Z</time>
      </trkpt>
      <trkpt lat="44.15145" lon="3.03474">
        <ele>608</ele>
        <time>2014-01-30T15:38:51Z</time>
      </trkpt>
      <trkpt lat="44.15142" lon="3.03474">
        <ele>614</ele>
        <time>2014-01-30T15:39:14Z</time>
      </trkpt>
      <trkpt lat="44.1514" lon="3.03468">
        <ele>614</ele>
        <time>2014-01-30T15:39:29Z</time>
      </trkpt>
      <trkpt lat="44.15141" lon="3.03465">
        <ele>615</ele>
        <time>2014-01-30T15:39:40Z</time>
      </trkpt>
      <trkpt lat="44.15144" lon="3.03461">
        <ele>615</ele>
        <time>2014-01-30T15:39:55Z</time>
      </trkpt>
      <trkpt lat="44.15145" lon="3.03463">
        <ele>616</ele>
        <time>2014-01-30T15:41:51Z</time>
      </trkpt>
      <trkpt lat="44.15149" lon="3.03464">
        <ele>620</ele>
        <time>2014-01-30T15:44:00Z</time>
      </trkpt>
      <trkpt lat="44.15152" lon="3.03457">
        <ele>620</ele>
        <time>2014-01-30T15:44:06Z</time>
      </trkpt>
      <trkpt lat="44.15154" lon="3.03451">
        <ele>619</ele>
        <time>2014-01-30T15:44:09Z</time>
      </trkpt>
      <trkpt lat="44.15157" lon="3.03446">
        <ele>619</ele>
        <time>2014-01-30T15:44:12Z</time>
      </trkpt>
      <trkpt lat="44.15161" lon="3.03442">
        <ele>618</ele>
        <time>2014-01-30T15:44:16Z</time>
      </trkpt>
      <trkpt lat="44.15164" lon="3.03436">
        <ele>618</ele>
        <time>2014-01-30T15:44:20Z</time>
      </trkpt>
      <trkpt lat="44.15166" lon="3.0343">
        <ele>617</ele>
        <time>2014-01-30T15:44:24Z</time>
      </trkpt>
      <trkpt lat="44.15167" lon="3.03424">
        <ele>617</ele>
        <time>2014-01-30T15:44:28Z</time>
      </trkpt>
      <trkpt lat="44.15169" lon="3.03418">
        <ele>617</ele>
        <time>2014-01-30T15:44:32Z</time>
      </trkpt>
      <trkpt lat="44.15171" lon="3.0341">
        <ele>617</ele>
        <time>2014-01-30T15:44:36Z</time>
      </trkpt>
      <trkpt lat="44.15175" lon="3.03406">
        <ele>618</ele>
        <time>2014-01-30T15:44:40Z</time>
      </trkpt>
      <trkpt lat="44.15179" lon="3.03401">
        <ele>618</ele>
        <time>2014-01-30T15:44:44Z</time>
      </trkpt>
      <trkpt lat="44.15182" lon="3.03396">
        <ele>618</ele>
        <time>2014-01-30T15:44:47Z</time>
      </trkpt>
      <trkpt lat="44.15187" lon="3.03395">
        <ele>618</ele>
        <time>2014-01-30T15:44:51Z</time>
      </trkpt>
      <trkpt lat="44.15193" lon="3.03396">
        <ele>618</ele>
        <time>2014-01-30T15:44:55Z</time>
      </trkpt>
      <trkpt lat="44.15198" lon="3.03398">
        <ele>618</ele>
        <time>2014-01-30T15:45:00Z</time>
      </trkpt>
      <trkpt lat="44.15203" lon="3.03398">
        <ele>617</ele>
        <time>2014-01-30T15:45:05Z</time>
      </trkpt>
      <trkpt lat="44.15209" lon="3.03399">
        <ele>618</ele>
        <time>2014-01-30T15:45:09Z</time>
      </trkpt>
      <trkpt lat="44.15214" lon="3.03397">
        <ele>618</ele>
        <time>2014-01-30T15:45:13Z</time>
      </trkpt>
      <trkpt lat="44.15217" lon="3.03394">
        <ele>618</ele>
        <time>2014-01-30T15:45:17Z</time>
      </trkpt>
      <trkpt lat="44.15222" lon="3.0339">
        <ele>618</ele>
        <time>2014-01-30T15:45:21Z</time>
      </trkpt>
      <trkpt lat="44.15224" lon="3.03384">
        <ele>619</ele>
        <time>2014-01-30T15:45:28Z</time>
      </trkpt>
      <trkpt lat="44.15227" lon="3.03378">
        <ele>619</ele>
        <time>2014-01-30T15:45:32Z</time>
      </trkpt>
      <trkpt lat="44.15228" lon="3.03371">
        <ele>618</ele>
        <time>2014-01-30T15:45:36Z</time>
      </trkpt>
      <trkpt lat="44.15232" lon="3.03365">
        <ele>618</ele>
        <time>2014-01-30T15:45:40Z</time>
      </trkpt>
      <trkpt lat="44.15234" lon="3.03359">
        <ele>619</ele>
        <time>2014-01-30T15:45:43Z</time>
      </trkpt>
      <trkpt lat="44.15236" lon="3.03352">
        <ele>619</ele>
        <time>2014-01-30T15:45:47Z</time>
      </trkpt>
      <trkpt lat="44.15241" lon="3.03351">
        <ele>620</ele>
        <time>2014-01-30T15:45:52Z</time>
      </trkpt>
      <trkpt lat="44.15243" lon="3.03345">
        <ele>619</ele>
        <time>2014-01-30T15:45:57Z</time>
      </trkpt>
      <trkpt lat="44.15246" lon="3.03341">
        <ele>619</ele>
        <time>2014-01-30T15:46:01Z</time>
      </trkpt>
      <trkpt lat="44.1525" lon="3.03338">
        <ele>619</ele>
        <time>2014-01-30T15:46:05Z</time>
      </trkpt>
      <trkpt lat="44.1525" lon="3.03331">
        <ele>619</ele>
        <time>2014-01-30T15:46:08Z</time>
      </trkpt>
      <trkpt lat="44.15252" lon="3.03324">
        <ele>620</ele>
        <time>2014-01-30T15:46:12Z</time>
      </trkpt>
      <trkpt lat="44.15256" lon="3.03318">
        <ele>620</ele>
        <time>2014-01-30T15:46:16Z</time>
      </trkpt>
      <trkpt lat="44.15259" lon="3.03312">
        <ele>620</ele>
        <time>2014-01-30T15:46:20Z</time>
      </trkpt>
      <trkpt lat="44.15262" lon="3.03306">
        <ele>621</ele>
        <time>2014-01-30T15:46:24Z</time>
      </trkpt>
      <trkpt lat="44.15266" lon="3.03302">
        <ele>622</ele>
        <time>2014-01-30T15:46:28Z</time>
      </trkpt>
      <trkpt lat="44.15275" lon="3.03299">
        <ele>622</ele>
        <time>2014-01-30T15:46:35Z</time>
      </trkpt>
      <trkpt lat="44.15279" lon="3.03296">
        <ele>624</ele>
        <time>2014-01-30T15:46:41Z</time>
      </trkpt>
      <trkpt lat="44.15284" lon="3.03291">
        <ele>624</ele>
        <time>2014-01-30T15:46:45Z</time>
      </trkpt>
      <trkpt lat="44.15288" lon="3.03289">
        <ele>623</ele>
        <time>2014-01-30T15:46:50Z</time>
      </trkpt>
      <trkpt lat="44.15293" lon="3.03288">
        <ele>624</ele>
        <time>2014-01-30T15:46:53Z</time>
      </trkpt>
      <trkpt lat="44.15297" lon="3.03288">
        <ele>625</ele>
        <time>2014-01-30T15:46:56Z</time>
      </trkpt>
      <trkpt lat="44.15302" lon="3.03287">
        <ele>625</ele>
        <time>2014-01-30T15:46:59Z</time>
      </trkpt>
      <trkpt lat="44.15307" lon="3.03288">
        <ele>625</ele>
        <time>2014-01-30T15:47:03Z</time>
      </trkpt>
      <trkpt lat="44.1531" lon="3.03281">
        <ele>626</ele>
        <time>2014-01-30T15:47:07Z</time>
      </trkpt>
      <trkpt lat="44.15314" lon="3.03275">
        <ele>626</ele>
        <time>2014-01-30T15:47:10Z</time>
      </trkpt>
      <trkpt lat="44.15318" lon="3.0327">
        <ele>626</ele>
        <time>2014-01-30T15:47:14Z</time>
      </trkpt>
      <trkpt lat="44.15322" lon="3.03264">
        <ele>627</ele>
        <time>2014-01-30T15:47:18Z</time>
      </trkpt>
      <trkpt lat="44.15327" lon="3.03262">
        <ele>626</ele>
        <time>2014-01-30T15:47:22Z</time>
      </trkpt>
      <trkpt lat="44.15331" lon="3.03256">
        <ele>626</ele>
        <time>2014-01-30T15:47:27Z</time>
      </trkpt>
      <trkpt lat="44.15334" lon="3.03249">
        <ele>626</ele>
        <time>2014-01-30T15:47:30Z</time>
      </trkpt>
      <trkpt lat="44.15341" lon="3.03241">
        <ele>626</ele>
        <time>2014-01-30T15:47:37Z</time>
      </trkpt>
      <trkpt lat="44.15346" lon="3.03238">
        <ele>626</ele>
        <time>2014-01-30T15:47:40Z</time>
      </trkpt>
      <trkpt lat="44.1535" lon="3.03236">
        <ele>626</ele>
        <time>2014-01-30T15:47:43Z</time>
      </trkpt>
      <trkpt lat="44.15355" lon="3.03234">
        <ele>627</ele>
        <time>2014-01-30T15:47:48Z</time>
      </trkpt>
      <trkpt lat="44.1536" lon="3.0323">
        <ele>628</ele>
        <time>2014-01-30T15:47:53Z</time>
      </trkpt>
      <trkpt lat="44.15359" lon="3.0326">
        <ele>628</ele>
        <time>2014-01-30T15:48:14Z</time>
      </trkpt>
      <trkpt lat="44.15361" lon="3.03249">
        <ele>627</ele>
        <time>2014-01-30T15:48:17Z</time>
      </trkpt>
      <trkpt lat="44.15361" lon="3.0324">
        <ele>628</ele>
        <time>2014-01-30T15:48:19Z</time>
      </trkpt>
      <trkpt lat="44.15363" lon="3.03232">
        <ele>628</ele>
        <time>2014-01-30T15:48:22Z</time>
      </trkpt>
      <trkpt lat="44.15367" lon="3.0323">
        <ele>628</ele>
        <time>2014-01-30T15:48:53Z</time>
      </trkpt>
      <trkpt lat="44.15371" lon="3.03227">
        <ele>629</ele>
        <time>2014-01-30T15:48:57Z</time>
      </trkpt>
      <trkpt lat="44.15374" lon="3.03226">
        <ele>630</ele>
        <time>2014-01-30T15:49:04Z</time>
      </trkpt>
      <trkpt lat="44.15379" lon="3.03229">
        <ele>629</ele>
        <time>2014-01-30T15:49:11Z</time>
      </trkpt>
      <trkpt lat="44.15375" lon="3.03227">
        <ele>629</ele>
        <time>2014-01-30T15:49:41Z</time>
      </trkpt>
      <trkpt lat="44.15379" lon="3.03228">
        <ele>628</ele>
        <time>2014-01-30T15:50:05Z</time>
      </trkpt>
      <trkpt lat="44.15383" lon="3.03232">
        <ele>628</ele>
        <time>2014-01-30T15:50:38Z</time>
      </trkpt>
      <trkpt lat="44.15381" lon="3.03226">
        <ele>628</ele>
        <time>2014-01-30T15:51:02Z</time>
      </trkpt>
      <trkpt lat="44.15377" lon="3.03229">
        <ele>628</ele>
        <time>2014-01-30T15:51:10Z</time>
      </trkpt>
      <trkpt lat="44.15371" lon="3.03228">
        <ele>627</ele>
        <time>2014-01-30T15:51:14Z</time>
      </trkpt>
      <trkpt lat="44.15367" lon="3.03229">
        <ele>627</ele>
        <time>2014-01-30T15:51:18Z</time>
      </trkpt>
      <trkpt lat="44.15362" lon="3.03225">
        <ele>627</ele>
        <time>2014-01-30T15:51:22Z</time>
      </trkpt>
      <trkpt lat="44.15358" lon="3.03221">
        <ele>627</ele>
        <time>2014-01-30T15:51:27Z</time>
      </trkpt>
      <trkpt lat="44.15353" lon="3.03219">
        <ele>628</ele>
        <time>2014-01-30T15:51:32Z</time>
      </trkpt>
      <trkpt lat="44.15348" lon="3.03217">
        <ele>628</ele>
        <time>2014-01-30T15:51:36Z</time>
      </trkpt>
      <trkpt lat="44.15344" lon="3.03212">
        <ele>628</ele>
        <time>2014-01-30T15:51:40Z</time>
      </trkpt>
      <trkpt lat="44.15339" lon="3.0321">
        <ele>628</ele>
        <time>2014-01-30T15:51:45Z</time>
      </trkpt>
      <trkpt lat="44.15336" lon="3.03205">
        <ele>626</ele>
        <time>2014-01-30T15:51:53Z</time>
      </trkpt>
      <trkpt lat="44.15335" lon="3.03198">
        <ele>625</ele>
        <time>2014-01-30T15:51:59Z</time>
      </trkpt>
      <trkpt lat="44.15332" lon="3.03192">
        <ele>625</ele>
        <time>2014-01-30T15:52:04Z</time>
      </trkpt>
      <trkpt lat="44.15335" lon="3.03186">
        <ele>624</ele>
        <time>2014-01-30T15:52:08Z</time>
      </trkpt>
      <trkpt lat="44.15339" lon="3.03181">
        <ele>622</ele>
        <time>2014-01-30T15:52:13Z</time>
      </trkpt>
      <trkpt lat="44.15338" lon="3.03174">
        <ele>622</ele>
        <time>2014-01-30T15:52:19Z</time>
      </trkpt>
      <trkpt lat="44.15334" lon="3.0317">
        <ele>619</ele>
        <time>2014-01-30T15:52:25Z</time>
      </trkpt>
      <trkpt lat="44.15329" lon="3.03168">
        <ele>618</ele>
        <time>2014-01-30T15:52:31Z</time>
      </trkpt>
      <trkpt lat="44.15325" lon="3.03171">
        <ele>618</ele>
        <time>2014-01-30T15:52:37Z</time>
      </trkpt>
      <trkpt lat="44.1532" lon="3.03173">
        <ele>618</ele>
        <time>2014-01-30T15:52:41Z</time>
      </trkpt>
      <trkpt lat="44.15315" lon="3.03175">
        <ele>616</ele>
        <time>2014-01-30T15:52:45Z</time>
      </trkpt>
      <trkpt lat="44.1531" lon="3.03176">
        <ele>615</ele>
        <time>2014-01-30T15:52:49Z</time>
      </trkpt>
      <trkpt lat="44.15306" lon="3.03178">
        <ele>614</ele>
        <time>2014-01-30T15:52:53Z</time>
      </trkpt>
      <trkpt lat="44.15301" lon="3.03177">
        <ele>614</ele>
        <time>2014-01-30T15:52:57Z</time>
      </trkpt>
      <trkpt lat="44.15296" lon="3.03177">
        <ele>613</ele>
        <time>2014-01-30T15:53:01Z</time>
      </trkpt>
      <trkpt lat="44.15291" lon="3.03178">
        <ele>612</ele>
        <time>2014-01-30T15:53:05Z</time>
      </trkpt>
      <trkpt lat="44.15286" lon="3.0318">
        <ele>611</ele>
        <time>2014-01-30T15:53:10Z</time>
      </trkpt>
      <trkpt lat="44.15277" lon="3.03186">
        <ele>606</ele>
        <time>2014-01-30T15:53:31Z</time>
      </trkpt>
      <trkpt lat="44.15271" lon="3.03189">
        <ele>605</ele>
        <time>2014-01-30T15:53:35Z</time>
      </trkpt>
      <trkpt lat="44.15266" lon="3.03192">
        <ele>603</ele>
        <time>2014-01-30T15:53:39Z</time>
      </trkpt>
      <trkpt lat="44.15261" lon="3.03195">
        <ele>602</ele>
        <time>2014-01-30T15:53:43Z</time>
      </trkpt>
      <trkpt lat="44.15256" lon="3.03195">
        <ele>602</ele>
        <time>2014-01-30T15:53:47Z</time>
      </trkpt>
      <trkpt lat="44.1525" lon="3.03193">
        <ele>601</ele>
        <time>2014-01-30T15:53:51Z</time>
      </trkpt>
      <trkpt lat="44.15245" lon="3.03191">
        <ele>600</ele>
        <time>2014-01-30T15:53:55Z</time>
      </trkpt>
      <trkpt lat="44.15239" lon="3.03191">
        <ele>599</ele>
        <time>2014-01-30T15:53:59Z</time>
      </trkpt>
      <trkpt lat="44.15234" lon="3.03192">
        <ele>599</ele>
        <time>2014-01-30T15:54:04Z</time>
      </trkpt>
      <trkpt lat="44.15229" lon="3.03193">
        <ele>599</ele>
        <time>2014-01-30T15:54:09Z</time>
      </trkpt>
      <trkpt lat="44.15224" lon="3.03195">
        <ele>599</ele>
        <time>2014-01-30T15:54:13Z</time>
      </trkpt>
      <trkpt lat="44.15219" lon="3.03198">
        <ele>600</ele>
        <time>2014-01-30T15:54:17Z</time>
      </trkpt>
      <trkpt lat="44.15215" lon="3.03199">
        <ele>599</ele>
        <time>2014-01-30T15:54:20Z</time>
      </trkpt>
      <trkpt lat="44.1521" lon="3.03199">
        <ele>600</ele>
        <time>2014-01-30T15:54:23Z</time>
      </trkpt>
      <trkpt lat="44.15205" lon="3.03201">
        <ele>600</ele>
        <time>2014-01-30T15:54:28Z</time>
      </trkpt>
      <trkpt lat="44.152" lon="3.03201">
        <ele>600</ele>
        <time>2014-01-30T15:54:32Z</time>
      </trkpt>
      <trkpt lat="44.15195" lon="3.03199">
        <ele>600</ele>
        <time>2014-01-30T15:54:36Z</time>
      </trkpt>
      <trkpt lat="44.1519" lon="3.03201">
        <ele>599</ele>
        <time>2014-01-30T15:54:41Z</time>
      </trkpt>
      <trkpt lat="44.15185" lon="3.03203">
        <ele>598</ele>
        <time>2014-01-30T15:54:45Z</time>
      </trkpt>
      <trkpt lat="44.15181" lon="3.03205">
        <ele>596</ele>
        <time>2014-01-30T15:54:50Z</time>
      </trkpt>
      <trkpt lat="44.15175" lon="3.03206">
        <ele>595</ele>
        <time>2014-01-30T15:54:55Z</time>
      </trkpt>
      <trkpt lat="44.15171" lon="3.03206">
        <ele>595</ele>
        <time>2014-01-30T15:54:59Z</time>
      </trkpt>
      <trkpt lat="44.15166" lon="3.03205">
        <ele>593</ele>
        <time>2014-01-30T15:55:03Z</time>
      </trkpt>
      <trkpt lat="44.1516" lon="3.03206">
        <ele>593</ele>
        <time>2014-01-30T15:55:07Z</time>
      </trkpt>
      <trkpt lat="44.15155" lon="3.03208">
        <ele>593</ele>
        <time>2014-01-30T15:55:11Z</time>
      </trkpt>
      <trkpt lat="44.1515" lon="3.03207">
        <ele>593</ele>
        <time>2014-01-30T15:55:15Z</time>
      </trkpt>
      <trkpt lat="44.15145" lon="3.03208">
        <ele>592</ele>
        <time>2014-01-30T15:55:19Z</time>
      </trkpt>
      <trkpt lat="44.15141" lon="3.03211">
        <ele>592</ele>
        <time>2014-01-30T15:55:23Z</time>
      </trkpt>
      <trkpt lat="44.15136" lon="3.03212">
        <ele>591</ele>
        <time>2014-01-30T15:55:27Z</time>
      </trkpt>
      <trkpt lat="44.15131" lon="3.03213">
        <ele>591</ele>
        <time>2014-01-30T15:55:31Z</time>
      </trkpt>
      <trkpt lat="44.15126" lon="3.03216">
        <ele>588</ele>
        <time>2014-01-30T15:55:38Z</time>
      </trkpt>
      <trkpt lat="44.15121" lon="3.03221">
        <ele>588</ele>
        <time>2014-01-30T15:55:42Z</time>
      </trkpt>
      <trkpt lat="44.15118" lon="3.03225">
        <ele>587</ele>
        <time>2014-01-30T15:55:48Z</time>
      </trkpt>
      <trkpt lat="44.15115" lon="3.03225">
        <ele>586</ele>
        <time>2014-01-30T15:55:54Z</time>
      </trkpt>
      <trkpt lat="44.1511" lon="3.03218">
        <ele>583</ele>
        <time>2014-01-30T15:56:17Z</time>
      </trkpt>
      <trkpt lat="44.15106" lon="3.03215">
        <ele>582</ele>
        <time>2014-01-30T15:56:21Z</time>
      </trkpt>
      <trkpt lat="44.15101" lon="3.03214">
        <ele>581</ele>
        <time>2014-01-30T15:56:26Z</time>
      </trkpt>
      <trkpt lat="44.15097" lon="3.03211">
        <ele>581</ele>
        <time>2014-01-30T15:56:30Z</time>
      </trkpt>
      <trkpt lat="44.15093" lon="3.03209">
        <ele>580</ele>
        <time>2014-01-30T15:56:34Z</time>
      </trkpt>
      <trkpt lat="44.15087" lon="3.03207">
        <ele>580</ele>
        <time>2014-01-30T15:56:38Z</time>
      </trkpt>
      <trkpt lat="44.15082" lon="3.03206">
        <ele>579</ele>
        <time>2014-01-30T15:56:41Z</time>
      </trkpt>
      <trkpt lat="44.15078" lon="3.03203">
        <ele>578</ele>
        <time>2014-01-30T15:56:44Z</time>
      </trkpt>
      <trkpt lat="44.15074" lon="3.03198">
        <ele>578</ele>
        <time>2014-01-30T15:56:48Z</time>
      </trkpt>
      <trkpt lat="44.1507" lon="3.032">
        <ele>577</ele>
        <time>2014-01-30T15:56:52Z</time>
      </trkpt>
      <trkpt lat="44.15064" lon="3.032">
        <ele>576</ele>
        <time>2014-01-30T15:56:56Z</time>
      </trkpt>
      <trkpt lat="44.15062" lon="3.03198">
        <ele>577</ele>
        <time>2014-01-30T15:57:22Z</time>
      </trkpt>
      <trkpt lat="44.15061" lon="3.03192">
        <ele>577</ele>
        <time>2014-01-30T15:57:36Z</time>
      </trkpt>
      <trkpt lat="44.15058" lon="3.03189">
        <ele>579</ele>
        <time>2014-01-30T15:57:44Z</time>
      </trkpt>
      <trkpt lat="44.15061" lon="3.03192">
        <ele>585</ele>
        <time>2014-01-30T15:58:51Z</time>
      </trkpt>
      <trkpt lat="44.15057" lon="3.03196">
        <ele>584</ele>
        <time>2014-01-30T15:59:00Z</time>
      </trkpt>
      <trkpt lat="44.15044" lon="3.03207">
        <ele>576</ele>
        <time>2014-01-30T15:59:12Z</time>
      </trkpt>
      <trkpt lat="44.1504" lon="3.03211">
        <ele>575</ele>
        <time>2014-01-30T15:59:15Z</time>
      </trkpt>
      <trkpt lat="44.15035" lon="3.03214">
        <ele>575</ele>
        <time>2014-01-30T15:59:19Z</time>
      </trkpt>
      <trkpt lat="44.15032" lon="3.03219">
        <ele>573</ele>
        <time>2014-01-30T15:59:24Z</time>
      </trkpt>
      <trkpt lat="44.15028" lon="3.03225">
        <ele>572</ele>
        <time>2014-01-30T15:59:28Z</time>
      </trkpt>
      <trkpt lat="44.15025" lon="3.0323">
        <ele>571</ele>
        <time>2014-01-30T15:59:32Z</time>
      </trkpt>
      <trkpt lat="44.15021" lon="3.03236">
        <ele>569</ele>
        <time>2014-01-30T15:59:36Z</time>
      </trkpt>
      <trkpt lat="44.15017" lon="3.03239">
        <ele>569</ele>
        <time>2014-01-30T15:59:39Z</time>
      </trkpt>
      <trkpt lat="44.15013" lon="3.03244">
        <ele>569</ele>
        <time>2014-01-30T15:59:43Z</time>
      </trkpt>
      <trkpt lat="44.15009" lon="3.03247">
        <ele>569</ele>
        <time>2014-01-30T15:59:51Z</time>
      </trkpt>
      <trkpt lat="44.15005" lon="3.03252">
        <ele>567</ele>
        <time>2014-01-30T15:59:57Z</time>
      </trkpt>
      <trkpt lat="44.15001" lon="3.03255">
        <ele>567</ele>
        <time>2014-01-30T16:00:01Z</time>
      </trkpt>
      <trkpt lat="44.14996" lon="3.03256">
        <ele>568</ele>
        <time>2014-01-30T16:00:06Z</time>
      </trkpt>
      <trkpt lat="44.14991" lon="3.0326">
        <ele>569</ele>
        <time>2014-01-30T16:00:11Z</time>
      </trkpt>
      <trkpt lat="44.14987" lon="3.03263">
        <ele>568</ele>
        <time>2014-01-30T16:00:15Z</time>
      </trkpt>
      <trkpt lat="44.14982" lon="3.03264">
        <ele>567</ele>
        <time>2014-01-30T16:00:20Z</time>
      </trkpt>
      <trkpt lat="44.14977" lon="3.03266">
        <ele>565</ele>
        <time>2014-01-30T16:00:24Z</time>
      </trkpt>
      <trkpt lat="44.14971" lon="3.03268">
        <ele>565</ele>
        <time>2014-01-30T16:00:28Z</time>
      </trkpt>
      <trkpt lat="44.14967" lon="3.0327">
        <ele>564</ele>
        <time>2014-01-30T16:00:32Z</time>
      </trkpt>
      <trkpt lat="44.14962" lon="3.03272">
        <ele>564</ele>
        <time>2014-01-30T16:00:37Z</time>
      </trkpt>
      <trkpt lat="44.14957" lon="3.03273">
        <ele>565</ele>
        <time>2014-01-30T16:00:41Z</time>
      </trkpt>
      <trkpt lat="44.14953" lon="3.03267">
        <ele>565</ele>
        <time>2014-01-30T16:00:46Z</time>
      </trkpt>
      <trkpt lat="44.1495" lon="3.03263">
        <ele>565</ele>
        <time>2014-01-30T16:00:51Z</time>
      </trkpt>
      <trkpt lat="44.14946" lon="3.0326">
        <ele>565</ele>
        <time>2014-01-30T16:00:56Z</time>
      </trkpt>
      <trkpt lat="44.14942" lon="3.03255">
        <ele>566</ele>
        <time>2014-01-30T16:01:00Z</time>
      </trkpt>
      <trkpt lat="44.14939" lon="3.03251">
        <ele>567</ele>
        <time>2014-01-30T16:01:03Z</time>
      </trkpt>
      <trkpt lat="44.14935" lon="3.03246">
        <ele>569</ele>
        <time>2014-01-30T16:01:08Z</time>
      </trkpt>
      <trkpt lat="44.14929" lon="3.03241">
        <ele>572</ele>
        <time>2014-01-30T16:01:12Z</time>
      </trkpt>
      <trkpt lat="44.14926" lon="3.03236">
        <ele>573</ele>
        <time>2014-01-30T16:01:15Z</time>
      </trkpt>
      <trkpt lat="44.14924" lon="3.0323">
        <ele>574</ele>
        <time>2014-01-30T16:01:19Z</time>
      </trkpt>
      <trkpt lat="44.14923" lon="3.03222">
        <ele>575</ele>
        <time>2014-01-30T16:01:25Z</time>
      </trkpt>
      <trkpt lat="44.14921" lon="3.03215">
        <ele>578</ele>
        <time>2014-01-30T16:01:30Z</time>
      </trkpt>
      <trkpt lat="44.14918" lon="3.03209">
        <ele>579</ele>
        <time>2014-01-30T16:01:33Z</time>
      </trkpt>
      <trkpt lat="44.14915" lon="3.03204">
        <ele>579</ele>
        <time>2014-01-30T16:01:36Z</time>
      </trkpt>
      <trkpt lat="44.14915" lon="3.03197">
        <ele>578</ele>
        <time>2014-01-30T16:01:40Z</time>
      </trkpt>
      <trkpt lat="44.14915" lon="3.03189">
        <ele>577</ele>
        <time>2014-01-30T16:01:45Z</time>
      </trkpt>
      <trkpt lat="44.14913" lon="3.03183">
        <ele>576</ele>
        <time>2014-01-30T16:01:48Z</time>
      </trkpt>
      <trkpt lat="44.1491" lon="3.03178">
        <ele>576</ele>
        <time>2014-01-30T16:01:52Z</time>
      </trkpt>
      <trkpt lat="44.14909" lon="3.03171">
        <ele>577</ele>
        <time>2014-01-30T16:01:56Z</time>
      </trkpt>
      <trkpt lat="44.14907" lon="3.03164">
        <ele>577</ele>
        <time>2014-01-30T16:02:00Z</time>
      </trkpt>
      <trkpt lat="44.14903" lon="3.03157">
        <ele>577</ele>
        <time>2014-01-30T16:02:04Z</time>
      </trkpt>
      <trkpt lat="44.149" lon="3.03151">
        <ele>578</ele>
        <time>2014-01-30T16:02:08Z</time>
      </trkpt>
      <trkpt lat="44.14899" lon="3.03144">
        <ele>578</ele>
        <time>2014-01-30T16:02:11Z</time>
      </trkpt>
      <trkpt lat="44.14896" lon="3.03138">
        <ele>577</ele>
        <time>2014-01-30T16:02:15Z</time>
      </trkpt>
      <trkpt lat="44.14893" lon="3.03132">
        <ele>577</ele>
        <time>2014-01-30T16:02:20Z</time>
      </trkpt>
      <trkpt lat="44.14891" lon="3.03126">
        <ele>577</ele>
        <time>2014-01-30T16:02:24Z</time>
      </trkpt>
      <trkpt lat="44.14889" lon="3.0312">
        <ele>578</ele>
        <time>2014-01-30T16:02:28Z</time>
      </trkpt>
      <trkpt lat="44.14886" lon="3.03114">
        <ele>578</ele>
        <time>2014-01-30T16:02:32Z</time>
      </trkpt>
      <trkpt lat="44.14884" lon="3.03107">
        <ele>579</ele>
        <time>2014-01-30T16:02:37Z</time>
      </trkpt>
      <trkpt lat="44.14883" lon="3.031">
        <ele>580</ele>
        <time>2014-01-30T16:02:42Z</time>
      </trkpt>
      <trkpt lat="44.14882" lon="3.03092">
        <ele>580</ele>
        <time>2014-01-30T16:02:46Z</time>
      </trkpt>
      <trkpt lat="44.14879" lon="3.03085">
        <ele>581</ele>
        <time>2014-01-30T16:02:50Z</time>
      </trkpt>
      <trkpt lat="44.14877" lon="3.03079">
        <ele>581</ele>
        <time>2014-01-30T16:02:53Z</time>
      </trkpt>
      <trkpt lat="44.14874" lon="3.03073">
        <ele>581</ele>
        <time>2014-01-30T16:02:57Z</time>
      </trkpt>
      <trkpt lat="44.14871" lon="3.03068">
        <ele>581</ele>
        <time>2014-01-30T16:03:00Z</time>
      </trkpt>
      <trkpt lat="44.14868" lon="3.03061">
        <ele>581</ele>
        <time>2014-01-30T16:03:03Z</time>
      </trkpt>
      <trkpt lat="44.14865" lon="3.03055">
        <ele>582</ele>
        <time>2014-01-30T16:03:06Z</time>
      </trkpt>
      <trkpt lat="44.14863" lon="3.03049">
        <ele>582</ele>
        <time>2014-01-30T16:03:09Z</time>
      </trkpt>
      <trkpt lat="44.1486" lon="3.03044">
        <ele>582</ele>
        <time>2014-01-30T16:03:12Z</time>
      </trkpt>
      <trkpt lat="44.14857" lon="3.03038">
        <ele>582</ele>
        <time>2014-01-30T16:03:16Z</time>
      </trkpt>
      <trkpt lat="44.14853" lon="3.03034">
        <ele>583</ele>
        <time>2014-01-30T16:03:23Z</time>
      </trkpt>
      <trkpt lat="44.14849" lon="3.03031">
        <ele>584</ele>
        <time>2014-01-30T16:03:27Z</time>
      </trkpt>
      <trkpt lat="44.14846" lon="3.03025">
        <ele>587</ele>
        <time>2014-01-30T16:03:30Z</time>
      </trkpt>
      <trkpt lat="44.14844" lon="3.0302">
        <ele>588</ele>
        <time>2014-01-30T16:03:34Z</time>
      </trkpt>
      <trkpt lat="44.14841" lon="3.03014">
        <ele>590</ele>
        <time>2014-01-30T16:03:38Z</time>
      </trkpt>
      <trkpt lat="44.14838" lon="3.03008">
        <ele>590</ele>
        <time>2014-01-30T16:03:43Z</time>
      </trkpt>
      <trkpt lat="44.14834" lon="3.03004">
        <ele>591</ele>
        <time>2014-01-30T16:03:48Z</time>
      </trkpt>
      <trkpt lat="44.14831" lon="3.02998">
        <ele>591</ele>
        <time>2014-01-30T16:03:52Z</time>
      </trkpt>
      <trkpt lat="44.14827" lon="3.02992">
        <ele>590</ele>
        <time>2014-01-30T16:03:56Z</time>
      </trkpt>
      <trkpt lat="44.14823" lon="3.02988">
        <ele>589</ele>
        <time>2014-01-30T16:04:00Z</time>
      </trkpt>
      <trkpt lat="44.14819" lon="3.02983">
        <ele>588</ele>
        <time>2014-01-30T16:04:05Z</time>
      </trkpt>
      <trkpt lat="44.14816" lon="3.02978">
        <ele>586</ele>
        <time>2014-01-30T16:04:10Z</time>
      </trkpt>
      <trkpt lat="44.14813" lon="3.02971">
        <ele>584</ele>
        <time>2014-01-30T16:04:16Z</time>
      </trkpt>
      <trkpt lat="44.14809" lon="3.02967">
        <ele>584</ele>
        <time>2014-01-30T16:04:19Z</time>
      </trkpt>
      <trkpt lat="44.14805" lon="3.02963">
        <ele>583</ele>
        <time>2014-01-30T16:04:23Z</time>
      </trkpt>
      <trkpt lat="44.148" lon="3.02961">
        <ele>582</ele>
        <time>2014-01-30T16:04:26Z</time>
      </trkpt>
      <trkpt lat="44.14796" lon="3.02958">
        <ele>582</ele>
        <time>2014-01-30T16:04:28Z</time>
      </trkpt>
      <trkpt lat="44.14792" lon="3.02962">
        <ele>583</ele>
        <time>2014-01-30T16:04:34Z</time>
      </trkpt>
      <trkpt lat="44.14787" lon="3.02965">
        <ele>583</ele>
        <time>2014-01-30T16:04:42Z</time>
      </trkpt>
      <trkpt lat="44.14792" lon="3.02969">
        <ele>583</ele>
        <time>2014-01-30T16:04:47Z</time>
      </trkpt>
      <trkpt lat="44.14797" lon="3.02971">
        <ele>583</ele>
        <time>2014-01-30T16:04:50Z</time>
      </trkpt>
      <trkpt lat="44.14801" lon="3.02976">
        <ele>582</ele>
        <time>2014-01-30T16:04:54Z</time>
      </trkpt>
      <trkpt lat="44.14805" lon="3.0298">
        <ele>581</ele>
        <time>2014-01-30T16:04:58Z</time>
      </trkpt>
      <trkpt lat="44.14809" lon="3.02984">
        <ele>581</ele>
        <time>2014-01-30T16:05:02Z</time>
      </trkpt>
      <trkpt lat="44.14807" lon="3.02988">
        <ele>577</ele>
        <time>2014-01-30T16:05:20Z</time>
      </trkpt>
      <trkpt lat="44.14802" lon="3.02989">
        <ele>577</ele>
        <time>2014-01-30T16:05:27Z</time>
      </trkpt>
      <trkpt lat="44.148" lon="3.02997">
        <ele>574</ele>
        <time>2014-01-30T16:05:40Z</time>
      </trkpt>
      <trkpt lat="44.14802" lon="3.03004">
        <ele>573</ele>
        <time>2014-01-30T16:05:45Z</time>
      </trkpt>
      <trkpt lat="44.14804" lon="3.0301">
        <ele>570</ele>
        <time>2014-01-30T16:05:51Z</time>
      </trkpt>
      <trkpt lat="44.14806" lon="3.03016">
        <ele>569</ele>
        <time>2014-01-30T16:05:57Z</time>
      </trkpt>
      <trkpt lat="44.14806" lon="3.03023">
        <ele>570</ele>
        <time>2014-01-30T16:06:01Z</time>
      </trkpt>
      <trkpt lat="44.14804" lon="3.03029">
        <ele>572</ele>
        <time>2014-01-30T16:06:05Z</time>
      </trkpt>
      <trkpt lat="44.148" lon="3.03027">
        <ele>576</ele>
        <time>2014-01-30T16:06:11Z</time>
      </trkpt>
      <trkpt lat="44.14797" lon="3.03021">
        <ele>578</ele>
        <time>2014-01-30T16:06:17Z</time>
      </trkpt>
      <trkpt lat="44.14792" lon="3.03018">
        <ele>579</ele>
        <time>2014-01-30T16:06:24Z</time>
      </trkpt>
      <trkpt lat="44.14787" lon="3.03016">
        <ele>580</ele>
        <time>2014-01-30T16:06:30Z</time>
      </trkpt>
      <trkpt lat="44.14782" lon="3.03014">
        <ele>581</ele>
        <time>2014-01-30T16:06:36Z</time>
      </trkpt>
      <trkpt lat="44.14783" lon="3.03007">
        <ele>583</ele>
        <time>2014-01-30T16:06:43Z</time>
      </trkpt>
      <trkpt lat="44.1478" lon="3.03003">
        <ele>586</ele>
        <time>2014-01-30T16:06:46Z</time>
      </trkpt>
      <trkpt lat="44.14771" lon="3.02996">
        <ele>591</ele>
        <time>2014-01-30T16:06:54Z</time>
      </trkpt>
      <trkpt lat="44.14767" lon="3.02994">
        <ele>592</ele>
        <time>2014-01-30T16:07:00Z</time>
      </trkpt>
      <trkpt lat="44.14763" lon="3.02991">
        <ele>591</ele>
        <time>2014-01-30T16:07:16Z</time>
      </trkpt>
      <trkpt lat="44.14758" lon="3.02986">
        <ele>591</ele>
        <time>2014-01-30T16:07:25Z</time>
      </trkpt>
      <trkpt lat="44.14753" lon="3.02987">
        <ele>592</ele>
        <time>2014-01-30T16:07:32Z</time>
      </trkpt>
      <trkpt lat="44.14747" lon="3.02985">
        <ele>593</ele>
        <time>2014-01-30T16:07:39Z</time>
      </trkpt>
      <trkpt lat="44.14742" lon="3.02981">
        <ele>594</ele>
        <time>2014-01-30T16:07:44Z</time>
      </trkpt>
      <trkpt lat="44.14738" lon="3.02976">
        <ele>595</ele>
        <time>2014-01-30T16:07:49Z</time>
      </trkpt>
      <trkpt lat="44.14734" lon="3.02972">
        <ele>596</ele>
        <time>2014-01-30T16:07:54Z</time>
      </trkpt>
      <trkpt lat="44.1473" lon="3.02968">
        <ele>597</ele>
        <time>2014-01-30T16:07:59Z</time>
      </trkpt>
      <trkpt lat="44.14725" lon="3.02965">
        <ele>598</ele>
        <time>2014-01-30T16:08:04Z</time>
      </trkpt>
      <trkpt lat="44.1472" lon="3.02962">
        <ele>599</ele>
        <time>2014-01-30T16:08:08Z</time>
      </trkpt>
      <trkpt lat="44.14716" lon="3.02957">
        <ele>599</ele>
        <time>2014-01-30T16:08:13Z</time>
      </trkpt>
      <trkpt lat="44.14713" lon="3.02952">
        <ele>598</ele>
        <time>2014-01-30T16:08:18Z</time>
      </trkpt>
      <trkpt lat="44.14709" lon="3.02947">
        <ele>599</ele>
        <time>2014-01-30T16:08:22Z</time>
      </trkpt>
      <trkpt lat="44.14705" lon="3.02944">
        <ele>599</ele>
        <time>2014-01-30T16:08:26Z</time>
      </trkpt>
      <trkpt lat="44.14701" lon="3.02941">
        <ele>599</ele>
        <time>2014-01-30T16:08:31Z</time>
      </trkpt>
      <trkpt lat="44.14696" lon="3.02939">
        <ele>600</ele>
        <time>2014-01-30T16:08:37Z</time>
      </trkpt>
      <trkpt lat="44.14692" lon="3.02934">
        <ele>600</ele>
        <time>2014-01-30T16:08:41Z</time>
      </trkpt>
      <trkpt lat="44.14689" lon="3.02928">
        <ele>601</ele>
        <time>2014-01-30T16:08:45Z</time>
      </trkpt>
      <trkpt lat="44.14684" lon="3.02926">
        <ele>600</ele>
        <time>2014-01-30T16:08:51Z</time>
      </trkpt>
      <trkpt lat="44.14679" lon="3.02924">
        <ele>600</ele>
        <time>2014-01-30T16:08:56Z</time>
      </trkpt>
      <trkpt lat="44.14674" lon="3.02923">
        <ele>601</ele>
        <time>2014-01-30T16:09:00Z</time>
      </trkpt>
      <trkpt lat="44.14669" lon="3.02923">
        <ele>603</ele>
        <time>2014-01-30T16:09:05Z</time>
      </trkpt>
      <trkpt lat="44.14665" lon="3.02917">
        <ele>604</ele>
        <time>2014-01-30T16:09:10Z</time>
      </trkpt>
      <trkpt lat="44.14662" lon="3.02912">
        <ele>605</ele>
        <time>2014-01-30T16:09:15Z</time>
      </trkpt>
      <trkpt lat="44.14658" lon="3.02907">
        <ele>604</ele>
        <time>2014-01-30T16:09:20Z</time>
      </trkpt>
      <trkpt lat="44.14654" lon="3.02901">
        <ele>604</ele>
        <time>2014-01-30T16:09:25Z</time>
      </trkpt>
      <trkpt lat="44.14652" lon="3.02896">
        <ele>604</ele>
        <time>2014-01-30T16:09:28Z</time>
      </trkpt>
      <trkpt lat="44.14648" lon="3.02893">
        <ele>604</ele>
        <time>2014-01-30T16:09:32Z</time>
      </trkpt>
      <trkpt lat="44.14641" lon="3.02891">
        <ele>603</ele>
        <time>2014-01-30T16:09:43Z</time>
      </trkpt>
      <trkpt lat="44.14636" lon="3.0289">
        <ele>602</ele>
        <time>2014-01-30T16:09:47Z</time>
      </trkpt>
      <trkpt lat="44.1463" lon="3.02888">
        <ele>603</ele>
        <time>2014-01-30T16:09:51Z</time>
      </trkpt>
      <trkpt lat="44.14625" lon="3.02885">
        <ele>604</ele>
        <time>2014-01-30T16:09:55Z</time>
      </trkpt>
      <trkpt lat="44.14622" lon="3.02881">
        <ele>605</ele>
        <time>2014-01-30T16:09:58Z</time>
      </trkpt>
      <trkpt lat="44.14617" lon="3.02877">
        <ele>606</ele>
        <time>2014-01-30T16:10:02Z</time>
      </trkpt>
      <trkpt lat="44.14613" lon="3.02874">
        <ele>607</ele>
        <time>2014-01-30T16:10:06Z</time>
      </trkpt>
      <trkpt lat="44.14609" lon="3.02871">
        <ele>607</ele>
        <time>2014-01-30T16:10:10Z</time>
      </trkpt>
      <trkpt lat="44.14604" lon="3.02869">
        <ele>606</ele>
        <time>2014-01-30T16:10:16Z</time>
      </trkpt>
      <trkpt lat="44.14599" lon="3.02866">
        <ele>607</ele>
        <time>2014-01-30T16:10:21Z</time>
      </trkpt>
      <trkpt lat="44.14595" lon="3.02862">
        <ele>607</ele>
        <time>2014-01-30T16:10:25Z</time>
      </trkpt>
      <trkpt lat="44.14591" lon="3.02858">
        <ele>608</ele>
        <time>2014-01-30T16:10:28Z</time>
      </trkpt>
      <trkpt lat="44.14585" lon="3.02857">
        <ele>612</ele>
        <time>2014-01-30T16:10:42Z</time>
      </trkpt>
      <trkpt lat="44.1458" lon="3.02855">
        <ele>612</ele>
        <time>2014-01-30T16:10:47Z</time>
      </trkpt>
      <trkpt lat="44.14576" lon="3.02852">
        <ele>611</ele>
        <time>2014-01-30T16:10:51Z</time>
      </trkpt>
      <trkpt lat="44.14572" lon="3.02849">
        <ele>610</ele>
        <time>2014-01-30T16:10:55Z</time>
      </trkpt>
      <trkpt lat="44.14568" lon="3.02845">
        <ele>610</ele>
        <time>2014-01-30T16:10:59Z</time>
      </trkpt>
      <trkpt lat="44.14564" lon="3.0284">
        <ele>610</ele>
        <time>2014-01-30T16:11:03Z</time>
      </trkpt>
      <trkpt lat="44.1456" lon="3.02836">
        <ele>611</ele>
        <time>2014-01-30T16:11:07Z</time>
      </trkpt>
      <trkpt lat="44.14557" lon="3.02832">
        <ele>611</ele>
        <time>2014-01-30T16:11:11Z</time>
      </trkpt>
      <trkpt lat="44.14552" lon="3.0283">
        <ele>611</ele>
        <time>2014-01-30T16:11:15Z</time>
      </trkpt>
      <trkpt lat="44.14547" lon="3.02831">
        <ele>612</ele>
        <time>2014-01-30T16:11:20Z</time>
      </trkpt>
      <trkpt lat="44.14542" lon="3.02832">
        <ele>610</ele>
        <time>2014-01-30T16:11:26Z</time>
      </trkpt>
      <trkpt lat="44.14537" lon="3.02834">
        <ele>609</ele>
        <time>2014-01-30T16:11:33Z</time>
      </trkpt>
      <trkpt lat="44.14531" lon="3.02835">
        <ele>606</ele>
        <time>2014-01-30T16:11:43Z</time>
      </trkpt>
      <trkpt lat="44.14527" lon="3.02835">
        <ele>604</ele>
        <time>2014-01-30T16:11:47Z</time>
      </trkpt>
      <trkpt lat="44.14522" lon="3.02837">
        <ele>603</ele>
        <time>2014-01-30T16:11:51Z</time>
      </trkpt>
      <trkpt lat="44.14518" lon="3.0284">
        <ele>602</ele>
        <time>2014-01-30T16:11:55Z</time>
      </trkpt>
      <trkpt lat="44.14513" lon="3.02843">
        <ele>603</ele>
        <time>2014-01-30T16:11:59Z</time>
      </trkpt>
      <trkpt lat="44.14508" lon="3.02845">
        <ele>604</ele>
        <time>2014-01-30T16:12:03Z</time>
      </trkpt>
      <trkpt lat="44.14503" lon="3.02845">
        <ele>605</ele>
        <time>2014-01-30T16:12:07Z</time>
      </trkpt>
      <trkpt lat="44.14499" lon="3.02846">
        <ele>603</ele>
        <time>2014-01-30T16:12:13Z</time>
      </trkpt>
      <trkpt lat="44.14494" lon="3.02848">
        <ele>603</ele>
        <time>2014-01-30T16:12:17Z</time>
      </trkpt>
      <trkpt lat="44.1449" lon="3.0285">
        <ele>602</ele>
        <time>2014-01-30T16:12:20Z</time>
      </trkpt>
      <trkpt lat="44.14485" lon="3.02852">
        <ele>603</ele>
        <time>2014-01-30T16:12:24Z</time>
      </trkpt>
      <trkpt lat="44.1448" lon="3.02853">
        <ele>604</ele>
        <time>2014-01-30T16:12:29Z</time>
      </trkpt>
      <trkpt lat="44.14475" lon="3.02854">
        <ele>604</ele>
        <time>2014-01-30T16:12:35Z</time>
      </trkpt>
      <trkpt lat="44.1447" lon="3.02854">
        <ele>603</ele>
        <time>2014-01-30T16:12:41Z</time>
      </trkpt>
      <trkpt lat="44.14467" lon="3.02859">
        <ele>603</ele>
        <time>2014-01-30T16:12:45Z</time>
      </trkpt>
      <trkpt lat="44.14464" lon="3.02863">
        <ele>603</ele>
        <time>2014-01-30T16:12:48Z</time>
      </trkpt>
      <trkpt lat="44.14461" lon="3.02869">
        <ele>603</ele>
        <time>2014-01-30T16:12:52Z</time>
      </trkpt>
      <trkpt lat="44.14459" lon="3.02875">
        <ele>604</ele>
        <time>2014-01-30T16:12:57Z</time>
      </trkpt>
      <trkpt lat="44.14454" lon="3.02881">
        <ele>604</ele>
        <time>2014-01-30T16:13:03Z</time>
      </trkpt>
      <trkpt lat="44.14451" lon="3.02887">
        <ele>603</ele>
        <time>2014-01-30T16:13:08Z</time>
      </trkpt>
      <trkpt lat="44.14448" lon="3.02893">
        <ele>604</ele>
        <time>2014-01-30T16:13:14Z</time>
      </trkpt>
      <trkpt lat="44.14445" lon="3.02899">
        <ele>605</ele>
        <time>2014-01-30T16:13:19Z</time>
      </trkpt>
      <trkpt lat="44.14442" lon="3.02904">
        <ele>607</ele>
        <time>2014-01-30T16:13:22Z</time>
      </trkpt>
      <trkpt lat="44.14439" lon="3.02911">
        <ele>609</ele>
        <time>2014-01-30T16:13:26Z</time>
      </trkpt>
      <trkpt lat="44.14436" lon="3.02915">
        <ele>611</ele>
        <time>2014-01-30T16:13:30Z</time>
      </trkpt>
      <trkpt lat="44.14432" lon="3.0292">
        <ele>612</ele>
        <time>2014-01-30T16:13:34Z</time>
      </trkpt>
      <trkpt lat="44.14429" lon="3.02925">
        <ele>612</ele>
        <time>2014-01-30T16:13:39Z</time>
      </trkpt>
      <trkpt lat="44.14426" lon="3.0293">
        <ele>611</ele>
        <time>2014-01-30T16:13:44Z</time>
      </trkpt>
      <trkpt lat="44.14423" lon="3.02936">
        <ele>610</ele>
        <time>2014-01-30T16:13:48Z</time>
      </trkpt>
      <trkpt lat="44.14419" lon="3.02941">
        <ele>610</ele>
        <time>2014-01-30T16:13:53Z</time>
      </trkpt>
      <trkpt lat="44.14416" lon="3.02947">
        <ele>610</ele>
        <time>2014-01-30T16:13:57Z</time>
      </trkpt>
      <trkpt lat="44.14413" lon="3.02951">
        <ele>610</ele>
        <time>2014-01-30T16:14:01Z</time>
      </trkpt>
      <trkpt lat="44.14409" lon="3.02955">
        <ele>611</ele>
        <time>2014-01-30T16:14:05Z</time>
      </trkpt>
      <trkpt lat="44.14405" lon="3.02957">
        <ele>611</ele>
        <time>2014-01-30T16:14:10Z</time>
      </trkpt>
      <trkpt lat="44.14402" lon="3.02962">
        <ele>612</ele>
        <time>2014-01-30T16:14:14Z</time>
      </trkpt>
      <trkpt lat="44.14398" lon="3.02967">
        <ele>613</ele>
        <time>2014-01-30T16:14:18Z</time>
      </trkpt>
      <trkpt lat="44.14394" lon="3.02971">
        <ele>613</ele>
        <time>2014-01-30T16:14:23Z</time>
      </trkpt>
      <trkpt lat="44.14389" lon="3.02974">
        <ele>613</ele>
        <time>2014-01-30T16:14:28Z</time>
      </trkpt>
      <trkpt lat="44.14385" lon="3.02979">
        <ele>614</ele>
        <time>2014-01-30T16:14:33Z</time>
      </trkpt>
      <trkpt lat="44.1438" lon="3.02983">
        <ele>615</ele>
        <time>2014-01-30T16:14:38Z</time>
      </trkpt>
      <trkpt lat="44.14376" lon="3.02987">
        <ele>617</ele>
        <time>2014-01-30T16:14:43Z</time>
      </trkpt>
      <trkpt lat="44.14371" lon="3.02991">
        <ele>619</ele>
        <time>2014-01-30T16:14:47Z</time>
      </trkpt>
      <trkpt lat="44.14368" lon="3.02995">
        <ele>620</ele>
        <time>2014-01-30T16:14:51Z</time>
      </trkpt>
      <trkpt lat="44.14365" lon="3.03">
        <ele>621</ele>
        <time>2014-01-30T16:14:55Z</time>
      </trkpt>
      <trkpt lat="44.14361" lon="3.03005">
        <ele>621</ele>
        <time>2014-01-30T16:14:59Z</time>
      </trkpt>
      <trkpt lat="44.14357" lon="3.03009">
        <ele>622</ele>
        <time>2014-01-30T16:15:03Z</time>
      </trkpt>
      <trkpt lat="44.14353" lon="3.03014">
        <ele>622</ele>
        <time>2014-01-30T16:15:07Z</time>
      </trkpt>
      <trkpt lat="44.1435" lon="3.03019">
        <ele>623</ele>
        <time>2014-01-30T16:15:11Z</time>
      </trkpt>
      <trkpt lat="44.14346" lon="3.03024">
        <ele>623</ele>
        <time>2014-01-30T16:15:15Z</time>
      </trkpt>
      <trkpt lat="44.14342" lon="3.03029">
        <ele>624</ele>
        <time>2014-01-30T16:15:19Z</time>
      </trkpt>
      <trkpt lat="44.14339" lon="3.03035">
        <ele>624</ele>
        <time>2014-01-30T16:15:23Z</time>
      </trkpt>
      <trkpt lat="44.14336" lon="3.03039">
        <ele>625</ele>
        <time>2014-01-30T16:15:28Z</time>
      </trkpt>
      <trkpt lat="44.14333" lon="3.03046">
        <ele>625</ele>
        <time>2014-01-30T16:15:34Z</time>
      </trkpt>
      <trkpt lat="44.14332" lon="3.03052">
        <ele>626</ele>
        <time>2014-01-30T16:15:40Z</time>
      </trkpt>
      <trkpt lat="44.14335" lon="3.03052">
        <ele>627</ele>
        <time>2014-01-30T16:17:22Z</time>
      </trkpt>
      <trkpt lat="44.14334" lon="3.03058">
        <ele>627</ele>
        <time>2014-01-30T16:17:51Z</time>
      </trkpt>
      <trkpt lat="44.14331" lon="3.03065">
        <ele>629</ele>
        <time>2014-01-30T16:17:55Z</time>
      </trkpt>
      <trkpt lat="44.14328" lon="3.0307">
        <ele>630</ele>
        <time>2014-01-30T16:17:58Z</time>
      </trkpt>
      <trkpt lat="44.14325" lon="3.03075">
        <ele>630</ele>
        <time>2014-01-30T16:18:02Z</time>
      </trkpt>
      <trkpt lat="44.14322" lon="3.03081">
        <ele>630</ele>
        <time>2014-01-30T16:18:05Z</time>
      </trkpt>
      <trkpt lat="44.14319" lon="3.03087">
        <ele>631</ele>
        <time>2014-01-30T16:18:08Z</time>
      </trkpt>
      <trkpt lat="44.14318" lon="3.03093">
        <ele>631</ele>
        <time>2014-01-30T16:18:11Z</time>
      </trkpt>
      <trkpt lat="44.14316" lon="3.03099">
        <ele>632</ele>
        <time>2014-01-30T16:18:14Z</time>
      </trkpt>
      <trkpt lat="44.14314" lon="3.03105">
        <ele>632</ele>
        <time>2014-01-30T16:18:18Z</time>
      </trkpt>
      <trkpt lat="44.14311" lon="3.03112">
        <ele>632</ele>
        <time>2014-01-30T16:18:22Z</time>
      </trkpt>
      <trkpt lat="44.14308" lon="3.03118">
        <ele>633</ele>
        <time>2014-01-30T16:18:25Z</time>
      </trkpt>
      <trkpt lat="44.14306" lon="3.03124">
        <ele>634</ele>
        <time>2014-01-30T16:18:29Z</time>
      </trkpt>
      <trkpt lat="44.14302" lon="3.03129">
        <ele>634</ele>
        <time>2014-01-30T16:18:34Z</time>
      </trkpt>
      <trkpt lat="44.143" lon="3.03136">
        <ele>633</ele>
        <time>2014-01-30T16:18:38Z</time>
      </trkpt>
      <trkpt lat="44.14297" lon="3.03143">
        <ele>632</ele>
        <time>2014-01-30T16:18:42Z</time>
      </trkpt>
      <trkpt lat="44.14294" lon="3.0315">
        <ele>632</ele>
        <time>2014-01-30T16:18:46Z</time>
      </trkpt>
      <trkpt lat="44.14292" lon="3.03157">
        <ele>632</ele>
        <time>2014-01-30T16:18:50Z</time>
      </trkpt>
      <trkpt lat="44.14289" lon="3.03163">
        <ele>632</ele>
        <time>2014-01-30T16:18:53Z</time>
      </trkpt>
      <trkpt lat="44.14286" lon="3.03167">
        <ele>632</ele>
        <time>2014-01-30T16:18:56Z</time>
      </trkpt>
      <trkpt lat="44.14282" lon="3.03173">
        <ele>633</ele>
        <time>2014-01-30T16:19:00Z</time>
      </trkpt>
      <trkpt lat="44.14279" lon="3.03179">
        <ele>633</ele>
        <time>2014-01-30T16:19:05Z</time>
      </trkpt>
      <trkpt lat="44.14276" lon="3.03185">
        <ele>632</ele>
        <time>2014-01-30T16:19:09Z</time>
      </trkpt>
      <trkpt lat="44.14273" lon="3.03191">
        <ele>631</ele>
        <time>2014-01-30T16:19:12Z</time>
      </trkpt>
      <trkpt lat="44.14271" lon="3.03196">
        <ele>632</ele>
        <time>2014-01-30T16:19:15Z</time>
      </trkpt>
      <trkpt lat="44.14268" lon="3.03202">
        <ele>632</ele>
        <time>2014-01-30T16:19:18Z</time>
      </trkpt>
      <trkpt lat="44.14266" lon="3.03208">
        <ele>632</ele>
        <time>2014-01-30T16:19:21Z</time>
      </trkpt>
      <trkpt lat="44.14264" lon="3.03215">
        <ele>632</ele>
        <time>2014-01-30T16:19:25Z</time>
      </trkpt>
      <trkpt lat="44.14261" lon="3.03221">
        <ele>631</ele>
        <time>2014-01-30T16:19:29Z</time>
      </trkpt>
      <trkpt lat="44.14258" lon="3.03226">
        <ele>631</ele>
        <time>2014-01-30T16:19:33Z</time>
      </trkpt>
      <trkpt lat="44.14254" lon="3.03232">
        <ele>630</ele>
        <time>2014-01-30T16:19:37Z</time>
      </trkpt>
      <trkpt lat="44.14251" lon="3.03239">
        <ele>630</ele>
        <time>2014-01-30T16:19:41Z</time>
      </trkpt>
      <trkpt lat="44.14249" lon="3.03245">
        <ele>630</ele>
        <time>2014-01-30T16:19:45Z</time>
      </trkpt>
      <trkpt lat="44.14246" lon="3.03251">
        <ele>630</ele>
        <time>2014-01-30T16:19:49Z</time>
      </trkpt>
      <trkpt lat="44.14243" lon="3.03255">
        <ele>631</ele>
        <time>2014-01-30T16:19:52Z</time>
      </trkpt>
      <trkpt lat="44.1424" lon="3.0326">
        <ele>631</ele>
        <time>2014-01-30T16:19:55Z</time>
      </trkpt>
      <trkpt lat="44.14237" lon="3.03267">
        <ele>631</ele>
        <time>2014-01-30T16:19:59Z</time>
      </trkpt>
      <trkpt lat="44.14234" lon="3.03272">
        <ele>632</ele>
        <time>2014-01-30T16:20:03Z</time>
      </trkpt>
      <trkpt lat="44.14232" lon="3.03279">
        <ele>632</ele>
        <time>2014-01-30T16:20:08Z</time>
      </trkpt>
      <trkpt lat="44.14229" lon="3.03285">
        <ele>632</ele>
        <time>2014-01-30T16:20:13Z</time>
      </trkpt>
      <trkpt lat="44.14225" lon="3.03289">
        <ele>632</ele>
        <time>2014-01-30T16:20:17Z</time>
      </trkpt>
      <trkpt lat="44.14221" lon="3.03294">
        <ele>633</ele>
        <time>2014-01-30T16:20:21Z</time>
      </trkpt>
      <trkpt lat="44.14217" lon="3.03299">
        <ele>634</ele>
        <time>2014-01-30T16:20:24Z</time>
      </trkpt>
      <trkpt lat="44.14214" lon="3.03303">
        <ele>632</ele>
        <time>2014-01-30T16:20:29Z</time>
      </trkpt>
      <trkpt lat="44.1421" lon="3.03308">
        <ele>631</ele>
        <time>2014-01-30T16:20:37Z</time>
      </trkpt>
      <trkpt lat="44.14207" lon="3.03313">
        <ele>631</ele>
        <time>2014-01-30T16:20:40Z</time>
      </trkpt>
      <trkpt lat="44.14202" lon="3.03318">
        <ele>631</ele>
        <time>2014-01-30T16:20:44Z</time>
      </trkpt>
      <trkpt lat="44.14198" lon="3.03322">
        <ele>631</ele>
        <time>2014-01-30T16:20:47Z</time>
      </trkpt>
      <trkpt lat="44.14194" lon="3.03327">
        <ele>632</ele>
        <time>2014-01-30T16:20:51Z</time>
      </trkpt>
      <trkpt lat="44.1419" lon="3.03333">
        <ele>632</ele>
        <time>2014-01-30T16:20:55Z</time>
      </trkpt>
      <trkpt lat="44.14187" lon="3.03339">
        <ele>633</ele>
        <time>2014-01-30T16:20:58Z</time>
      </trkpt>
      <trkpt lat="44.14183" lon="3.03343">
        <ele>634</ele>
        <time>2014-01-30T16:21:01Z</time>
      </trkpt>
      <trkpt lat="44.14179" lon="3.03347">
        <ele>634</ele>
        <time>2014-01-30T16:21:04Z</time>
      </trkpt>
      <trkpt lat="44.14175" lon="3.03352">
        <ele>634</ele>
        <time>2014-01-30T16:21:08Z</time>
      </trkpt>
      <trkpt lat="44.14171" lon="3.03356">
        <ele>635</ele>
        <time>2014-01-30T16:21:12Z</time>
      </trkpt>
      <trkpt lat="44.14166" lon="3.0336">
        <ele>636</ele>
        <time>2014-01-30T16:21:16Z</time>
      </trkpt>
      <trkpt lat="44.14162" lon="3.03365">
        <ele>637</ele>
        <time>2014-01-30T16:21:20Z</time>
      </trkpt>
      <trkpt lat="44.14159" lon="3.0337">
        <ele>638</ele>
        <time>2014-01-30T16:21:23Z</time>
      </trkpt>
      <trkpt lat="44.14154" lon="3.03375">
        <ele>637</ele>
        <time>2014-01-30T16:21:27Z</time>
      </trkpt>
      <trkpt lat="44.14151" lon="3.03379">
        <ele>636</ele>
        <time>2014-01-30T16:21:30Z</time>
      </trkpt>
      <trkpt lat="44.14146" lon="3.03383">
        <ele>636</ele>
        <time>2014-01-30T16:21:34Z</time>
      </trkpt>
      <trkpt lat="44.14142" lon="3.03387">
        <ele>635</ele>
        <time>2014-01-30T16:21:37Z</time>
      </trkpt>
      <trkpt lat="44.14138" lon="3.0339">
        <ele>635</ele>
        <time>2014-01-30T16:21:40Z</time>
      </trkpt>
      <trkpt lat="44.14133" lon="3.03393">
        <ele>636</ele>
        <time>2014-01-30T16:21:43Z</time>
      </trkpt>
      <trkpt lat="44.14129" lon="3.03395">
        <ele>636</ele>
        <time>2014-01-30T16:21:46Z</time>
      </trkpt>
      <trkpt lat="44.14125" lon="3.03398">
        <ele>636</ele>
        <time>2014-01-30T16:21:49Z</time>
      </trkpt>
      <trkpt lat="44.14119" lon="3.03401">
        <ele>636</ele>
        <time>2014-01-30T16:21:53Z</time>
      </trkpt>
      <trkpt lat="44.14114" lon="3.03401">
        <ele>635</ele>
        <time>2014-01-30T16:21:57Z</time>
      </trkpt>
      <trkpt lat="44.14109" lon="3.03402">
        <ele>634</ele>
        <time>2014-01-30T16:22:01Z</time>
      </trkpt>
      <trkpt lat="44.14104" lon="3.03402">
        <ele>634</ele>
        <time>2014-01-30T16:22:05Z</time>
      </trkpt>
      <trkpt lat="44.14098" lon="3.03402">
        <ele>633</ele>
        <time>2014-01-30T16:22:09Z</time>
      </trkpt>
      <trkpt lat="44.14093" lon="3.03403">
        <ele>633</ele>
        <time>2014-01-30T16:22:12Z</time>
      </trkpt>
      <trkpt lat="44.14089" lon="3.03404">
        <ele>633</ele>
        <time>2014-01-30T16:22:15Z</time>
      </trkpt>
      <trkpt lat="44.14084" lon="3.03404">
        <ele>633</ele>
        <time>2014-01-30T16:22:18Z</time>
      </trkpt>
      <trkpt lat="44.14078" lon="3.03405">
        <ele>634</ele>
        <time>2014-01-30T16:22:22Z</time>
      </trkpt>
      <trkpt lat="44.14072" lon="3.03409">
        <ele>635</ele>
        <time>2014-01-30T16:22:26Z</time>
      </trkpt>
      <trkpt lat="44.14069" lon="3.03413">
        <ele>635</ele>
        <time>2014-01-30T16:22:29Z</time>
      </trkpt>
      <trkpt lat="44.14065" lon="3.03419">
        <ele>635</ele>
        <time>2014-01-30T16:22:33Z</time>
      </trkpt>
      <trkpt lat="44.14062" lon="3.03424">
        <ele>635</ele>
        <time>2014-01-30T16:22:36Z</time>
      </trkpt>
      <trkpt lat="44.14058" lon="3.03431">
        <ele>635</ele>
        <time>2014-01-30T16:22:40Z</time>
      </trkpt>
      <trkpt lat="44.14055" lon="3.03438">
        <ele>633</ele>
        <time>2014-01-30T16:22:44Z</time>
      </trkpt>
      <trkpt lat="44.14053" lon="3.03444">
        <ele>632</ele>
        <time>2014-01-30T16:22:47Z</time>
      </trkpt>
      <trkpt lat="44.14052" lon="3.0345">
        <ele>631</ele>
        <time>2014-01-30T16:22:50Z</time>
      </trkpt>
      <trkpt lat="44.14051" lon="3.03456">
        <ele>631</ele>
        <time>2014-01-30T16:22:54Z</time>
      </trkpt>
      <trkpt lat="44.14053" lon="3.03463">
        <ele>629</ele>
        <time>2014-01-30T16:22:58Z</time>
      </trkpt>
      <trkpt lat="44.14054" lon="3.0347">
        <ele>627</ele>
        <time>2014-01-30T16:23:01Z</time>
      </trkpt>
      <trkpt lat="44.14055" lon="3.03477">
        <ele>625</ele>
        <time>2014-01-30T16:23:06Z</time>
      </trkpt>
      <trkpt lat="44.14056" lon="3.03484">
        <ele>624</ele>
        <time>2014-01-30T16:23:10Z</time>
      </trkpt>
      <trkpt lat="44.14057" lon="3.03491">
        <ele>623</ele>
        <time>2014-01-30T16:23:14Z</time>
      </trkpt>
      <trkpt lat="44.14058" lon="3.03499">
        <ele>622</ele>
        <time>2014-01-30T16:23:18Z</time>
      </trkpt>
      <trkpt lat="44.14058" lon="3.03506">
        <ele>620</ele>
        <time>2014-01-30T16:23:22Z</time>
      </trkpt>
      <trkpt lat="44.14058" lon="3.03513">
        <ele>620</ele>
        <time>2014-01-30T16:23:25Z</time>
      </trkpt>
      <trkpt lat="44.14057" lon="3.03519">
        <ele>619</ele>
        <time>2014-01-30T16:23:28Z</time>
      </trkpt>
      <trkpt lat="44.14055" lon="3.03527">
        <ele>619</ele>
        <time>2014-01-30T16:23:32Z</time>
      </trkpt>
      <trkpt lat="44.14053" lon="3.03533">
        <ele>619</ele>
        <time>2014-01-30T16:23:36Z</time>
      </trkpt>
      <trkpt lat="44.14048" lon="3.03538">
        <ele>620</ele>
        <time>2014-01-30T16:23:40Z</time>
      </trkpt>
      <trkpt lat="44.14044" lon="3.03542">
        <ele>620</ele>
        <time>2014-01-30T16:23:43Z</time>
      </trkpt>
      <trkpt lat="44.1404" lon="3.03547">
        <ele>619</ele>
        <time>2014-01-30T16:23:47Z</time>
      </trkpt>
      <trkpt lat="44.14035" lon="3.03552">
        <ele>620</ele>
        <time>2014-01-30T16:23:51Z</time>
      </trkpt>
      <trkpt lat="44.14032" lon="3.03556">
        <ele>621</ele>
        <time>2014-01-30T16:23:54Z</time>
      </trkpt>
      <trkpt lat="44.14028" lon="3.0356">
        <ele>623</ele>
        <time>2014-01-30T16:23:57Z</time>
      </trkpt>
      <trkpt lat="44.14024" lon="3.03564">
        <ele>624</ele>
        <time>2014-01-30T16:24:00Z</time>
      </trkpt>
      <trkpt lat="44.14021" lon="3.03569">
        <ele>624</ele>
        <time>2014-01-30T16:24:03Z</time>
      </trkpt>
      <trkpt lat="44.14017" lon="3.03573">
        <ele>624</ele>
        <time>2014-01-30T16:24:06Z</time>
      </trkpt>
      <trkpt lat="44.14012" lon="3.03577">
        <ele>624</ele>
        <time>2014-01-30T16:24:10Z</time>
      </trkpt>
      <trkpt lat="44.14007" lon="3.03581">
        <ele>623</ele>
        <time>2014-01-30T16:24:14Z</time>
      </trkpt>
      <trkpt lat="44.14003" lon="3.03582">
        <ele>623</ele>
        <time>2014-01-30T16:24:17Z</time>
      </trkpt>
      <trkpt lat="44.13997" lon="3.03583">
        <ele>622</ele>
        <time>2014-01-30T16:24:21Z</time>
      </trkpt>
      <trkpt lat="44.13992" lon="3.03586">
        <ele>622</ele>
        <time>2014-01-30T16:24:25Z</time>
      </trkpt>
      <trkpt lat="44.13986" lon="3.03588">
        <ele>621</ele>
        <time>2014-01-30T16:24:29Z</time>
      </trkpt>
      <trkpt lat="44.13981" lon="3.0359">
        <ele>621</ele>
        <time>2014-01-30T16:24:33Z</time>
      </trkpt>
      <trkpt lat="44.13975" lon="3.03591">
        <ele>621</ele>
        <time>2014-01-30T16:24:37Z</time>
      </trkpt>
      <trkpt lat="44.1397" lon="3.0359">
        <ele>621</ele>
        <time>2014-01-30T16:24:41Z</time>
      </trkpt>
      <trkpt lat="44.13965" lon="3.0359">
        <ele>620</ele>
        <time>2014-01-30T16:24:45Z</time>
      </trkpt>
      <trkpt lat="44.1396" lon="3.0359">
        <ele>619</ele>
        <time>2014-01-30T16:24:49Z</time>
      </trkpt>
      <trkpt lat="44.13955" lon="3.0359">
        <ele>619</ele>
        <time>2014-01-30T16:24:52Z</time>
      </trkpt>
      <trkpt lat="44.1395" lon="3.03592">
        <ele>619</ele>
        <time>2014-01-30T16:24:55Z</time>
      </trkpt>
      <trkpt lat="44.13945" lon="3.03595">
        <ele>619</ele>
        <time>2014-01-30T16:24:58Z</time>
      </trkpt>
      <trkpt lat="44.1394" lon="3.03598">
        <ele>619</ele>
        <time>2014-01-30T16:25:01Z</time>
      </trkpt>
      <trkpt lat="44.13935" lon="3.03602">
        <ele>618</ele>
        <time>2014-01-30T16:25:04Z</time>
      </trkpt>
      <trkpt lat="44.1393" lon="3.03606">
        <ele>619</ele>
        <time>2014-01-30T16:25:07Z</time>
      </trkpt>
      <trkpt lat="44.13925" lon="3.0361">
        <ele>619</ele>
        <time>2014-01-30T16:25:11Z</time>
      </trkpt>
      <trkpt lat="44.13921" lon="3.03614">
        <ele>619</ele>
        <time>2014-01-30T16:25:15Z</time>
      </trkpt>
      <trkpt lat="44.13917" lon="3.03618">
        <ele>620</ele>
        <time>2014-01-30T16:25:19Z</time>
      </trkpt>
      <trkpt lat="44.13912" lon="3.03622">
        <ele>620</ele>
        <time>2014-01-30T16:25:23Z</time>
      </trkpt>
      <trkpt lat="44.13909" lon="3.03627">
        <ele>621</ele>
        <time>2014-01-30T16:25:26Z</time>
      </trkpt>
      <trkpt lat="44.13906" lon="3.03632">
        <ele>621</ele>
        <time>2014-01-30T16:25:29Z</time>
      </trkpt>
      <trkpt lat="44.13903" lon="3.03637">
        <ele>621</ele>
        <time>2014-01-30T16:25:32Z</time>
      </trkpt>
      <trkpt lat="44.139" lon="3.03642">
        <ele>621</ele>
        <time>2014-01-30T16:25:35Z</time>
      </trkpt>
      <trkpt lat="44.13898" lon="3.03648">
        <ele>620</ele>
        <time>2014-01-30T16:25:38Z</time>
      </trkpt>
      <trkpt lat="44.13897" lon="3.03654">
        <ele>620</ele>
        <time>2014-01-30T16:25:42Z</time>
      </trkpt>
      <trkpt lat="44.13897" lon="3.03662">
        <ele>619</ele>
        <time>2014-01-30T16:25:46Z</time>
      </trkpt>
      <trkpt lat="44.13897" lon="3.03669">
        <ele>618</ele>
        <time>2014-01-30T16:25:50Z</time>
      </trkpt>
      <trkpt lat="44.13897" lon="3.03676">
        <ele>618</ele>
        <time>2014-01-30T16:25:53Z</time>
      </trkpt>
      <trkpt lat="44.13898" lon="3.03683">
        <ele>618</ele>
        <time>2014-01-30T16:25:57Z</time>
      </trkpt>
      <trkpt lat="44.13898" lon="3.03691">
        <ele>617</ele>
        <time>2014-01-30T16:26:02Z</time>
      </trkpt>
      <trkpt lat="44.13897" lon="3.03698">
        <ele>617</ele>
        <time>2014-01-30T16:26:06Z</time>
      </trkpt>
      <trkpt lat="44.13897" lon="3.03705">
        <ele>616</ele>
        <time>2014-01-30T16:26:10Z</time>
      </trkpt>
      <trkpt lat="44.13897" lon="3.03712">
        <ele>616</ele>
        <time>2014-01-30T16:26:14Z</time>
      </trkpt>
      <trkpt lat="44.13896" lon="3.03719">
        <ele>615</ele>
        <time>2014-01-30T16:26:19Z</time>
      </trkpt>
      <trkpt lat="44.13894" lon="3.03725">
        <ele>615</ele>
        <time>2014-01-30T16:26:23Z</time>
      </trkpt>
      <trkpt lat="44.13892" lon="3.03732">
        <ele>615</ele>
        <time>2014-01-30T16:26:27Z</time>
      </trkpt>
      <trkpt lat="44.13889" lon="3.03738">
        <ele>615</ele>
        <time>2014-01-30T16:26:31Z</time>
      </trkpt>
      <trkpt lat="44.13888" lon="3.03746">
        <ele>615</ele>
        <time>2014-01-30T16:26:35Z</time>
      </trkpt>
      <trkpt lat="44.13885" lon="3.03752">
        <ele>616</ele>
        <time>2014-01-30T16:26:39Z</time>
      </trkpt>
      <trkpt lat="44.13882" lon="3.03758">
        <ele>617</ele>
        <time>2014-01-30T16:26:42Z</time>
      </trkpt>
      <trkpt lat="44.13879" lon="3.03763">
        <ele>618</ele>
        <time>2014-01-30T16:26:46Z</time>
      </trkpt>
      <trkpt lat="44.13876" lon="3.03768">
        <ele>619</ele>
        <time>2014-01-30T16:26:51Z</time>
      </trkpt>
      <trkpt lat="44.13872" lon="3.03773">
        <ele>620</ele>
        <time>2014-01-30T16:26:55Z</time>
      </trkpt>
      <trkpt lat="44.13868" lon="3.03779">
        <ele>620</ele>
        <time>2014-01-30T16:26:59Z</time>
      </trkpt>
      <trkpt lat="44.13864" lon="3.03785">
        <ele>621</ele>
        <time>2014-01-30T16:27:03Z</time>
      </trkpt>
      <trkpt lat="44.1386" lon="3.03788">
        <ele>622</ele>
        <time>2014-01-30T16:27:06Z</time>
      </trkpt>
      <trkpt lat="44.13856" lon="3.03793">
        <ele>623</ele>
        <time>2014-01-30T16:27:10Z</time>
      </trkpt>
      <trkpt lat="44.13852" lon="3.03797">
        <ele>625</ele>
        <time>2014-01-30T16:27:14Z</time>
      </trkpt>
      <trkpt lat="44.13848" lon="3.03802">
        <ele>625</ele>
        <time>2014-01-30T16:27:18Z</time>
      </trkpt>
      <trkpt lat="44.13844" lon="3.03804">
        <ele>626</ele>
        <time>2014-01-30T16:27:23Z</time>
      </trkpt>
      <trkpt lat="44.1384" lon="3.03801">
        <ele>627</ele>
        <time>2014-01-30T16:27:28Z</time>
      </trkpt>
      <trkpt lat="44.13837" lon="3.03795">
        <ele>628</ele>
        <time>2014-01-30T16:27:32Z</time>
      </trkpt>
      <trkpt lat="44.13836" lon="3.03788">
        <ele>627</ele>
        <time>2014-01-30T16:27:36Z</time>
      </trkpt>
      <trkpt lat="44.13834" lon="3.03781">
        <ele>626</ele>
        <time>2014-01-30T16:27:40Z</time>
      </trkpt>
      <trkpt lat="44.1383" lon="3.03776">
        <ele>624</ele>
        <time>2014-01-30T16:27:44Z</time>
      </trkpt>
      <trkpt lat="44.13826" lon="3.03771">
        <ele>622</ele>
        <time>2014-01-30T16:27:49Z</time>
      </trkpt>
      <trkpt lat="44.13821" lon="3.03772">
        <ele>621</ele>
        <time>2014-01-30T16:27:53Z</time>
      </trkpt>
      <trkpt lat="44.13816" lon="3.03774">
        <ele>621</ele>
        <time>2014-01-30T16:27:57Z</time>
      </trkpt>
      <trkpt lat="44.13811" lon="3.03774">
        <ele>621</ele>
        <time>2014-01-30T16:28:01Z</time>
      </trkpt>
      <trkpt lat="44.13808" lon="3.03777">
        <ele>621</ele>
        <time>2014-01-30T16:28:09Z</time>
      </trkpt>
      <trkpt lat="44.13812" lon="3.03782">
        <ele>621</ele>
        <time>2014-01-30T16:28:16Z</time>
      </trkpt>
      <trkpt lat="44.13811" lon="3.0379">
        <ele>623</ele>
        <time>2014-01-30T16:28:24Z</time>
      </trkpt>
      <trkpt lat="44.13807" lon="3.03797">
        <ele>625</ele>
        <time>2014-01-30T16:28:26Z</time>
      </trkpt>
      <trkpt lat="44.13802" lon="3.03803">
        <ele>626</ele>
        <time>2014-01-30T16:28:29Z</time>
      </trkpt>
      <trkpt lat="44.13797" lon="3.03807">
        <ele>627</ele>
        <time>2014-01-30T16:28:32Z</time>
      </trkpt>
      <trkpt lat="44.13793" lon="3.03811">
        <ele>628</ele>
        <time>2014-01-30T16:28:35Z</time>
      </trkpt>
      <trkpt lat="44.1379" lon="3.03816">
        <ele>629</ele>
        <time>2014-01-30T16:28:38Z</time>
      </trkpt>
      <trkpt lat="44.13788" lon="3.03822">
        <ele>629</ele>
        <time>2014-01-30T16:28:40Z</time>
      </trkpt>
      <trkpt lat="44.13786" lon="3.03829">
        <ele>627</ele>
        <time>2014-01-30T16:28:44Z</time>
      </trkpt>
      <trkpt lat="44.13783" lon="3.03818">
        <ele>627</ele>
        <time>2014-01-30T16:28:49Z</time>
      </trkpt>
      <trkpt lat="44.13783" lon="3.03811">
        <ele>626</ele>
        <time>2014-01-30T16:28:51Z</time>
      </trkpt>
      <trkpt lat="44.13782" lon="3.03803">
        <ele>625</ele>
        <time>2014-01-30T16:28:53Z</time>
      </trkpt>
      <trkpt lat="44.13782" lon="3.03796">
        <ele>624</ele>
        <time>2014-01-30T16:28:55Z</time>
      </trkpt>
      <trkpt lat="44.13782" lon="3.03789">
        <ele>622</ele>
        <time>2014-01-30T16:28:58Z</time>
      </trkpt>
      <trkpt lat="44.13782" lon="3.03784">
        <ele>621</ele>
        <time>2014-01-30T16:29:07Z</time>
      </trkpt>
      <trkpt lat="44.13783" lon="3.03781">
        <ele>618</ele>
        <time>2014-01-30T16:29:13Z</time>
      </trkpt>
    </trkseg>
  </trk>
</gpx>